     2              OBSERVATION DATA    GPS                 RINEX VERSION / TYPE
teqc 2000Feb29 20021016 17:30:16UTC                         PGM / RUN BY / DATE
                                                            COMMENT
L2: 1 -> 1; 5 -> 5; 60 -> 9                                 COMMENT
L2: 1 -> 1; 5 -> 5; 60 -> 9                                 COMMENT
L2: 1 -> 1; 5 -> 5; 60 -> 9                                 COMMENT
L2: 1 -> 1; 5 -> 5; 60 -> 9                                 COMMENT
L2: 1 -> 1; 5 -> 5; 60 -> 9                                 COMMENT
Original Marker Name: HERS                                  COMMENT
Campaign Name: Yolo County Subsidence 2002                  COMMENT
4-Character Station Name: HERS                              COMMENT
6-Character Antenna Code: TRMCMP                            COMMENT
Vertical Measurement Point: BPA                             COMMENT
Vertical Offset to Rinex Ref. Point: 0.0000                 COMMENT
Radial Measurement Point: RRP                               COMMENT
Radial Offset to Rinex Ref. Point: 0.0000                   COMMENT
Antenna Height from Field Measurement: 2.0000 m             COMMENT
Additional Antenna Identification Info.:                    COMMENT
Model 22020.00+GP                                           COMMENT
Original XYZ: -2628491.3125 -4220472.6406 3981487.5179      COMMENT
New XYZ position is based on association with SCEC monument COMMENT
E1O4H6P7+0011. Position of that monument is believed to be  COMMENT
valid to within 1 m horizontally; vertical accuracy         COMMENT
should be no worse than 3-times this value.                 COMMENT
                                                            COMMENT
Revised Rinex header created by UCSD GPS archive for        COMMENT
GSAC on 27-Jun-2003 (2003:178) 16:42:58 GMT                 COMMENT
For assistance contact dagnew@ucsd.edu                      COMMENT
or anderson@python.ucsd.edu                                 COMMENT
                                                            COMMENT
HERSHEY 1999                                                MARKER NAME
HERS                                                        MARKER NUMBER
-Unknown- YOLO_COUNTY                                       OBSERVER / AGENCY
14632 TRIMBLE 4000 SSI NP 7.19; SP 3.04                     REC # / TYPE / VERS
0220056501 TR GEOD L1/L2 GP                                 ANT # / TYPE
 -2628490.0987 -4220473.3244  3981485.3617                  APPROX POSITION XYZ
        2.0000        0.0000        0.0000                  ANTENNA: DELTA H/E/N
     1     1     0                                          WAVELENGTH FACT L1/2
     7    C1    L1    L2    P1    P2    S1    S2            # / TYPES OF OBSERV
     0                                                      INTERVAL
  2002     7     8    14    57   45.000000                  TIME OF FIRST OBS
  2002     7     8    15    47   15.000000                  TIME OF LAST OBS
                                                            END OF HEADER
 02  7  8 14 57 45.0000000  0 10G 5G 6G10G15G17G18G23G26G29G30
  24373257.1484     181172.64155    111711.07555                  24373266.6804
         9.2504         10.5004
  20485007.6804      -1867.40458     -1455.13157                  20485012.7304
        29.5004         27.5004
  22022591.7114     126623.77757     50683.78356                  22022597.7464
        25.0004         23.7504
  22469332.7734     -78222.68256    -60952.38056                  22469338.9494
        18.2504         18.5004
  21732147.5314     -49091.02957    -38252.69556                  21732153.3324
        22.7504         24.2504
  24037193.0944    -133302.41755   -103871.67255                  24037199.3524
        10.5004         11.0004
  20932810.3444      -1175.33258      -547.33557                  20932816.1094
        30.0004         29.2504
  24350988.2504     -74475.38855
         8.2504
  24048018.2194     -72379.01955
        10.5004
  22108471.8444     156957.12857     82641.40756                  22108477.9494
        22.2504         22.0004
 02  7  8 14 58  0.0000000  0 10G 5G 6G10G15G17G18G23G26G29G30
  24385337.8284     244656.66245    161178.99145                  24385347.3244
         9.5004         10.5004
  20484968.0004      -2077.79848     -1619.08747                  20484973.2734
        30.0004         28.0004
  22031089.4224     171279.98947     85480.80746                  22031095.5274
        24.5004         23.7504
  22464210.3444    -105139.37346    -81926.43246                  22464216.6024
        17.7504         18.7504
  21728959.6254     -65839.35947    -51303.34646                  21728965.6844
        21.7504         24.0004
  24028405.4064    -179483.57245   -139856.95545                  24028412.0984
        10.5004         10.2504
  20932832.7664      -1058.18148      -456.05547                  20932838.4384
        30.0004         29.2504
  24044606.3444    -109105.94945
         9.0004
  24043285.5394     -97248.67845     -9023.05155                  24043294.8014
        10.2504         10.7504
  22118970.4614     212127.20247    125631.02946                  22118976.2734
        22.5004         21.7504
 02  7  8 14 58 15.0000000  0 10G 5G 6G10G15G17G18G23G26G29G30
  24397445.6254     308282.77845    210757.65645                  24397455.2274
         9.5004         11.0004
  20484970.8984      -2060.43348     -1605.56147                  20484975.9734
        29.0004         28.0004
  22039634.3284     216183.37247    120470.43046                  22039640.5984
        24.2504         23.5004
  22459124.8284    -131863.49546   -102750.42246                  22459131.2854
        18.0004         19.0004
  21725810.3834     -82392.58647    -64201.96546                  21725816.3834
        22.7504         24.0004
  24019648.4144    -225496.71945   -175711.32145                  24019654.5084
        10.0004         10.2504
  20932906.8204       -668.87548      -152.70247                  20932912.3054
        30.0004         29.2504
  24038050.0234    -143557.10345     -7143.46755                  24038060.5044
         9.0004          8.7504
  24038590.4224    -121920.86745    -28248.07645                  24038598.3244
        10.5004         10.0004
  22129509.4224     267508.73647    168785.41946                  22129515.0124
        22.7504         22.0004
 02  7  8 14 58 30.0000000  0 10G 5G 6G10G15G17G18G23G26G29G30
  24409579.7424     372046.64045    260443.63545                  24409588.1844
        10.0004         11.0004
  20485016.5944      -1819.24748     -1417.62747                  20485021.7974
        29.0004         27.5004
  22048225.7584     261329.46147    155649.17846                  22048231.7704
        24.7504         23.2504
  22454075.7194    -158399.15946   -123427.55246                  22454081.8954
        18.5004         18.5004
  21722696.6884     -98754.75247    -76951.70546                  21722702.4654
        22.7504         24.2504
  24010924.8284    -271345.75745   -211437.81645                  24010930.9804
        11.2504         11.0004
  20933031.8134        -11.50748       359.53447                  20933037.5784
        29.7504         29.0004
  24031527.0944    -177832.59545    -33851.55245                  24031538.3134
         8.0004          8.2504
  24033933.2504    -146399.34945    -47322.19845                  24033941.7974
        11.2504         10.5004
  22140087.3134     323097.35947    212101.18946                  22140093.0434
        21.7504         21.5004
 02  7  8 14 58 45.0000000  0 10G 5G 6G10G15G17G18G23G26G29G30
  24421738.2664     435940.81245    310231.17945                  24421747.4344
        10.7504         11.2504
  20485103.8984      -1361.26248     -1060.76647                  20485109.1134
        29.0004         27.5004
  22056861.3594     306710.81047    191011.24846                  22056867.6414
        24.5004         23.5004
  22449060.3364    -184753.55246   -143963.43546                  22449066.6764
        18.0004         18.7504
  21719617.6644    -114933.08747    -89558.20046                  21719623.6994
        22.2504         24.0004
  24002229.2114    -317037.49345   -247041.74745                  24002236.1524
        10.0004         10.2504
  20933206.4924        906.75148      1075.05747                  20933212.0594
        29.7504         29.0004
  24025036.5474    -211938.96245    -60427.85645                  24025046.5124
         7.5004          8.5004
  24029310.4454    -170690.88445    -66250.59845                  24029318.9344
        11.0004         10.5004
  22150703.6724     378885.47647    255572.40346                  22150709.4144
        22.0004         21.5004
 02  7  8 14 59  0.0000000  0 10G 5G 6G10G15G17G18G23G26G29G30
  24433919.9064     499951.63045    360109.58745                  24433929.5904
        10.7504         10.7504
  20485229.8594       -699.61348      -545.20347                  20485235.0164
        29.0004         27.5004
  22065538.9694     352313.76747    226545.99746                  22065545.1214
        24.2504         23.5004
  22444076.8754    -210939.95446   -164368.41446                  22444082.8524
        17.5004         18.5004
  21716572.2114    -130940.92247   -102031.82546                  21716578.2234
        23.5004         24.2504
  23993561.2734    -362584.93845   -282533.20645                  23993568.6134
        10.0004         10.7504
  20933428.7034       2072.55848      1983.47647                  20933434.2704
        30.5004         28.7504
  24018575.6884    -245889.20944    -86882.50445                  24018586.2734
         7.0004          8.2504
  24024720.8914    -194808.48545    -85043.49545                  24024727.9494
        10.7504         10.7504
  22161355.1094     434859.45047    299188.43446                  22161360.7114
        22.0004         21.5004
 02  7  8 14 59 15.0000000  0 10G 5G 6G10G15G17G18G23G26G29G30
  24446119.3524     564064.32045    410067.38745                  24446129.1884
        10.5004         10.7504
  20485391.9844        151.47748       117.98047                  20485397.2344
        29.5004         27.7504
  22074256.2114     398123.60547    262241.95846                  22074262.3754
        23.7504         23.2504
  22439123.0784    -236972.65046   -184653.62646                  22439129.1024
        18.0004         19.0004
  21713555.2504    -146792.66147   -114383.83446                  21713561.3204
        22.5004         24.2504
  23984919.8984    -408002.30145   -317923.32445                  23984925.6884
        11.0004         10.7504
  20933694.5634       3471.50748      3073.57047                  20933700.3054
        29.7504         29.0004
  24012143.0784    -279697.25645   -113226.35445                  24012152.4344
         8.2504          8.7504
  24020161.1724    -218766.24945   -103711.82745                  24020169.2034
        10.5004         10.5004
  22172039.1644     491004.51647    342937.80146                  22172044.9064
        21.7504         21.2504
 02  7  8 14 59 30.0000000  0 10G 5G 6G10G15G17G18G23G26G29G30
  24458336.0784     628261.28245    460090.86445                  24458345.0234
        10.5004         10.7504
  20485586.4614       1174.89648       915.44547                  20485591.7584
        29.5004         27.5004
  22083009.9694     444122.71847    298085.40646                  22083016.0164
        24.0004         23.5004
  22434195.2734    -262868.84246   -204832.47646                  22434201.3204
        18.0004         18.5004
  21710565.5234    -162505.60347   -126627.67446                  21710571.5124
        23.0004         24.2504
  23976298.0474    -453306.55145   -353225.31945                  23976304.0944
        10.7504         11.0004
  20934002.0234       5086.37048      4331.90247                  20934007.8134
        29.7504         29.0004
  24005733.5864    -313379.92245   -139472.46145                  24005743.6094
         8.7504          9.0004
  24015630.2194    -242580.96745   -122268.69345                  24015638.0864
        10.7504         10.5004
  22182752.6564     547303.08447    386806.76946                  22182758.2234
        22.0004         21.0004
 02  7  8 14 59 45.0000000  0 10G 5G 6G10G15G17G18G23G26G29G30
  24470565.5394     692530.04545    510170.29845                  24470574.4264
         9.7504          9.7504
  20485811.9064       2358.60948      1837.81047                  20485816.7814
        29.5004         27.7504
  22091796.7504     490298.72347    334066.68346                  22091803.0434
        23.7504         23.5004
  22429291.2734    -288640.77146   -224914.49246                  22429297.2154
        18.5004         18.5004
  21707599.1254    -178091.89347   -138772.83446                  21707605.2074
        22.7504         24.2504
  23967695.4144    -498509.47845   -388448.32545                  23967702.2234
        10.0004         10.5004
  20934347.7424       6904.99048      5749.00947                  20934353.5784
        29.5004         29.0004
  23999344.2424    -346948.97845   -165630.12545                  23999353.9964
         8.5004          8.7504
  24011122.5554    -266264.50245   -140723.38145                  24011131.0204
        10.0004         10.5004
  22193492.2814     603742.52047    430785.50546                  22193497.9184
        21.2504         21.0004
 02  7  8 15  0  0.0000000  0 10G 5G 6G10G15G17G18G23G26G29G30
  24482807.8754     756859.55845    560297.04045                  24482818.0394
         9.5004          9.5004
  20486065.5704       3692.02248      2876.83047                  20486070.7034
        29.2504         27.7504
  22100615.1804     536640.43347    370177.09046                  22100621.4384
        23.7504         23.2504
  22424408.6484    -314299.17746   -244908.05146                  22424414.5314
        18.7504         18.7504
  21704655.2894    -193562.35147   -150827.73746                  21704661.2304
        22.7504         24.5004
  23959111.2194    -543621.59745   -423600.60745                  23959118.7934
        10.2504         10.7504
  20934730.6724       8916.59748      7316.49447                  20934736.6254
        29.5004         28.7504
  23992976.3444    -380414.84945   -191707.33345                  23992986.3204
         8.7504          9.2504
  24006639.2274    -289827.20345   -159083.84845                  24006647.0594
        11.0004         10.7504
  22204256.9144     660311.86347    474865.46146                  22204262.6564
        21.0004         21.0004
 02  7  8 15  0 15.0000000  0 10G 5G 6G10G15G17G18G23G26G29G30
  24495059.4844     821242.54545    610465.49645                  24495070.0944
         9.2504          9.0004
  20486346.4304       5168.31048      4027.17947                  20486351.6214
        29.2504         27.7504
  22109464.0634     583140.43947    406410.84046                  22109470.4144
        23.7504         23.2504
  22419545.8754    -339850.94946   -264818.53246                  22419552.1564
        18.0004         18.5004
  21701731.8914    -208923.93547   -162797.78446                  21701737.9024
        22.2504         24.2504
  23950542.6484    -588649.59645   -458687.32645                  23950549.2704
        10.7504         10.5004
  20935148.9454      11114.17648      9028.89547                  20935154.7934
        29.5004         28.7504
  23986626.4924    -413783.98845   -217709.16745                  23986635.2274
         8.7504          9.0004
  24002177.4694    -313275.76545   -177355.42245                  24002185.4414
        11.5004         10.5004
  22215045.6334     717003.56547    519040.77946                  22215051.5514
        21.0004         20.7504
 02  7  8 15  0 30.0000000  0 10G 5G 6G10G15G17G18G23G26G29G30
  24507321.0314     885676.03745    660673.27245                  24507330.7974
         8.7504          9.0004
  20486654.2034       6785.06748      5286.98447                  20486659.3244
        29.0004         27.5004
  22118342.0704     629795.79247    442765.63546                  22118348.3524
        23.2504         23.5004
  22414703.6644    -365298.69146   -284647.92946                  22414709.7584
        18.2504         18.5004
  21698829.3054    -224179.18247   -174684.98246                  21698835.3524
        23.0004         24.2504
  23941989.4454    -633595.76545   -493710.27245                  23941996.5394
        10.5004         10.5004
  20935601.7584      13495.11948     10884.17647                  20935607.5004
        29.2504         28.7504
  23980293.7504    -447058.58545   -243637.34845                  23980301.3364
         8.2504          8.5004
  23997736.9844    -336612.49145   -195539.83845                  23997745.6954
        11.7504         11.2504
  22225856.1174     773814.82247    563309.24046                  22225862.2234
        20.7504         21.2504
 02  7  8 15  0 45.0000000  0 10G 5G 6G10G15G17G18G23G26G29G30
  24519589.7974     950153.70245    710915.47645                  24519598.3324
         8.0004          8.5004
  20486987.4924       8536.39148      6651.64747                  20486992.6254
        29.2504         27.5004
  22127248.9384     676600.09247    479236.49946                  22127255.0554
        23.5004         23.0004
  22409879.7114    -390648.44146   -304400.97746                  22409885.9454
        18.5004         18.7504
  21695945.0704    -239334.40647   -186494.25346                  21695951.0124
        23.0004         24.5004
  23933451.3674    -678466.10145   -528674.16145                  23933458.6374
        11.0004         11.0004
  20936088.6804      16053.34748     12877.59947                  20936094.4804
        29.2504         28.7504
  23973979.8594    -480244.34045   -269496.24945                  23973989.8484
         8.5004          9.7504
  23993315.1724    -359842.97045   -213641.44745                  23993323.7074
        10.7504         10.7504
  22236688.4454     830739.11747    607665.78046                  22236694.3164
        21.2504         21.0004
 02  7  8 15  1  0.0000000  0 10G 5G 6G10G15G17G18G23G26G29G30
  24531867.5394    1014670.52845    761188.20045                  24531878.1024
         7.7504          7.7504
  20487345.4924      10417.83948      8117.70747                  20487350.5904
        29.0004         27.2504
  22136182.6334     723548.45747    515819.62346                  22136188.8444
        23.2504         23.2504
  22405073.9144    -415904.81946   -324081.27546                  22405080.0904
        18.2504         18.5004
  21693079.3984    -254394.01447   -198228.99946                  21693085.5164
        22.7504         24.5004
  23924926.9534    -723264.75045   -563582.15845                  23924933.1994
        11.7504         11.2504
  20936608.5474      18784.30348     15005.61647                  20936614.3134
        29.5004         28.7504
  23967679.6724    -513345.29345   -295289.11345                  23967688.7584
         8.7504          9.0004
  23988913.9224    -382971.46345   -231663.60745                  23988922.6334
        10.5004         10.7504
  22247541.4774     887771.53447    652106.59546                  22247547.5474
        21.2504         20.7504
 02  7  8 15  1 15.0000000  0 10G 5G 6G10G15G17G18G23G26G29G30
  24544152.0314    1079227.05044    811491.82645                  24544163.1214
         7.0004          7.5004
  20487728.2814      12430.41948      9685.94547                  20487733.3554
        29.5004         27.5004
  22145143.9694     770641.34347    552515.34646                  22145150.2034
        22.5004         22.2504
  22400285.1484    -441066.88546   -343688.09146                  22400291.2194
        17.7504         18.5004
  21690232.0084    -269357.21547   -209888.61246                  21690237.9844
        22.7504         24.7504
  23916416.1644    -767990.64746   -598433.48845                  23916421.8594
        12.5004         10.5004
  20937160.9614      21688.83448     17268.88747                  20937166.7734
        29.0004         29.0004
  23961397.7664    -546360.27245   -321014.98645                  23961407.0164
         9.0004          9.0004
  23984532.3984    -405996.81045   -249605.38645                  23984541.3204
        10.5004         10.5004
  22258415.1804     944912.58647    696632.04546                  22258421.1804
        21.2504         20.5004
 02  7  8 15  1 30.0000000  0 10G 5G 6G10G15G17G18G23G26G29G30
  24556443.7424    1143822.89144    861826.09045                  24556453.4384
         6.2504          7.5004
  20488136.3914      14574.21448     11356.42647                  20488141.6054
        29.0004         27.5004
  22154133.3364     817878.43147    589323.44946                  22154139.4884
        22.7504         22.2504
  22395515.3754    -466134.65746   -363221.40846                  22395521.6684
        18.2504         18.7504
  21687402.7734    -284224.21847   -221473.28746                  21687408.7384
        22.2504         24.7504
  23907918.0634    -812643.55846   -633227.91945                  23907924.4384
        12.2504         11.0004
  20937746.7504      24766.83648     19667.33147                  20937752.6334
        29.5004         28.7504
  23955131.9064    -579288.89545   -346673.57045                  23955140.4884
         9.0004          9.7504
  23980170.3054    -428918.83845   -267466.66145                  23980178.7344
        10.0004         10.5004
  22269309.6254    1002161.71447    741241.69546                  22269315.4964
        21.5004         20.5004
 02  7  8 15  1 45.0000000  0 10G 5G 6G10G15G17G18G23G26G29G30
  24568742.4844    1208454.14643    912187.97645                  24568752.2734
         6.0004          7.2504
  20488568.4064      16845.81448     13126.49447                  20488573.6214
        29.0004         27.5004
  22163148.9384     865255.75347    626240.82446                  22163155.3014
        23.2504         22.2504
  22390762.0474    -491111.68946   -382684.02946                  22390768.3754
        18.0004         19.0004
  21684591.6804    -298998.48447   -232985.69546                  21684597.5634
        23.0004         24.7504
  23899434.4614    -857226.79446   -667968.08745                  23899441.1994
        12.5004         11.7504
  20938364.9304      28014.70948     22198.14247                  20938370.8594
        29.7504         29.0004
  23948880.0164    -612134.33345   -372267.35145                  23948890.0044
         8.2504          9.0004
  23975827.0314    -451740.66645   -285249.85945                  23975835.7304
        10.5004         10.2504
  22280223.7274    1059515.00647    785932.53846                  22280229.5394
        21.5004         20.5004
 02  7  8 15  2  0.0000000  0 10G 5G 6G10G15G17G18G23G26G29G30
  24581049.3674    1273120.13943    962576.91345                  24581061.7234
         6.0004          6.5004
  20489025.0164      19244.91348     14995.92047                  20489030.1134
        29.0004         27.2504
  22172190.7504     912772.49247    663266.83346                  22172197.2304
        22.2504         22.5004
  22386026.1724    -515998.42246   -402076.28546                  22386032.1844
        17.5004         18.5004
  21681797.6094    -313680.51147   -244426.23246                  21681803.5164
        22.5004         24.7504
  23890963.5554    -901740.44246   -702654.02345                  23890970.3284
        12.5004         11.5004
  20939015.3594      31432.06048     24861.01147                  20939021.2664
        29.7504         28.7504
  23942646.7814    -644896.62945   -397796.25445                  23942655.6914
         9.0004          8.7504
  23971504.9224    -474462.35045   -302955.03645                  23971511.7074
        11.2504         11.0004
  22291157.3364    1116971.81847    830704.02646                  22291163.1604
        21.7504         20.7504
 02  7  8 15  2 15.0000000  0 10G 5G 6G10G15G17G18G23G26G29G30
  24593361.5234    1337820.84044   1012992.89745                  24593372.8484
         6.2504          7.5004
  20489506.0394      21772.04848     16965.11247                  20489511.2894
        29.2504         27.5004
  22181259.5554     960428.66347    700401.50446                  22181265.8834
        22.7504         22.2504
  22381307.5864    -540794.57246   -421397.94846                  22381313.9024
        17.7504         18.7504
  21679020.8284    -328269.90247   -255794.59146                  21679026.9344
        22.0004         24.7504
  23882506.5234    -946183.91346   -737285.26545                  23882512.8984
        12.7504         11.7504
  20939697.3674      35019.14648     27656.14147                  20939703.3204
        29.0004         28.7504
  23936428.7344    -677574.86045   -423259.77545                  23936438.2664
         9.5004          9.2504
  23967198.6094    -497083.29545   -320581.71045                  23967206.6994
        10.7504         10.7504
  22302110.3754    1174531.90447    875555.98846                  22302115.9654
        21.2504         20.7504
 02  7  8 15  2 30.0000000  0 10G 5G 6G10G15G17G18G23G26G29G30
  24605679.4614    1402553.88843   1063434.07645                  24605690.1174
         6.0004          7.0004
  20490011.1254      24425.30548     19032.57647                  20490016.3754
        29.2504         27.2504
  22190354.3054    1008221.83347    737642.90746                  22190360.5984
        22.7504         22.2504
  22376606.0004    -565502.08146   -440650.56246                  22376612.1294
        18.2504         19.2504
  21676262.0634    -342768.90947   -267092.50446                  21676267.9804
        22.7504         24.5004
  23874061.9774    -990558.91846   -771863.15445                  23874068.1524
        12.5004         11.7504
  20940412.4224      38773.91648     30581.93847                  20940418.3524
        29.7504         28.7504
  23930224.8444    -710170.84745   -448659.14745                  23930234.9024
         9.2504          9.7504
  23962913.1334    -519605.08145   -338131.11645                  23962921.1764
        10.7504         10.7504
  22313082.4844    1232192.91547    920486.61246                  22313088.5664
        20.5004         20.5004
 02  7  8 15  2 45.0000000  0 10G 5G 6G10G15G17G18G23G26G29G30
  24618003.9924    1467316.21044   1113898.07745                  24618015.2234
         6.5004          7.0004
  20490539.5394      27202.12348     21196.32647                  20490544.7664
        29.2504         27.5004
  22199474.1564    1056149.01047    774988.74646                  22199480.6134
        22.0004         22.2504
  22371920.5864    -590123.73046   -459836.25446                  22371927.1134
        18.5004         19.0004
  21673520.1414    -357180.10847   -278322.01546                  21673526.1054
        23.2504         24.7504
  23865630.8284   -1034868.09146   -806389.76445                  23865636.6644
        13.0004         11.7504
  20941158.3204      42693.59448     33636.23247                  20941164.1454
        30.0004         28.7504
  23924037.6724    -742686.82645   -473996.20245                  23924047.8134
         9.5004          9.7504
  23958645.5474    -542030.23645   -355605.22045                  23958653.8134
        10.5004         11.0004
  22324073.6414    1289951.75447    965493.44246                  22324079.8054
        20.2504         20.7504
 02  7  8 15  3  0.0000000  0 10G 5G 6G10G15G17G18G23G26G29G30
  24630333.7814    1532108.20044   1164385.19445                  24630342.5984
         7.2504          8.2504
  20491091.3204      30103.39448     23457.04747                  20491096.3834
        28.5004         27.2504
  22208620.2894    1104210.56347    812439.29246                  22208626.5594
        22.7504         22.0004
  22367252.3524    -614658.57646   -478954.32446                  22367258.3634
        19.0004         19.0004
  21670794.3754    -371502.83747   -289482.57746                  21670800.4454
        22.2504         24.7504
  23857211.5784   -1079110.27146   -840864.15246                  23857218.5314
        13.0004         12.2504
  20941935.4384      46778.91648     36819.60147                  20941941.3444
        29.0004         28.7504
  23917865.8754    -775121.54745   -499269.92145                  23917875.6414
         9.5004          9.5004
  23954397.2894    -564357.59145   -373003.10745                  23954405.7424
        10.7504         11.0004
  22335084.1414    1347808.76047   1010576.77946                  22335090.1294
        21.2504         20.5004
 02  7  8 15  3 15.0000000  0 10G 5G 6G10G15G17G18G23G26G29G30
  24642669.5864    1596930.74145   1214896.13045                  24642677.8524
         7.5004          8.2504
  20491667.6724      33130.36148     25815.72147                  20491672.9224
        29.5004         27.0004
  22217792.2814    1152407.19947    849995.09146                  22217798.5984
        23.2504         22.0004
  22362599.8284    -639105.61446   -498003.95646                  22362605.6994
        19.0004         19.5004
  21668085.6804    -385736.06747   -300573.40146                  21668091.6684
        22.2504         24.7504
  23848805.1954   -1123284.07546   -875285.26546                  23848811.3244
        12.5004         12.0004
  20942744.8594      51030.99748     40132.91747                  20942750.6724
        30.0004         28.7504
  23911709.7894    -807473.52645   -524479.18245                  23911718.6174
         9.2504          9.5004
  23950166.7344    -586585.71245   -390323.67845                  23950174.6844
        10.2504         11.2504
  22346112.9224    1405764.82647   1055737.30646                  22346118.8634
        21.0004         20.0004
 02  7  8 15  3 30.0000000  0 10G 5G 6G10G15G17G18G23G26G29G30
  24655010.2114    1661781.70545   1265429.19045                  24655020.2704
         8.0004          9.2504
  20492267.1254      36281.38548     28271.05847                  20492272.3284
        29.2504         27.2504
  22226988.5864    1200736.73947    887654.45446                  22226994.7034
        22.2504         22.0004
  22357963.7424    -663466.56846   -516986.50946                  22357970.0124
        18.7504         19.2504
  21665394.1334    -399881.43647   -311595.75946                  21665400.1094
        23.0004         24.7504
  23840411.7894   -1167390.97646   -909654.26546                  23840417.8714
        12.5004         12.0004
  20943585.3054      55447.99248     43574.73047                  20943591.0824
        29.5004         29.0004
  23905568.3914    -839744.10645   -549625.00745                  23905576.9734
         9.7504          9.2504
  23945955.6564    -608715.91545   -407567.93045                  23945964.4844
        10.2504         10.5004
  22357159.9924    1463817.68547   1100973.24946                  22357166.0164
        21.2504         20.2504
 02  7  8 15  3 45.0000000  0 10G 5G 6G10G15G17G18G23G26G29G30
  24667355.8204    1726661.49145   1315984.74745                  24667365.1294
         8.0004          8.5004
  20492890.3054      39557.34448     30823.74847                  20492895.3674
        28.7504         27.2504
  22236210.5474    1249199.76747    925417.84146                  22236216.9804
        22.0004         22.2504
  22353344.8364    -687740.62346   -535901.36646                  22353350.9064
        18.5004         19.0004
  21662719.2734    -413938.35147   -322549.19946                  21662725.1684
        23.0004         25.0004
  23832031.3594   -1211430.02246   -943970.39145                  23832037.7704
        12.2504         11.5004
  20944457.4774      60030.63848     47145.62847                  20944463.3134
        30.0004         29.0004
  23899442.6334    -871932.18745   -574706.57745                  23899450.9924
         9.7504          9.7504
  23941762.9144    -630747.21745   -424735.15145                  23941771.4024
        10.2504         11.0004
  22368225.3594    1521967.67847   1146284.88846                  22368231.5944
        21.0004         20.5004
 02  7  8 15  4  0.0000000  0 10G 5G 6G10G15G17G18G23G26G29G30
  24679707.6884    1791568.33845   1366561.33745                  24679717.6644
         8.2504          9.5004
  20493537.5474      42956.91548     33472.75947                  20493542.6804
        29.2504         27.0004
  22245457.9144    1297794.29747    963283.69046                  22245464.0314
        22.0004         22.0004
  22348742.0784    -711929.33646   -554749.70846                  22348748.2544
        18.7504         19.2504
  21660060.8364    -427908.26247   -333434.84746                  21660066.8014
        23.0004         25.0004
  23823662.9064   -1255402.45045   -978234.56646                  23823669.3874
        11.2504         12.0004
  20945360.7034      64777.44148     50844.42647                  20945366.5044
        29.7504         28.7504
  23893333.3914    -904038.66445   -599724.51245                  23893342.6174
         9.7504         10.5004
  23937589.9064    -652680.73045   -441826.14545                  23937597.2344
        11.0004         10.5004
  22379309.4304    1580213.05047   1191670.85346                  22379315.4304
        21.2504         20.2504
 02  7  8 15  4 15.0000000  0 10G 5G 6G10G15G17G18G23G26G29G30
  24692064.4924    1856502.63945   1417159.33945                  24692075.4534
        10.0004         10.5004
  20494208.0234      46481.05248     36218.83347                  20494213.2154
        28.7504         26.7504
  22254730.2034    1346520.91747   1001252.47646                  22254736.6604
        22.2504         21.7504
  22344155.0234    -736031.84946   -573530.88846                  22344161.2464
        18.7504         19.2504
  21657419.0394    -441790.38847   -344252.08346                  21657424.9804
        23.0004         24.5004
  23815308.7894   -1299307.05345  -1012445.91445                  23815316.1764
        11.7504         11.5004
  20946295.4844      69689.18648     54671.76647                  20946301.3674
        30.0004         28.5004
  23887238.4694    -936062.48945   -624678.04745                  23887248.0354
         8.7504          9.7504
  23933435.1484    -674515.30845   -458840.09645                  23933441.5004
        11.2504         10.7504
  22390410.9534    1638554.13147   1237131.37846                  22390417.0354
        20.7504         20.0004
 02  7  8 15  4 30.0000000  0 10G 5G 6G10G15G17G18G23G26G29G30
  24704426.7344    1921463.45445   1467778.04745                  24704438.3754
        10.5004         10.7504
  20494902.2034      50129.33048     39061.63947                  20494907.4534
        28.7504         27.0004
  22264027.3594    1395378.60847   1039323.38246                  22264033.7814
        22.0004         22.2504
  22339585.5704    -760048.73347   -592245.34046                  22339591.7814
        20.0004         19.7504
  21654793.9774    -455585.53247   -355001.55446                  21654800.0354
        23.0004         25.0004
  23806966.8594   -1343144.28545  -1046604.77445                  23806973.6914
        11.5004         11.5004
  20947261.1884      74765.23448     58627.12847                  20947267.1994
        29.5004         28.7504
  23881160.0634    -968003.77745   -649567.24945                  23881169.7464
         8.7504          9.7504
  23929299.4534    -696251.25845   -475777.15945                  23929306.6764
        11.7504         11.5004
  22401531.3834    1696989.99747   1282665.77046                  22401537.4064
        21.0004         20.2504
 02  7  8 15  4 45.0000000  0 10G 5G 6G10G15G17G18G23G26G29G30
  24716793.1414    1986449.65345   1518416.48945                  24716803.8204
        10.0004         11.2504
  20495620.1254      53901.15348     42000.71947                  20495625.3164
        29.0004         27.0004
  22273350.0944    1444366.16847   1077495.49146                  22273356.4344
        22.7504         22.0004
  22335031.3284    -783980.71646   -610893.64346                  22335037.5274
        19.7504         19.7504
  21652184.9224    -469294.19947   -365683.63846                  21652190.8984
        22.5004         24.7504
  23798637.9064   -1386914.64046  -1080711.51246                  23798644.7504
        12.0004         12.0004
  20948258.0394      80004.73348     62709.85447                  20948263.9574
        29.2504         28.7504
  23875098.8054    -999862.86145   -674392.46645                  23875106.1914
         9.2504          9.2504
  23925181.0084    -717888.99745   -492637.68745                  23925189.1564
        11.0004         11.2504
  22412669.1094    1755519.45747   1328273.09946                  22412675.1214
        20.7504         20.0004
 02  7  8 15  5  0.0000000  0 10G 5G 6G10G15G17G18G23G26G29G30
  24729164.4144    2051462.20545   1569075.45345                  24729175.0004
        10.2504         11.0004
  20496361.6804      57797.84648     45037.09447                  20496366.8484
        29.2504         27.0004
  22282696.7274    1493484.54847   1115769.54146                  22282702.7974
        22.2504         21.7504
  22330493.5164    -807826.59746   -629474.85146                  22330499.5864
        19.5004         19.2504
  21649593.5784    -482915.41747   -376297.56846                  21649599.5084
        23.2504         25.0004
  23790321.9924   -1430616.52445  -1114764.90345                  23790328.1334
        11.7504         11.7504
  20949286.5784      85408.89848     66920.89047                  20949292.5664
        29.5004         28.7504
  23869052.1414   -1031638.10245   -699152.32045                  23869061.1684
         9.5004          9.0004
  23921082.1174    -739426.96345   -509420.46345                  23921090.9804
        10.2504         11.2504
  22423824.4454    1814143.39547   1373954.04546                  22423830.4694
        20.0004         19.5004
 02  7  8 15  5 15.0000000  0 10G 5G 6G10G15G17G18G23G26G29G30
  24741540.5704    2116497.61845   1619752.26245                  24741550.4654
        10.2504         11.0004
  20497126.2814      61816.38148     48168.41147                  20497131.4384
        28.7504         27.0004
  22292068.0394    1542730.19647   1154142.75246                  22292074.2274
        22.2504         21.7504
  22325971.6334    -831589.60746   -647991.49146                  22325977.5164
        19.7504         19.5004
  21647017.3054    -496452.26947   -386845.76246                  21647023.2814
        23.0004         25.2504
  23782017.9774   -1474252.88945  -1148767.23646                  23782025.3284
        11.7504         12.0004
  20950345.6564      90974.51048     71257.72647                  20950351.5984
        29.5004         28.7504
  23863021.1254   -1063332.25045   -723849.01445                  23863029.6844
        10.0004          9.5004
  23917002.0784    -760867.96845   -526127.70645                  23917010.6374
        10.5004         10.7504
  22434997.4694    1872858.28646   1419705.85746                  22435003.6334
        19.7504         19.5004
 02  7  8 15  5 30.0000000  0 10G 5G 6G10G15G17G18G23G26G29G30
  24753920.8364    2181556.62045   1670447.46445                  24753931.7154
        10.0004         10.2504
  20497914.4384      65957.98448     51395.63147                  20497919.6644
        28.7504         27.0004
  22301463.6484    1592103.80447   1192615.67246                  22301470.1994
        22.7504         22.0004
  22321465.4224    -855268.72146   -666442.73446                  22321471.6564
        19.5004         19.2504
  21644457.4304    -509903.71547   -397327.40146                  21644463.4654
        23.0004         25.0004
  23773726.5004   -1517822.44145  -1182717.47546                  23773732.5474
        11.7504         12.0004
  20951436.0704      96702.57648     75721.15247                  20951442.0704
        29.7504         28.7504
  23857005.0784   -1094943.92745   -748481.41545                  23857014.1054
         9.5004          9.5004
  23912941.1484    -782210.70845   -542758.35345                  23912949.7544
        10.7504         11.2504
  22446188.4614    1931664.73347   1465529.01746                  22446194.2734
        20.2504         19.5004
 02  7  8 15  5 45.0000000  0 10G 5G 6G10G15G17G18G23G26G29G30
  24766306.5004    2246640.76145   1721162.22245                  24766317.7304
        10.0004         10.2504
  20498726.1884      70224.56248     54720.23347                  20498731.3794
        28.5004         26.7504
  22310883.8054    1641606.72247   1231189.36446                  22310890.3554
        22.7504         21.7504
  22316975.9774    -878862.00847   -684827.11146                  22316982.0354
        20.0004         19.7504
  21641914.2584    -523268.13147   -407741.23546                  21641920.0824
        22.7504         25.0004
  23765449.1564   -1561322.99046  -1216613.98546                  23765455.2974
        12.5004         12.0004
  20952557.2664     102594.84148     80312.52747                  20952563.1134
        29.7504         29.0004
  23851005.1094   -1126470.80145   -773047.75145                  23851013.9734
         9.5004          9.2504
  23908898.5554    -803452.94445   -559310.71545                  23908906.0944
        11.0004         11.0004
  22457396.5944    1990564.10247   1511424.59046                  22457402.6054
        20.0004         19.5004
 02  7  8 15  6  0.0000000  0 10G 5G 6G10G15G17G18G23G26G29G30
  24778694.7344    2311743.37745   1771891.40245                  24778705.2504
         9.2504         10.2504
  20499560.7344      74610.04348     58137.48847                  20499565.8204
        28.7504         27.0004
  22320327.1804    1691232.37747   1269858.69246                  22320333.4494
        22.5004         21.7504
  22312501.5944    -902375.71347   -703149.48046                  22312507.8984
        20.0004         19.0004
  21639386.9454    -536551.61747   -418092.00946                  21639392.8404
        23.2504         25.0004
  23757183.1174   -1604760.60946  -1250461.43845                  23757189.3984
        12.5004         11.7504
  20953708.2814     108645.02848     85026.95747                  20953714.1644
        29.5004         29.0004
  23845021.2504   -1157918.71545   -797552.55345                  23845030.8754
         9.2504          9.5004
  23904874.8834    -824600.57945   -575789.36745                  23904881.8834
        11.7504         11.0004
  22468621.4384    2049549.91047   1557387.51246                  22468627.4264
        20.0004         19.7504
 02  7  8 15  6 15.0000000  0 10G 5G 6G10G15G17G18G23G26G29G30
  24791087.6724    2376867.65445   1822637.42945                  24791097.6254
         9.2504          9.7504
  20500418.7114      79118.03648     61650.20547                  20500423.8204
        28.7504         26.7504
  22329794.2274    1740983.93347   1308626.11846                  22329800.2384
        22.0004         21.5004
  22308042.4064    -925806.31146   -721407.08346                  22308049.1564
        19.2504         19.5004
  21636874.1024    -549750.91247   -428377.17846                  21636880.1254
        22.2504         25.0004
  23748929.6644   -1648131.53946  -1284256.93846                  23748936.1094
        12.2504         12.0004
  20954890.7034     114856.56548     89867.11547                  20954896.6214
        30.0004         28.7504
  23839052.6254   -1189283.77945   -821992.77045                  23839062.0744
         9.5004          9.7504
  23900869.7344    -845649.88845   -592191.40945                  23900877.0744
        11.7504         11.0004
  22479863.0474    2108625.12346   1603420.09346                  22479868.9184
        19.7504         19.2504
 02  7  8 15  6 30.0000000  0 10G 5G 6G10G15G17G18G23G26G29G30
  24803484.8594    2442013.65145   1873400.37945                  24803494.1914
         9.0004          9.0004
  20501299.8984      83749.11748     65258.82747                  20501305.0204
        29.0004         26.7504
  22339285.8674    1790861.42447   1347491.67746                  22339292.1484
        22.5004         21.5004
  22303599.8594    -949153.40546   -739599.61146                  22303606.7034
        19.2504         19.7504
  21634379.2734    -562865.48447   -438596.32646                  21634385.1684
        23.2504         25.0004
  23740689.0474   -1691435.15646  -1317999.97945                  23740695.3404
        12.0004         11.7504
  20956103.1804     121229.81248     94833.27947                  20956109.1094
        29.5004         29.0004
  23833099.3674   -1220565.22345   -846367.87345                  23833109.0164
         9.2504          9.5004
  23896882.3524    -866600.14845   -608516.26245                  23896890.0314
        11.2504         11.5004
  22491121.6094    2167789.90346   1649522.47546                  22491127.6214
        19.7504         19.2504
 02  7  8 15  6 45.0000000  0 10G 5G 6G10G15G17G18G23G26G29G30
  24815885.9534    2507181.34145   1924180.26945                  24815896.3874
         8.2504          9.0004
  20502204.7664      88503.70348     68963.69947                  20502209.8634
        28.7504         26.5004
  22348801.5634    1840864.84647   1386455.37146                  22348807.8674
        22.7504         21.7504
  22299173.4064    -972416.60546   -757726.76146                  22299179.5234
        19.7504         19.2504
  21631899.5864    -575895.08847   -448749.26646                  21631905.6094
        23.0004         24.7504
  23732461.6174   -1734670.78846  -1351690.04245                  23732467.8404
        12.2504         11.7504
  20957346.6334     127765.06348     99925.68647                  20957352.5864
        29.5004         28.7504
  23827163.5004   -1251762.30145   -870677.18745                  23827171.7194
        10.0004          9.7504
  23892915.0004    -887450.57145   -624763.28945                  23892922.3054
        11.5004         11.2504
  22502397.7734    2227044.22047   1695694.61746                  22502403.8444
        20.0004         19.2504
 02  7  8 15  7  0.0000000  0 10G 5G 6G10G15G17G18G23G26G29G30
  24828290.4694    2572362.75445   1974970.81445                  24828300.7974
         7.7504          9.0004
  20503131.6024      93374.26048     72758.93447                  20503136.6644
        28.7504         26.7504
  22358339.3674    1890986.21247   1425510.96546                  22358345.4844
        22.7504         21.2504
  22294760.6484    -995603.67646   -775794.61046                  22294766.6954
        19.7504         19.5004
  21629435.4064    -588847.53547   -458842.08046                  21629441.4414
        23.5004         25.2504
  23724245.7974   -1777845.95246  -1385332.98945                  23724252.4654
        12.5004         11.5004
  20958619.7194     134454.53948    105138.25947                  20958625.7194
        29.7504         29.0004
  23821241.2814   -1282882.23545   -894926.41445                  23821249.8404
        10.0004          9.7504
  23888962.9774    -908208.63445   -640938.39645                  23888971.1844
        10.5004         11.0004
  22513688.7664    2286379.80346   1741930.09546                  22513694.4964
        19.7504         18.7504
 02  7  8 15  7 15.0000000  0 10G 5G 6G10G15G17G18G23G26G29G30
  24840695.4614    2637556.91044   2025771.30345                  24840706.2584
         6.2504          8.0004
  20504080.4774      98360.33748     76644.18247                  20504085.5864
        28.7504         26.7504
  22367899.1644    1941224.51847   1464657.68846                  22367905.5984
        22.2504         21.7504
  22290362.5704   -1018715.28346   -793803.65146                  22290368.8164
        19.2504         19.2504
  21626984.3364    -601723.27847   -468875.13946                  21626990.4064
        22.2504         25.2504
  23716041.3444   -1820960.86746  -1418928.97146                  23716048.6844
        13.0004         12.5004
  20959922.0784     141297.60148    110470.51447                  20959927.9144
        30.2504         28.7504
  23815334.7974   -1313925.23845   -919115.73245                  23815343.1914
        10.2504          9.7504
  23885031.6724    -928874.59245   -657041.66745                  23885040.2074
        11.0004         11.5004
  22524995.0474    2345795.71346   1788228.15546                  22525001.1414
        19.7504         18.7504
 02  7  8 15  7 30.0000000  0 10G 5G 6G10G15G17G18G23G26G29G30
  24853105.2274    2702768.69644   2076585.49945                  24853115.0864
         6.5004          8.2504
  20505052.3364     103467.13048     80623.49147                  20505057.5394
        28.7504         26.5004
  22377482.3204    1991584.51947   1503899.22346                  22377488.5554
        22.2504         21.5004
  22285980.0554   -1041746.16146   -811749.78346                  22285985.9964
        19.7504         19.2504
  21624550.1094    -614517.32547   -478844.53146                  21624556.3094
        23.0004         25.0004
  23707848.9144   -1864010.26646  -1452473.91846                  23707856.0314
        13.2504         12.7504
  20961254.2734     148299.32248    115926.39247                  20961260.1334
        30.0004         29.0004
  23809442.0004   -1344885.70945   -943240.65845                  23809450.6174
         9.2504         10.0004
  23881117.3594    -949442.98145   -673068.93645                  23881126.5164
        11.2504         11.2504
  22536317.9064    2405296.76046   1834592.56646                  22536323.8484
        19.7504         18.5004
 02  7  8 15  7 45.0000000  0 10G 5G 6G10G15G17G18G23G26G29G30
  24865519.4614    2768000.73144   2127415.52045                  24865532.0394
         6.5004          8.5004
  20506047.4844     108697.83648     84699.35947                  20506052.6524
        28.7504         26.5004
  22387089.5864    2042068.93147   1543237.71346                  22387096.0554
        22.7504         21.7504
  22281613.2814   -1064693.42046   -829630.76846                  22281619.2704
        19.5004         19.2504
  21622131.5084    -627226.72747   -488747.97046                  21622137.5784
        22.7504         25.2504
  23699670.2974   -1906990.81346  -1485965.22046                  23699676.7194
        14.0004         12.5004
  20962617.3754     155462.62448    121508.19047                  20962623.2114
        29.5004         28.7504
  23803566.6644   -1375760.29545   -967298.73545                  23803574.1684
         9.5004          9.5004
  23877222.8984    -969910.32145   -689017.48545                  23877231.0354
        11.7504         11.0004
  22547657.1804    2464885.56146   1881025.35346                  22547663.4384
        19.5004         19.0004
 02  7  8 15  8  0.0000000  0 10G 5G 6G10G15G17G18G23G26G29G30
  24877934.7894    2833253.71243   2178261.85945                  24877946.1374
         5.7504          7.5004
  20507066.8594     114053.65548     88872.72047                  20507071.7934
        29.0004         26.5004
  22396720.6644    2092678.23447   1582673.51146                  22396726.9924
        23.2504         21.5004
  22277262.3754   -1087555.90346   -847445.68846                  22277268.3634
        18.7504         19.0004
  21619729.6414    -639850.45947   -498584.64746                  21619735.6294
        23.2504         25.0004
  23691504.7034   -1949901.24646  -1519401.88246                  23691511.4774
        13.2504         12.7504
  20964011.7274     162788.48648    127216.64847                  20964017.5864
        30.2504         29.0004
  23797707.1484   -1406547.63745   -991288.79445                  23797716.1294
        10.0004          9.7504
  23873346.9144    -990275.50245   -704886.41945                  23873354.6524
        11.7504         11.5004
  22559013.5864    2524562.75946   1927527.01546                  22559019.9384
        19.5004         19.0004
 02  7  8 15  8 15.0000000  0 10G 5G 6G10G15G17G18G23G26G29G30
  24890357.4064    2898524.20743   2229121.79845                  24890367.9804
         5.7504          7.5004
  20508109.0944     119531.58548     93141.23147                  20508114.2154
        28.2504         26.2504
  22406373.4844    2143409.03947   1622203.99646                  22406379.8364
        22.0004         21.2504
  22272927.6334   -1110336.69846   -865196.95646                  22272933.9024
        19.0004         19.5004
  21617342.9614    -652391.60947   -508356.97846                  21617349.0204
        23.0004         25.5004
  23683351.7814   -1992744.39246  -1552786.09346                  23683358.1214
        13.2504         12.0004
  20965435.8834     170273.75848    133049.32347                  20965441.8594
        30.0004         29.0004
  23791866.0944   -1437250.21645  -1015212.81145                  23791874.4534
        10.7504         10.0004
  23869491.9064   -1010541.17246   -720677.83245                  23869499.5394
        12.5004         11.0004
  22570386.1954    2584324.86446   1974094.84746                  22570392.0664
        19.5004         18.7504
 02  7  8 15  8 30.0000000  0 10G 5G 6G10G15G17G18G23G26G29G30
  24902780.3754    2963813.20843   2279996.19745                  24902790.0944
         5.5004          6.2504
  20509175.0314     125133.05848     97506.01347                  20509180.2344
        28.7504         26.5004
  22416050.9144    2194262.32347   1661829.91846                  22416057.0784
        22.5004         21.2504
  22268608.7734   -1133034.50347   -882883.54946                  22268614.6804
        20.0004         19.2504
  21614972.4694    -664848.89647   -518063.94946                  21614978.4574
        23.2504         25.5004
  23675212.6414   -2035518.55546  -1586116.58346                  23675219.0744
        14.2504         12.5004
  20966891.0394     177919.71448    139007.20647                  20966896.8164
        30.0004         29.0004
  23786039.7664   -1467866.38245  -1039069.50845                  23786048.5474
        11.0004          9.7504
  23865653.1024   -1030705.64945   -736390.36445                  23865661.2624
        11.0004         11.0004
  22581775.1334    2644172.88546   2020729.61646                  22581781.2034
        19.5004         18.5004
 02  7  8 15  8 45.0000000  0 10G 5G 6G10G15G17G18G23G26G29G30
  24915207.8834    3029117.88843   2330882.78245                  24915215.7624
         5.5004          6.7504
  20510264.1094     130855.61848    101965.13947                  20510269.3594
        28.7504         26.7504
  22425750.6884    2245235.13147   1701548.97946                  22425757.1914
        21.7504         21.0004
  22264304.0944   -1155651.94746   -900507.54146                  22264310.0594
        19.2504         19.2504
  21612617.2034    -677224.98147   -527707.65046                  21612623.2154
        23.2504         25.5004
  23667085.6254   -2078226.11346  -1619395.15746                  23667092.4964
        14.2504         13.0004
  20968376.0084     185723.70048    145088.22847                  20968381.8674
        30.0004         29.0004
  23780229.5394   -1498398.36845  -1062860.59145                  23780238.3324
        10.7504         10.0004
  23861834.7114   -1050771.23945   -752025.86145                  23861842.2034
        11.0004         11.0004
  22593179.0004    2704103.71846   2067428.91346                  22593184.9184
        18.7504         18.7504
 02  7  8 15  9  0.0000000  0 10G 5G 6G10G15G17G18G23G26G29G30
  24927637.7814    3094434.55744   2381778.77645                  24927648.5204
         6.5004          6.7504
  20511375.4384     136696.19248    106516.22547                  20511380.6294
        28.5004         26.5004
  22435472.1644    2296323.71247   1741358.24846                  22435478.5634
        21.7504         21.0004
  22260015.0704   -1178192.29446   -918071.45446                  22260021.1524
        19.5004         19.7504
  21610276.9614    -689523.25147   -537290.71546                  21610282.8674
        23.0004         25.2504
  23658970.7194   -2120870.21846  -1652624.26346                  23658977.7894
        14.7504         13.5004
  20969890.3364     193682.37548    151289.78747                  20969896.2774
        29.7504         29.0004
  23774434.4774   -1528848.99945  -1086588.29845                  23774442.9064
        10.0004          9.7504
  23858035.0314   -1070740.88945   -767586.59045                  23858042.0784
        11.5004         11.2504
  22604598.8364    2764113.74246   2114189.92246                  22604604.8244
        19.2504         18.5004
 02  7  8 15  9 15.0000000  0 10G 5G 6G10G15G17G18G23G26G29G30
  24940071.2424    3159772.07644   2432690.93445                  24940081.7234
         6.2504          6.5004
  20512511.1644     142664.08448    111166.52647                  20512516.3204
        28.7504         26.5004
  22445217.9694    2347537.04147   1781264.72246                  22445224.2384
        21.7504         21.0004
  22255742.2424   -1200646.32846   -935568.10146                  22255748.4064
        19.2504         19.2504
  21607953.4774    -701734.46447   -546805.95446                  21607959.4884
        23.5004         25.5004
  23650869.9614   -2163441.25346  -1685796.46546                  23650875.8794
        15.0004         13.2504
  20971436.3054     201804.86048    157618.99347                  20971442.1524
        30.2504         29.2504
  23768658.2584   -1559208.68845  -1110245.14345                  23768666.4064
        10.7504         10.5004
  23854254.8754   -1090605.07245   -783065.11445                  23854263.4224
        11.2504         11.7504
  22616034.8134    2824211.77646   2161019.51146                  22616041.0124
        18.7504         18.7504
 02  7  8 15  9 30.0000000  0 10G 5G 6G10G15G17G18G23G26G29G30
  24952507.6724    3225126.28744   2483616.20045                  24952518.9494
         7.2504          6.7504
  20513670.3834     148755.53948    115913.10847                  20513675.7384
        29.0004         26.5004
  22454986.5704    2398870.89747   1821265.11246                  22454993.1684
        21.7504         21.5004
  22251485.0554   -1223017.85346   -953000.45446                  22251490.9494
        19.2504         19.5004
  21605645.6334    -713862.47947   -556256.35647                  21605651.6214
        23.2504         25.7504
  23642781.5234   -2205942.84646  -1718914.55546                  23642788.0164
        14.5004         13.0004
  20973012.2894     210087.23448    164072.78647                  20973018.2304
        30.0004         29.0004
  23762897.2974   -1589480.84745  -1133833.75245                  23762905.4804
        11.0004         10.2504
  23850493.7894   -1110367.29745   -798464.22245                  23850501.7274
        11.5004         11.5004
  22627487.2584    2884393.64446   2207914.42646                  22627493.4104
        18.7504         18.5004
 02  7  8 15  9 45.0000000  0 10G 5G 6G10G15G17G18G23G26G29G30
  24964947.1954    3290496.54344   2534553.90545                  24964953.5354
         7.2504          6.5004
  20514852.5634     154970.33948    120755.79947                  20514857.6374
        28.2504         26.5004
  22464777.9224    2450324.59147   1861358.88546                  22464784.4144
        21.5004         21.2504
  22247243.4844   -1245307.20146   -970368.77246                  22247249.4614
        19.5004         19.7504
  21603353.2814    -725907.69647   -565642.23747                  21603359.2234
        23.0004         25.7504
  23634707.0704   -2248375.16446  -1751978.64546                  23634713.3404
        14.0004         13.0004
  20974618.6884     218529.12148    170650.87047                  20974624.5354
        30.0004         29.0004
  23757153.6414   -1619665.38045  -1157354.12645                  23757163.6764
        10.7504         10.0004
  23846752.9774   -1130027.65746   -813783.92945                  23846761.8404
        12.2504         11.7504
  22638955.7274    2944658.50746   2254874.00446                  22638961.5744
        19.2504         18.2504
 02  7  8 15 10  0.0000000  0 10G 5G 6G10G15G17G18G23G26G29G30
  24977389.2034    3355879.63945   2585501.60145                  24977397.4574
         7.7504          7.0004
  20516058.5314     161305.76948    125692.48547                  20516063.7114
        28.5004         26.2504
  22474591.1334    2501894.72747   1901543.39346                  22474597.6134
        21.5004         21.0004
  22243017.6884   -1267517.21047   -987675.26846                  22243023.7704
        20.5004         19.5004
  21601076.4144    -737872.92247   -574965.78546                  21601082.4264
        23.0004         25.5004
  23626645.6094   -2290740.62546  -1784990.64246                  23626650.9654
        14.2504         13.0004
  20976255.0554     227127.56148    177350.95147                  20976260.8674
        30.2504         29.0004
  23751424.4534   -1649764.70045  -1180808.07445                  23751434.1604
        10.0004         10.5004
  23843030.2424   -1149588.59645   -829026.18245                  23843037.5704
        11.5004         11.5004
  22650438.4774    3005003.24046   2301895.82746                  22650444.5594
        18.5004         18.2504
 02  7  8 15 10 15.0000000  0 10G 5G 6G10G15G17G18G23G26G29G30
  24989833.5234    3421272.73645   2636457.14445                  24989842.2934
         8.2504          7.2504
  20517286.3524     167759.35748    130721.24647                  20517291.5204
        28.0004         26.2504
  22484426.3284    2553578.51047   1941816.45946                  22484432.7384
        21.2504         21.0004
  22238805.0164   -1289650.45746  -1004921.96546                  22238811.0864
        19.5004         19.7504
  21598813.9454    -749760.83247   -584229.09447                  21598819.9694
        22.7504         25.7504
  23618595.4454   -2333041.59646  -1817952.37246                  23618602.1374
        13.7504         13.2504
  20977920.4844     235879.93148    184170.97547                  20977926.3794
        30.2504         29.0004
  23745713.3284   -1679781.04845  -1204197.36545                  23745721.4184
        10.5004         10.5004
  23839326.7114   -1169052.25245   -844192.62145                  23839334.0044
        11.5004         11.2504
  22661936.6724    3065424.82946   2348977.53246                  22661942.4844
        19.2504         18.0004
 02  7  8 15 10 30.0000000  0 10G 5G 6G10G15G17G18G23G26G29G30
  25002279.4454    3486677.24145   2687421.61745                  25002291.5204
         8.2504          7.0004
  20518537.6174     174333.05148    135843.59847                  20518542.9384
        28.2504         26.2504
  22494283.1644    2605377.33147   1982179.16146                  22494289.5744
        21.0004         20.7504
  22234608.2814   -1311705.19846  -1022107.47546                  22234614.6804
        19.5004         19.7504
  21596567.2034    -761569.73847   -593430.83247                  21596573.2384
        23.7504         26.0004
  23610558.0314   -2375276.09246  -1850862.33346                  23610563.9844
        13.5004         13.2504
  20979615.6564     244787.94548    191112.27847                  20979621.4804
        30.2504         29.0004
  23740017.1644   -1709712.13445  -1227520.24345                  23740026.0864
        10.5004         10.2504
  23835641.6724   -1188416.88645   -859281.90445                  23835649.1764
        11.5004         11.2504
  22673449.4384    3125924.63446   2396120.19546                  22673455.0984
        19.0004         18.2504
 02  7  8 15 10 45.0000000  0  9G 6G10G15G17G18G23G26G29G30
  20519811.2664     181026.74048    141059.45047                  20519816.5044
        28.2504         26.2504
  22504162.0554    2657290.56347   2022631.00846                  22504168.4534
        20.5004         20.7504
  22230426.5864   -1333681.72646  -1039232.03446                  22230432.5274
        19.7504         19.5004
  21594335.4064    -773299.88747   -602571.20647                  21594341.4064
        23.5004         26.0004
  23602533.9144   -2417444.09146  -1883720.47046                  23602540.0784
        14.2504         13.2504
  20981340.3834     253851.25348    198174.59047                  20981346.1024
        30.2504         29.0004
  23734338.5394   -1739557.85645  -1250776.58045                  23734346.7814
        11.2504         10.0004
  23831976.3834   -1207682.13645   -874293.75945                  23831984.3324
        11.5004         11.5004
  22684976.7424    3186502.02446   2443323.31046                  22684982.5434
        19.2504         18.2504
 02  7  8 15 11  0.0000000  0  9G 6G10G15G17G18G23G26G29G30
  20521107.7034     187839.76248    146368.29147                  20521113.1054
        28.0004         26.2504
  22514062.4144    2709317.17247   2063171.21746                  22514068.9414
        20.5004         20.5004
  22226259.0394   -1355580.68846  -1056296.16046                  22226265.2154
        19.2504         19.5004
  21592117.8444    -784952.01047   -611650.79347                  21592123.8794
        23.2504         26.0004
  23594522.6334   -2459546.00046  -1916527.11346                  23594528.9494
        14.2504         13.2504
  20983094.2344     263069.01348    205357.25547                  20983100.0944
        30.0004         29.2504
  23728674.5234   -1769318.58245  -1273966.71745                  23728682.4494
        10.5004          9.7504
  23828328.4534   -1226848.56045   -889228.59645                  23828335.5354
        11.7504         11.2504
  22696518.7424    3247155.83046   2490585.96446                  22696524.9304
        18.2504         18.2504
 02  7  8 15 11 15.0000000  0  9G 6G10G15G17G18G23G26G29G30
  20522427.2974     194773.90748    151771.51147                  20522432.4774
        28.2504         26.0004
  22523984.4534    2761458.33147   2103800.66846                  22523990.7704
        20.5004         20.5004
  22222106.6724   -1377400.43946  -1073298.56546                  22222112.5904
        19.2504         20.0004
  21589915.5704    -796524.60347   -620668.39547                  21589921.5474
        23.5004         26.0004
  23586523.4304   -2501580.03646  -1949280.84346                  23586530.3484
        13.2504         13.5004
  20984878.2584     272442.85248    212661.53647                  20984884.0354
        30.0004         29.2504
  23723027.8524   -1798992.22145  -1297088.94345                  23723036.6684
        10.7504         10.7504
  23824699.8364   -1245914.05045   -904084.77745                  23824708.3134
        11.5004         11.5004
  22708075.9774    3307887.42646   2537909.22346                  22708082.1524
        18.7504         18.0004
 02  7  8 15 11 30.0000000  0  9G 6G10G15G17G18G23G26G29G30
  20523769.2814     201826.90848    157267.34647                  20523774.4144
        28.0004         26.2504
  22533928.2344    2813711.24247   2144517.20846                  22533934.7034
        21.2504         20.5004
  22217969.7974   -1399143.45347  -1090241.15946                  22217975.9384
        20.5004         20.0004
  21587727.8444    -808020.00647   -629625.84647                  21587733.8094
        23.0004         26.2504
  23578536.6484   -2543548.26346  -1981983.29746                  23578542.9414
        13.2504         13.0004
  20986691.2894     281970.27148    220085.49847                  20986697.1374
        30.2504         29.0004
  23717397.1414   -1828580.77945  -1320144.93945                  23717405.0904
        10.7504         10.5004
  23821090.9224   -1264880.81745   -918864.03045                  23821097.7934
        11.7504         11.7504
  22719646.8524    3368693.93946   2585290.88146                  22719653.0984
        18.5004         18.2504
 02  7  8 15 11 45.0000000  0  9G 6G10G15G17G18G23G26G29G30
  20525134.7974     209001.40348    162857.85147                  20525140.2344
        28.5004         26.5004
  22543893.2034    2866078.06647   2185322.50546                  22543899.5554
        20.7504         20.7504
  22213847.2584   -1420807.15847  -1107121.96246                  22213853.4224
        20.5004         20.2504
  21585555.4304    -819435.82447   -638521.28347                  21585561.4884
        23.2504         26.0004
  23570563.8054   -2585447.84746  -2014632.28246                  23570569.5234
        13.5004         13.2504
  20988533.7194     291653.69648    227631.01647                  20988539.6484
        29.7504         29.0004
  23711783.6644   -1858081.31545  -1343132.31845                  23711791.4964
        11.2504         10.7504
  23817501.3204   -1283746.05646   -933564.18745                  23817508.4964
        12.0004         11.5004
  22731232.7664    3429577.48346   2632732.54246                  22731238.8954
        18.5004         18.0004
 02  7  8 15 12  0.0000000  0  9G 6G10G15G17G18G23G26G29G30
  20526522.6414     216295.51148    168541.56347                  20526527.9264
        28.2504         26.5004
  22553879.3594    2918556.44647   2226214.73646                  22553885.9104
        20.5004         20.2504
  22209739.2814   -1442393.62547  -1123942.59446                  22209745.3874
        20.0004         20.0004
  21583398.1884    -830774.13547   -647356.34847                  21583404.2114
        24.0004         26.2504
  23562603.1334   -2627280.55546  -2047229.14746                  23562609.0514
        13.5004         13.0004
  20990405.9304     301491.02948    235296.46347                  20990411.9184
        30.5004         29.2504
  23706186.7274   -1887495.46145  -1366052.34345                  23706195.5664
        11.2504         10.5004
  23813930.1484   -1302511.37845   -948186.47145                  23813937.1134
        11.7504         11.5004
  22742832.8984    3490535.67246   2680232.38346                  22742838.9224
        18.7504         18.0004
 02  7  8 15 12 15.0000000  0  9G 6G10G15G17G18G23G26G29G30
  20527934.1724     223712.17848    174320.77547                  20527939.5394
        28.5004         26.2504
  22563887.3594    2971148.83947   2267195.80146                  22563894.1334
        21.0004         21.0004
  22205647.0164   -1463900.02747  -1140700.81346                  22205652.8984
        20.5004         20.2504
  21581256.1024    -842032.02547   -656128.72947                  21581262.1954
        24.2504         26.2504
  23554656.1954   -2669043.37946  -2079771.55446                  23554662.4064
        14.2504         13.5004
  20992307.5004     311484.97948    243083.95247                  20992313.4064
        30.2504         29.2504
  23700606.2664   -1916820.03345  -1388902.60545                  23700614.4024
        11.2504         10.0004
  23810378.2194   -1321173.61045   -962728.42646                  23810385.8634
        11.0004         12.0004
  22754447.1804    3551570.95346   2727792.29246                  22754453.4844
        18.2504         18.0004
 02  7  8 15 12 30.0000000  0  9G 6G10G15G17G18G23G26G29G30
  20529368.3914     231249.29248    180193.83847                  20529373.8754
        28.7504         26.0004
  22573916.4224    3023852.66647   2308263.70446                  22573923.5394
        20.2504         20.7504
  22201569.5084   -1485328.60447  -1157398.40546                  22201575.7074
        21.0004         20.2504
  21579128.1724    -853211.79447   -664840.22847                  21579134.1724
        23.5004         26.2504
  23546721.4694   -2710738.36146  -2112261.11646                  23546728.1374
        13.5004         13.7504
  20994238.8524     321633.25048    250991.68747                  20994244.7934
        30.5004         29.2504
  23695042.1094   -1946056.74245  -1411684.43545                  23695051.3244
        11.0004         10.2504
  23806846.6414   -1339734.81745   -977191.65345                  23806854.1684
        11.5004         11.5004
  22766076.2974    3612680.67546   2775410.18746                  22766082.5784
        18.5004         18.0004
 02  7  8 15 12 45.0000000  0  9G 6G10G15G17G18G23G26G29G30
  20530824.8914     238904.27648    186158.75047                  20530830.3284
        28.2504         26.2504
  22583966.4614    3076664.82447   2349416.02146                  22583973.0004
        20.5004         20.5004
  22197505.6024   -1506682.04047  -1174037.45246                  22197511.4734
        20.5004         20.2504
  21577015.1254    -864316.27247   -673493.06547                  21577021.1374
        23.2504         26.2504
  23538799.7894   -2752367.92846  -2144699.68646                  23538806.3404
        14.0004         13.7504
  20996198.8134     331933.03848    259017.49047                  20996204.6134
        30.2504         29.2504
  23689495.1094   -1975207.95745  -1434399.61045                  23689503.4924
        11.0004         10.2504
  23803333.3594   -1358197.16845   -991577.83545                  23803340.2774
        11.5004         11.5004
  22777718.3284    3673861.78846   2823083.73146                  22777724.4344
        18.2504         18.0004
 02  7  8 15 13  0.0000000  0  9G 6G10G15G17G18G23G26G29G30
  20532304.6644     246679.28148    192217.18047                  20532309.9144
        28.2504         26.2504
  22594037.0004    3129587.02847   2390654.08446                  22594043.1644
        20.2504         20.5004
  22193456.8204   -1527958.26947  -1190616.32646                  22193462.8094
        20.5004         20.2504
  21574916.7584    -875343.41447   -682085.64047                  21574922.7464
        24.0004         26.2504
  23530890.6804   -2793929.69846  -2177085.42846                  23530896.7384
        14.2504         14.0004
  20998187.8054     342386.22948    267162.82647                  20998193.6764
        30.2504         29.0004
  23683964.3754   -2004271.18445  -1457046.21945                  23683973.7074
        11.0004         10.0004
  23799838.9614   -1376558.50645  -1005885.34846                  23799845.4304
        11.7504         12.0004
  22789374.9454    3735115.91546   2870814.16346                  22789381.1564
        18.5004         17.7504
 02  7  8 15 13 15.0000000  0  9G 6G10G15G17G18G23G26G29G30
  20533806.8524     254573.81048    198368.75147                  20533811.9844
        28.7504         26.2504
  22604128.5084    3182618.20547   2431977.06246                  22604134.9884
        20.5004         20.5004
  22189422.6414   -1549157.89747  -1207135.50846                  22189428.4884
        20.7504         20.5004
  21572832.9064    -886293.87547   -690618.47147                  21572838.9534
        23.5004         26.7504
  23522994.5784   -2835424.09546  -2209418.67446                  23523000.6374
        14.5004         13.5004
  21000206.2344     352992.09348    275427.12747                  21000212.1884
        30.0004         29.2504
  23678450.7584   -2033246.66545  -1479624.46145                  23678459.5394
        11.0004         10.5004
  23796363.5554   -1394819.03545  -1020114.28846                  23796371.1524
        11.5004         12.0004
  22801045.1804    3796442.00446   2918600.66946                  22801051.2274
        18.5004         18.0004
 02  7  8 15 13 30.0000000  0  9G 6G10G15G17G18G23G26G29G30
  20535331.9694     262588.82748    204614.20547                  20535337.3134
        28.2504         26.0004
  22614241.2194    3235758.86147   2473385.34946                  22614247.6644
        20.5004         20.7504
  22185403.3984   -1570280.06647  -1223594.33646                  22185409.2234
        21.0004         20.5004
  21570764.0234    -897166.87847   -699090.93447                  21570770.0354
        24.2504         26.5004
  23515111.4614   -2876849.96646  -2241698.54746                  23515117.5664
        14.7504         13.5004
  21002253.6334     363751.48048    283811.05747                  21002259.5514
        30.2504         29.2504
  23672954.0554   -2062133.09045  -1502133.33245                  23672961.7464
        11.2504         10.0004
  23792908.3134   -1412977.64945  -1034263.81745                  23792915.8164
        11.5004         11.5004
  22812728.8984    3857840.64346   2966443.71446                  22812735.0274
        18.2504         18.0004
 02  7  8 15 13 45.0000000  0  9G 6G10G15G17G18G23G26G29G30
  20536880.4844     270726.05248    210954.89347                  20536885.9454
        28.0004         26.2504
  22624374.5084    3289010.22447   2514879.89546                  22624380.9064
        20.5004         20.2504
  22181398.7974   -1591323.22147  -1239991.60346                  22181404.8204
        21.0004         20.5004
  21568709.7584    -907960.84447   -707501.80547                  21568715.7814
        23.7504         26.2504
  23507241.6724   -2918205.53546  -2273923.62446                  23507248.1884
        14.5004         13.7504
  21004330.7344     374665.91548    292315.80947                  21004336.6174
        30.5004         29.2504
  23667474.2274   -2090928.53545  -1524571.29045                  23667482.6564
        11.2504         10.5004
  23789473.1024   -1431032.46445  -1048332.47046                  23789480.7344
        11.5004         12.0004
  22824426.7584    3919312.89446   3014344.11046                  22824433.2974
        18.2504         18.0004
 02  7  8 15 14  0.0000000  0  9G 6G10G15G17G18G23G26G29G30
  20538452.4384     278986.31348    217391.44547                  20538457.4884
        28.5004         26.2504
  22634529.6094    3342372.70547   2556461.03146                  22634535.9264
        21.2504         20.5004
  22177409.6254   -1612286.68447  -1256326.76246                  22177415.8364
        20.2504         20.5004
  21566670.7194    -918675.05247   -715850.53247                  21566676.7544
        23.5004         26.5004
  23499385.9614   -2959489.78746  -2306093.11946                  23499392.6644
        15.2504         14.2504
  21006437.1334     385736.00848    300941.84847                  21006443.1334
        30.2504         29.2504
  23662012.0944   -2119631.91145  -1546937.51245                  23662020.3364
        11.0004         10.2504
  23786057.5864   -1448982.39846  -1062319.40345                  23786065.1484
        12.2504         11.7504
  22836138.6414    3980859.15046   3062302.17246                  22836144.9924
        18.2504         17.7504
 02  7  8 15 14 15.0000000  0  9G 6G10G15G17G18G23G26G29G30
  20540047.1724     287367.25348    223922.03447                  20540052.4454
        28.5004         26.0004
  22644704.1724    3395843.28447   2598126.40146                  22644710.9344
        20.7504         20.7504
  22173435.6414   -1633172.88747  -1272601.71646                  22173441.4884
        21.2504         20.5004
  21564646.9844    -929312.15347   -724139.17347                  21564652.9144
        24.2504         26.5004
  23491542.7894   -3000704.89246  -2338208.73846                  23491548.5434
        15.7504         14.7504
  21008572.8364     396959.14848    309687.14447                  21008578.6954
        30.2504         29.2504
  23656567.3524   -2148245.19645  -1569233.52645                  23656574.8914
        11.2504         10.5004
  23782661.4224   -1466829.63446  -1076226.30245                  23782668.2194
        12.0004         11.7504
  22847864.1954    4042476.40746   3110315.56046                  22847870.3484
        18.0004         17.5004
 02  7  8 15 14 30.0000000  0  9G 6G10G15G17G18G23G26G29G30
  20541665.1804     295867.88348    230545.89447                  20541670.6054
        28.5004         26.2504
  22654899.8284    3449420.47147   2639874.83446                  22654906.3554
        20.5004         20.7504
  22169475.2894   -1653983.03147  -1288817.42046                  22169481.1724
        21.0004         20.7504
  21562636.9844    -939873.22247   -732368.57347                  21562643.0434
        24.2504         26.5004
  23483712.5234   -3041851.84546  -2370271.27346                  23483718.7234
        15.5004         14.5004
  21010737.5314     408334.08548    318550.72547                  21010743.3324
        30.2504         29.0004
  23651139.0004   -2176769.22745  -1591460.00045                  23651147.8754
        11.0004         10.2504
  23779284.5784   -1484575.12946  -1090053.90745                  23779291.6954
        12.2504         11.7504
  22859602.3984    4104163.23546   3158383.16746                  22859608.5164
        17.7504         17.5004
 02  7  8 15 14 45.0000000  0  9G 6G10G15G17G18G23G26G29G30
  20543305.7584     304490.03548    237264.43747                  20543311.2194
        28.5004         26.0004
  22665115.6414    3503105.66147   2681707.42946                  22665121.9694
        20.5004         20.7504
  22165530.2424   -1674715.39847  -1304972.50846                  22165536.1374
        21.2504         20.7504
  21560642.2814    -950356.58947   -740537.42247                  21560648.2814
        24.2504         26.2504
  23475896.1884   -3082928.67246  -2402279.13946                  23475902.1644
        15.7504         14.7504
  21012931.2814     419862.43948    327533.85047                  21012937.1644
        30.5004         29.0004
  23645729.0474   -2205201.69945  -1613615.10345                  23645736.7154
        11.2504         10.2504
  23775927.0554   -1502216.67146  -1103800.53846                  23775934.8164
        12.5004         12.0004
  22871355.1334    4165920.98546   3206506.02946                  22871361.5784
        17.7504         17.5004
 02  7  8 15 15  0.0000000  0  9G 6G10G15G17G18G23G26G29G30
  20544969.5704     313233.45348    244077.47747                  20544974.9024
        28.2504         26.2504
  22675351.8834    3556898.06947   2723623.57146                  22675358.4804
        20.2504         20.5004
  22161599.7664   -1695370.32347  -1321067.25246                  22161606.0004
        21.5004         21.0004
  21558661.9844    -960762.67947   -748646.05547                  21558667.9494
        24.0004         26.7504
  23468093.0634   -3123935.39646  -2434232.41146                  23468098.9804
        16.2504         15.0004
  21015154.1094     431543.72648    336636.14447                  21015160.0514
        30.2504         29.2504
  23640334.1884   -2233542.77345  -1635698.99845                  23640342.1724
        10.5004         10.7504
  23772589.2664   -1519754.47945  -1117466.32246                  23772597.8014
        11.7504         12.5004
  22883120.3674    4227748.91646   3254683.57846                  22883126.8134
        17.5004         17.2504
 02  7  8 15 15 15.0000000  0  9G 6G10G15G17G18G23G26G29G30
  20546656.1954     322096.21448    250983.51547                  20546661.5984
        28.5004         26.0004
  22685608.7274    3610795.29647   2765621.38946                  22685615.3364
        20.5004         20.5004
  22157683.3594   -1715949.75847  -1337103.17046                  22157689.3714
        20.5004         20.5004
  21556696.0394    -971093.55947   -756696.08347                  21556702.0274
        24.5004         26.5004
  23460302.6804   -3164873.95946  -2466132.55146                  23460308.9964
        15.7504         14.7504
  21017405.6334     443375.84848    345855.97347                  21017411.5044
        30.2504         29.0004
  23634958.7424   -2261793.90545  -1657712.82645                  23634966.7504
        10.5004         10.7504
  23769271.7664   -1537190.12346  -1131052.50446                  23769279.5634
        12.2504         12.0004
  22894898.6884    4289644.57346   3302913.90246                  22894904.5234
        17.0004         16.5004
 02  7  8 15 15 30.0000000  0  9G 6G10G15G17G18G23G26G29G30
  20548364.9534     331077.75948    257982.10747                  20548370.2154
        28.2504         26.0004
  22695884.6644    3664796.38647   2807700.13946                  22695891.0984
        20.5004         20.2504
  22153781.4304   -1736454.39447  -1353080.81446                  22153787.5704
        20.5004         20.2504
  21554744.2424    -981349.90947   -764688.04047                  21554750.3364
        24.2504         26.5004
  23452524.7734   -3205744.67146  -2497979.81246                  23452531.0904
        15.2504         14.2504
  21019686.0474     455358.07148    355192.76047                  21019691.9654
        30.2504         29.0004
  23629600.4064   -2289955.45945  -1679656.82245                  23629609.1414
        11.0004         11.0004
  23765973.1024   -1554524.04146  -1144559.40846                  23765981.0274
        12.0004         12.0004
  22906689.4534    4351606.88246   3351196.16146                  22906695.7234
        17.0004         17.0004
 02  7  8 15 15 45.0000000  0  9G 6G10G15G17G18G23G26G29G30
  20550097.0784     340178.98848    265073.96247                  20550102.4454
        28.0004         26.2504
  22706180.1174    3718901.65747   2849860.06746                  22706186.2344
        20.5004         20.2504
  22149893.7194   -1756883.53447  -1368999.62646                  22149899.8484
        20.5004         22.0004
  21552806.8134    -991531.13347   -772621.46947                  21552812.6844
        24.2504         26.5004
  23444760.1884   -3246546.50646  -2529773.41546                  23444766.0944
        15.0004         14.0004
  21021994.7424     467491.08548    364647.05347                  21022000.6954
        30.2504         29.2504
  23624258.2274   -2318026.17845  -1701530.04645                  23624267.3134
        11.0004         10.5004
  23762694.9614   -1571755.04546  -1157986.14246                  23762702.7344
        12.5004         12.0004
  22918494.1484    4413636.19346   3399530.63746                  22918500.0664
        17.7504         16.7504
 02  7  8 15 16  0.0000000  0  9G 6G10G15G17G18G23G26G29G30
  20551851.9694     349401.79248    272260.55547                  20551857.2424
        28.2504         26.2504
  22716496.2424    3773112.51147   2892102.27446                  22716502.6294
        20.0004         20.0004
  22146020.8834   -1777235.36847  -1384858.18846                  22146027.3874
        20.7504         20.7504
  21550884.3444   -1001635.31847   -780494.85547                  21550890.4024
        24.5004         26.7504
  23437009.7114   -3287277.39746  -2561511.73746                  23437015.3364
        16.0004         14.5004
  21024332.5234     479776.53748    374220.12347                  21024338.5234
        30.2504         29.2504
  23618934.4224   -2346003.96845  -1723330.90645                  23618942.6884
        11.2504         10.7504
  23759435.3984   -1588881.27445  -1171331.21946                  23759443.2304
        11.7504         12.0004
  22930310.3914    4475733.93946   3447918.42846                  22930316.3324
        17.0004         16.5004
 02  7  8 15 16 15.0000000  0  9G 6G10G15G17G18G23G26G29G30
  20553630.1024     358745.61348    279541.43247                  20553635.2814
        28.2504         26.0004
  22726831.9774    3827427.94447   2934425.96046                  22726838.2464
        20.2504         20.2504
  22142162.7664   -1797510.52047  -1400657.01046                  22142168.9884
        20.5004         20.5004
  21548976.1724   -1011663.21747   -788308.81147                  21548982.0904
        24.5004         26.5004
  23429271.7504   -3327937.72246  -2593195.08946                  23429277.7384
        15.0004         14.2504
  21026699.4614     492213.65648    383911.37747                  21026705.2854
        30.7504         29.2504
  23613628.6564   -2373889.06145  -1745059.48845                  23613636.8984
        11.2504         10.7504
  23756196.3524   -1605902.95346  -1184594.83846                  23756204.2074
        12.2504         12.2504
  22942139.5474    4537899.16046   3496358.79446                  22942145.6994
        16.5004         16.2504
 02  7  8 15 16 30.0000000  0  9G 6G10G15G17G18G23G26G29G30
  20555431.7034     368212.05748    286917.87947                  20555437.0234
        28.5004         26.0004
  22737188.0474    3881849.14747   2976832.07246                  22737194.8204
        20.2504         20.0004
  22138319.2664   -1817707.54747  -1416394.96946                  22138325.5124
        20.2504         20.2504
  21547082.3594   -1021613.55347   -796062.31747                  21547088.3364
        24.0004         26.7504
  23421548.5474   -3368525.73246  -2624822.06246                  23421554.8284
        14.7504         14.0004
  21029095.2664     504803.72848    393721.81447                  21029101.1134
        30.7504         29.2504
  23608339.0394   -2401679.59945  -1766714.42345                  23608346.4024
        11.2504         10.7504
  23752977.4224   -1622818.38646  -1197775.67345                  23752984.1844
        12.2504         11.5004
  22953982.8364    4600132.71546   3544852.42146                  22953988.6374
        17.2504         16.5004
 02  7  8 15 16 45.0000000  0  9G 6G10G15G17G18G23G26G29G30
  20557255.6724     377797.63048    294387.13847                  20557260.8634
        28.2504         26.0004
  22747563.4614    3936372.10246   3019317.46846                  22747570.0474
        19.7504         19.7504
  22134490.3834   -1837830.04047  -1432074.82746                  22134496.6644
        20.7504         20.7504
  21545202.8284   -1031489.76147   -803758.06347                  21545208.8164
        23.7504         26.5004
  23413837.7424   -3409044.73446  -2656395.28346                  23413844.0594
        15.0004         14.5004
  21031519.3674     517543.06748    403648.56247                  21031525.3444
        30.5004         29.0004
  23603068.6254   -2429378.68245  -1788298.06445                  23603075.8714
        11.2504         10.7504
  23749777.7664   -1639630.72446  -1210876.15546                  23749784.9654
        12.2504         12.2504
  22965837.7814    4662430.84146   3593396.35946                  22965844.2504
        16.5004         16.2504
 02  7  8 15 17  0.0000000  0  9G 6G10G15G17G18G23G26G29G30
  20559102.6724     387503.13248    301949.86047                  20559107.9924
        28.2504         26.2504
  22757958.5234    3990997.08047   3061882.36246                  22757964.7584
        20.2504         20.0004
  22130675.2504   -1857877.32847  -1447696.08146                  22130681.5314
        20.2504         21.0004
  21543338.0784   -1041291.25147   -811395.58247                  21543344.2074
        24.7504         26.5004
  23406140.4224   -3449493.85446  -2687914.04146                  23406146.6684
        14.7504         13.7504
  21033972.1024     530432.32048    413692.13447                  21033978.1024
        30.5004         29.2504
  23597815.3914   -2456985.40445  -1809809.72345                  23597823.7974
        11.0004         10.5004
  23746598.5314   -1656339.05746  -1223895.60846                  23746606.1764
        12.5004         12.7504
  22977704.8984    4724793.67246   3641990.70546                  22977710.7934
        16.7504         16.5004
 02  7  8 15 17 15.0000000  0  9G 6G10G15G17G18G23G26G29G30
  20560972.3364     397328.51948    309605.99547                  20560977.6804
        28.5004         26.2504
  22768372.0554    4045723.61446   3104526.40246                  22768378.6764
        19.5004         19.7504
  22126874.6174   -1877849.55547  -1463258.86246                  22126880.7114
        20.2504         20.5004
  21541486.9064   -1051018.14847   -818974.98247                  21541492.8594
        24.5004         26.5004
  23398456.8594   -3489872.99546  -2719378.28746                  23398463.3404
        15.0004         13.7504
  21036453.3284     543471.25548    423852.33847                  21036459.2114
        30.2504         29.2504
  23592578.8914   -2484499.27845  -1831249.04745                  23592588.0004
        11.0004         11.0004
  23743438.6094   -1672943.19846  -1236833.86246                  23743446.7234
        12.7504         12.2504
  22989584.8754    4787220.68346   3690635.07246                  22989591.4384
        16.7504         16.5004
 02  7  8 15 17 30.0000000  0  9G 6G10G15G17G18G23G26G29G30
  20562864.7344     407274.31048    317355.94447                  20562870.0204
        28.0004         26.0004
  22778806.0164    4100551.68047   3147249.54246                  22778812.6484
        20.0004         19.5004
  22123089.0554   -1897746.28047  -1478762.79546                  22123095.0554
        21.0004         21.0004
  21539650.1024   -1060670.16247   -826496.03047                  21539656.1374
        24.5004         26.5004
  23390786.1724   -3530181.27446  -2750787.29146                  23390792.4774
        14.5004         14.5004
  21038963.0864     556660.11048    434129.36147                  21038968.9574
        30.5004         29.2504
  23587361.2274   -2511919.56045  -1852615.46245                  23587369.3164
        11.2504         11.0004
  23740299.4144   -1689442.42646  -1249690.36746                  23740306.4614
        12.7504         12.0004
  23001476.3284    4849712.03446   3739329.56946                  23001482.5044
        16.7504         16.0004
 02  7  8 15 17 45.0000000  0  9G 6G10G15G17G18G23G26G29G30
  20564780.8364     417341.52148    325200.51547                  20564786.1334
        28.2504         26.2504
  22789258.6954    4155481.93146   3190052.31646                  22789264.8954
        19.7504         19.7504
  22119316.8754   -1917566.55447  -1494207.17846                  22119322.9924
        20.5004         21.0004
  21537827.7504   -1070246.43547   -833958.04647                  21537833.6454
        24.5004         26.2504
  23383129.4614   -3570417.64546  -2782140.27446                  23383135.8714
        14.7504         14.2504
  21041501.4924     569999.70848    444523.84547                  21041507.2934
        30.5004         29.2504
  23582161.5394   -2539244.94845  -1873907.91645                  23582169.6524
        11.2504         11.0004
  23737178.8134   -1705835.52146  -1262464.16946                  23737186.2704
        12.2504         12.2504
  23013380.6254    4912268.21946   3788074.59846                  23013386.7774
        17.0004         16.2504
 02  7  8 15 18  0.0000000  0  9G 6G10G15G17G18G23G26G29G30
  20566719.0554     427527.85648    333137.90747                  20566724.2584
        28.2504         26.0004
  22799730.1564    4210511.51646   3232932.49846                  22799736.5204
        19.5004         19.5004
  22115559.2114   -1937312.93447  -1509593.96246                  22115565.3404
        20.5004         21.0004
  21536019.6804   -1079749.34647   -841362.91547                  21536025.6564
        24.7504         26.7504
  23375485.9064   -3610584.47646  -2813439.07546                  23375492.5864
        14.7504         14.0004
  21044068.3284     583487.49448    455033.80347                  21044074.3524
        30.7504         29.0004
  23576979.2814   -2566477.39745  -1895127.95245                  23576988.1334
        11.2504         10.7504
  23734079.2894   -1722124.48245  -1275156.84146                  23734085.5354
        11.7504         12.5004
  23025296.9064    4974886.36446   3836867.89746                  23025302.7894
        17.0004         15.7504
 02  7  8 15 18 15.0000000  0  9G 6G10G15G17G18G23G26G29G30
  20568680.1024     437833.98448    341168.64547                  20568685.3164
        28.2504         26.2504
  22810221.1644    4265640.48047   3275890.10246                  22810227.3754
        20.0004         19.2504
  22111816.0234   -1956984.81247  -1524922.68646                  22111822.1994
        21.0004         21.2504
  21534225.2274   -1089178.38547   -848710.21347                  21534231.2154
        24.2504         26.5004
  23367855.9924   -3650680.85846  -2844682.97846                  23367862.5204
        14.7504         14.7504
  21046663.1334     597123.88448    465659.55447                  21046669.0514
        30.2504         29.2504
  23571814.4454   -2593616.13145  -1916274.95845                  23571822.6764
        11.2504         11.0004
  23731000.1254   -1738308.62946  -1287767.81746                  23731006.5354
        12.7504         12.5004
  23037224.0634    5037566.55546   3885709.53746                  23037230.0274
        16.7504         15.5004
 02  7  8 15 18 30.0000000  0  9G 6G10G15G17G18G23G26G29G30
  20570664.3204     448260.52648    349293.20947                  20570669.6294
        28.2504         26.0004
  22820730.7504    4320868.96546   3318925.26546                  22820737.4184
        19.5004         19.5004
  22108086.8674   -1976581.66947  -1540192.96446                  22108092.8554
        21.2504         21.0004
  21532444.7664   -1098533.24447   -855999.71547                  21532450.6844
        24.2504         26.5004
  23360238.9844   -3690706.08246  -2875871.42146                  23360246.1604
        14.7504         14.7504
  21049286.3834     610909.28348    476401.41847                  21049292.2774
        30.5004         29.2504
  23566668.8204   -2620660.15745  -1937348.14145                  23566677.9774
        11.2504         11.2504
  23727940.5084   -1754387.20446  -1300296.55246                  23727947.3164
        12.5004         12.2504
  23049163.9224    5100309.02146   3934599.71046                  23049169.8634
        17.0004         16.2504
 02  7  8 15 18 45.0000000  0  9G 6G10G15G17G18G23G26G29G30
  20572671.5084     458808.50048    357512.40047                  20572676.6644
        28.2504         26.2504
  22831260.2114    4376197.58347   3362038.45046                  22831266.7384
        20.2504         19.2504
  22104371.6334   -1996102.66047  -1555404.12446                  22104377.7504
        20.5004         21.2504
  21530679.1414   -1107812.98747   -863230.67947                  21530685.0354
        24.0004         26.2504
  23352636.5704   -3730659.12546  -2907003.63446                  23352643.8874
        15.2504         15.0004
  21051938.2974     624844.46048    487259.99147                  21051944.2154
        31.0004         29.0004
  23561540.7034   -2647608.12646  -1958346.49745                  23561548.3484
        12.2504         11.5004
  23724900.7424   -1770359.03646  -1312742.10746                  23724907.5514
        13.0004         12.7504
  23061115.1414    5163114.21646   3983538.76046                  23061121.0824
        17.0004         16.2504
 02  7  8 15 19  0.0000000  0  9G 6G10G15G17G18G23G26G29G30
  20574701.8834     469477.92348    365826.22247                  20574707.2504
        28.2504         26.0004
  22841807.3364    4431625.87246   3405229.30046                  22841813.7814
        19.7504         19.5004
  22100671.7344   -2015547.88147  -1570556.23646                  22100677.6294
        21.2504         21.5004
  21528927.4064   -1117017.67247   -870403.16347                  21528933.4184
        24.0004         26.2504
  23345047.2974   -3770539.64346  -2938079.32146                  23345053.9064
        15.2504         14.5004
  21054618.2664     638929.20548    498235.10847                  21054624.1724
        30.2504         29.2504
  23556430.6094   -2674459.79645  -1979269.84145                  23556439.5784
        11.5004         10.7504
  23721881.7504   -1786223.82646  -1325104.25046                  23721890.1454
        12.5004         13.0004
  23073078.1024    5225981.76446   4032526.39746                  23073084.0554
        16.5004         16.0004
 02  7  8 15 19 15.0000000  0  9G 6G10G15G17G18G23G26G29G30
  20576754.7344     480265.56448    374232.16747                  20576760.1954
        28.2504         26.0004
  22852373.3134    4487150.12147   3448494.92846                  22852379.8984
        20.0004         19.0004
  22096985.1954   -2034920.65547  -1585651.90746                  22096991.3364
        21.5004         21.2504
  21527189.4384   -1126150.72747   -877519.82447                  21527195.4844
        24.0004         26.5004
  23337471.6254   -3810350.71746  -2969100.92646                  23337477.6604
        16.0004         14.7504
  21057326.4844     653160.00948    509324.04347                  21057332.4024
        30.5004         29.2504
  23551338.7814   -2701217.97845  -2000120.28945                  23551346.8364
        11.5004         11.0004
  23718882.4614   -1801984.54646  -1337385.30546                  23718890.5164
        12.2504         12.7504
  23085052.8204    5288907.75946   4081559.56946                  23085058.7384
        16.7504         16.5004
 02  7  8 15 19 30.0000000  0  9G 6G10G15G17G18G23G26G29G30
  20578829.8444     491170.65448    382729.63147                  20578835.2344
        28.2504         26.2504
  22862957.7034    4542769.02947   3491834.30646                  22862964.4414
        20.0004         19.0004
  22093312.3054   -2054221.80847  -1600691.75446                  22093318.5864
        21.2504         21.2504
  21525465.1804   -1135212.98947   -884581.33047                  21525471.2504
        24.2504         26.2504
  23329908.8754   -3850092.96946  -3000068.85946                  23329915.0164
        16.0004         14.5004
  21060062.0164     667535.98548    520526.09247                  21060067.8404
        30.5004         29.2504
  23546264.1094   -2727883.22045  -2020898.37545                  23546272.5164
        11.2504         11.2504
  23715904.1644   -1817641.75846  -1349585.69646                  23715912.2774
        13.2504         13.0004
  23097038.4924    5351891.06746   4130637.41046                  23097044.4804
        16.7504         16.0004
 02  7  8 15 19 45.0010000  0  9G 6G10G15G17G18G23G26G29G30
  20580928.6224     502199.42348    391323.45847                  20580934.1184
        28.5004         26.0004
  22873561.0364    4598491.37546   3535254.29446                  22873567.5874
        19.2504         18.7504
  22089653.6464   -2073447.29247  -1615672.63546                  22089659.9034
        21.0004         21.7504
  21523755.0134   -1144199.77847   -891584.01747                  21523761.0364
        24.2504         26.2504
  23322360.2314   -3889763.34346  -3030980.83046                  23322365.7394
        17.0004         15.0004
  21062826.4974     682063.38348    531846.13847                  21062832.4384
        30.7504         29.2504
  23541208.7634   -2754451.46945  -2041600.85645                  23541216.9114
        11.7504         11.5004
  23712944.7244   -1833190.90946  -1361701.87546                  23712952.6384
        12.7504         12.7504
  23109036.1614    5414940.83546   4179767.02946                  23109042.1734
        16.7504         16.0004
 02  7  8 15 20  0.0010000  0  9G 6G10G15G17G18G23G26G29G30
  20583050.6144     513348.91148    400011.36747                  20583055.8414
        28.5004         26.2504
  22884182.7394    4654307.74146   3578747.53946                  22884188.9854
        19.2504         18.7504
  22086009.7474   -2092596.09547  -1630593.78246                  22086015.8994
        21.5004         21.5004
  21522059.2554   -1153111.63747   -898528.32847                  21522065.2554
        24.5004         26.5004
  23314825.5994   -3929357.99946  -3061833.78746                  23314831.5284
        16.5004         14.7504
  21065619.3414     696738.53848    543281.31947                  21065625.3174
        30.7504         29.2504
  23536171.8804   -2780920.43346  -2062225.95145                  23536179.7944
        12.0004         11.2504
  23710006.1304   -1848631.11546  -1373733.16946                  23710014.3254
        12.7504         12.7504
  23121044.9584    5478046.70546   4228940.37546                  23121051.3684
        16.5004         16.2504
 02  7  8 15 20 15.0010000  0  9G 6G10G15G17G18G23G26G29G30
  20585195.0914     524617.79148    408792.29747                  20585200.2714
        28.7504         26.0004
  22894821.5364    4710219.39746   3622315.04646                  22894828.1814
        19.2504         19.0004
  22082379.6224   -2111671.59747  -1645457.80046                  22082385.7044
        21.0004         21.2504
  21520376.9274   -1161951.09647   -905416.21447                  21520382.9274
        24.0004         26.2504
  23307304.5604   -3968881.42446  -3092631.21946                  23307310.5484
        17.0004         15.5004
  21068439.7244     711560.16948    554830.63747                  21068445.6424
        30.7504         29.2504
  23531152.3494   -2807293.60745  -2082776.44145                  23531161.2594
        11.2504         11.2504
  23707088.2244   -1863965.29946  -1385681.85246                  23707095.5174
        12.7504         12.5004
  23133064.5914    5541210.33246   4278158.72746                  23133071.1184
        16.2504         15.7504
 02  7  8 15 20 30.0010000  0  9G 6G10G15G17G18G23G26G29G30
  20587361.7474     536006.12848    417666.31747                  20587367.0444
        28.5004         26.2504
  22905479.7864    4766225.89846   3665956.44646                  22905486.5134
        18.7504         18.7504
  22078763.9744   -2130673.93647  -1660264.80946                  22078769.9624
        22.2504         21.7504
  21518708.8024   -1170718.48147   -912247.93447                  21518714.7434
        24.7504         26.2504
  23299796.7164   -4008333.45346  -3123373.02746                  23299802.3884
        17.5004         16.2504
  21071287.8174     726527.99148    566493.86847                  21071293.8534
        30.5004         29.2504
  23526152.9504   -2833570.69946  -2103252.02846                  23526161.0994
        12.0004         12.0004
  23704190.7164   -1879193.20946  -1397547.71246                  23704197.1614
        13.2504         12.7504
  23145094.8884    5604431.25446   4327421.72646                  23145101.2744
        15.7504         16.0004
 02  7  8 15 20 45.0010000  0  9G 6G10G15G17G18G23G26G29G30
  20589552.6534     547518.08548    426636.66047                  20589557.8684
        28.7504         26.2504
  22916156.6384    4822330.86746   3709674.57946                  22916163.2354
        19.5004         18.5004
  22075162.5214   -2149599.10547  -1675011.69246                  22075168.6384
        21.5004         22.0004
  21517054.7394   -1179409.72847   -919020.33347                  21517060.7744
        24.0004         26.2504
  23292303.2864   -4047709.84146  -3154055.90046                  23292309.4744
        17.0004         16.0004
  21074164.6614     741645.94448    578274.08447                  21074170.4034
        30.5004         29.2504
  23521171.1694   -2859747.20545  -2123649.26245                  23521179.6574
        11.7504         11.0004
  23701313.6144   -1894310.66046  -1409327.53446                  23701320.5444
        13.2504         12.7504
  23157137.6304    5667713.10246   4376732.18446                  23157144.0634
        16.7504         16.0004
 02  7  8 15 21  0.0010000  0  9G 6G10G15G17G18G23G26G29G30
  20591766.3644     559151.27448    435701.47047                  20591771.5214
        28.7504         26.2504
  22926850.9974    4878531.49746   3753467.26246                  22926857.4664
        19.2504         18.7504
  22071575.3884   -2168449.64647  -1689700.41346                  22071581.3994
        22.0004         22.0004
  21515414.8494   -1188027.34347   -925735.35147                  21515420.8024
        23.7504         26.2504
  23284824.3334   -4087012.78046  -3184681.53546                  23284830.4974
        17.0004         16.0004
  21077069.8254     756911.37448    590169.21947                  21077075.5914
        31.0004         29.2504
  23516209.1064   -2885825.24246  -2143969.75945                  23516217.4314
        12.5004         11.7504
  23698457.2314   -1909319.74646  -1421022.89046                  23698463.9584
        13.0004         12.7504
  23169190.7554    5731052.98546   4426087.87646                  23169197.1424
        16.5004         16.0004
 02  7  8 15 21 15.0010000  0  9G 6G10G15G17G18G23G26G29G30
  20594002.9194     570905.39748    444860.51647                  20594008.1224
        28.7504         26.2504
  22937563.5914    4934826.92646   3797333.80146                  22937570.3644
        19.2504         18.7504
  22068002.1694   -2187225.84347  -1704331.20446                  22068008.2164
        22.0004         22.0004
  21513789.0674   -1196571.68747   -932393.28447                  21513795.0914
        24.5004         26.0004
  23277359.3724   -4126242.46746  -3215250.08746                  23277365.2314
        17.7504         15.7504
  21080002.6064     772323.77748    602178.88047                  21080008.4074
        30.5004         29.5004
  23511265.3104   -2911804.85846  -2164213.59545                  23511273.4814
        12.0004         11.0004
  23695621.5214   -1924220.65346  -1432633.93146                  23695628.4504
        12.7504         12.5004
  23181254.6694    5794450.21146   4475488.23546                  23181260.8104
        16.0004         15.7504
 02  7  8 15 21 30.0010000  0  9G 6G10G15G17G18G23G26G29G30
  20596262.8254     582780.11048    454113.52647                  20596267.9934
        28.7504         26.2504
  22948294.2474    4991216.30846   3841273.55146                  22948300.6924
        19.2504         18.5004
  22064443.4504   -2205928.21147  -1718904.47546                  22064449.5794
        22.5004         22.2504
  21512176.8494   -1205043.51547   -938994.70547                  21512182.7434
        24.2504         26.2504
  23269907.2554   -4165399.01546  -3245761.65946                  23269913.2674
        16.5004         16.0004
  21082963.4504     787882.58548    614302.62147                  21082969.3214
        30.7504         29.2504
  23506340.2714   -2937685.96646  -2184380.62345                  23506348.4314
        12.5004         11.7504
  23692806.2164   -1939013.43546  -1444160.74446                  23692814.0604
        12.2504         13.0004
  23193330.0214    5857903.88146   4524932.57846                  23193335.9154
        16.7504         15.5004
 02  7  8 15 21 45.0010000  0  9G 6G10G15G17G18G23G26G29G30
  20598545.4504     594776.11248    463461.05447                  20598550.6884
        28.5004         26.2504
  22959042.3024    5047700.03446   3885286.83046                  22959048.8294
        18.5004         18.5004
  22060899.0524   -2224556.09247  -1733419.69246                  22060904.9704
        22.7504         22.0004
  21510578.9194   -1213441.91547   -945538.90847                  21510584.9194
        24.5004         26.2504
  23262470.6384   -4204481.63646  -3276215.58446                  23262476.6734
        16.7504         15.7504
  21085951.9194     803588.26448    626540.80547                  21085957.8724
        30.5004         29.2504
  23501433.6614   -2963467.64945  -2204470.20846                  23501442.6774
        11.7504         12.0004
  23690012.6614   -1953697.15246  -1455602.56746                  23690020.1534
        13.0004         13.0004
  23205415.5054    5921414.16446   4574421.04346                  23205421.9854
        15.7504         15.2504
 02  7  8 15 22  0.0010000  0  9G 6G10G15G17G18G23G26G29G30
  20600851.5524     606894.05148    472903.58847                  20600856.7434
        29.0004         26.2504
  22969808.7394    5104278.24746   3929373.72246                  22969815.4544
        18.5004         18.5004
  22057368.0444   -2243108.96047  -1747876.47046                  22057373.9154
        22.0004         22.0004
  21508994.2784   -1221766.58447   -952025.65547                  21509000.2784
        23.7504         26.2504
  23255048.0994   -4243489.56246  -3306611.34646                  23255054.0054
        17.7504         15.7504
  21088968.9504     819441.22448    638893.75947                  21088974.8214
        31.0004         29.2504
  23496547.3024   -2989148.92946  -2224481.55045                  23496556.0604
        12.2504         11.2504
  23687239.8104   -1968271.08646  -1466958.83346                  23687247.5954
        13.5004         13.0004
  23217511.9584    5984981.29146   4623953.80746                  23217518.1574
        15.7504         15.2504
 02  7  8 15 22 15.0010000  0  9G 6G10G15G17G18G23G26G29G30
  20603180.0364     619130.26448    482438.28747                  20603185.1694
        29.0004         26.5004
  22980592.9744    5160946.70346   3973530.93746                  22980599.5604
        19.2504         18.5004
  22053851.6384   -2261590.54347  -1762277.68346                  22053857.8024
        22.7504         22.2504
  21507423.4114   -1230021.34047   -958457.93147                  21507429.3644
        23.7504         26.0004
  23247638.5834   -4282426.28846  -3336951.63146                  23247644.2434
        18.0004         15.7504
  21092012.7244     835437.52648    651358.40247                  21092018.5604
        30.5004         29.2504
  23491678.3254   -3014733.19846  -2244417.30045                  23491685.7004
        12.2504         11.5004
  23684486.1064   -1982738.66346  -1478232.21846                  23684492.5754
        13.0004         12.5004
  23229617.5524    6048600.97646   4673527.52346                  23229623.7044
        15.0004         15.7504
 02  7  8 15 22 30.0010000  0  9G 6G10G15G17G18G23G26G29G30
  20605531.6694     631489.04148    492068.49447                  20605536.6734
        28.7504         26.2504
  22991394.6854    5217709.15646   4017761.39446                  22991400.9784
        19.5004         18.2504
  22050348.5054   -2279996.69247  -1776620.12446                  22050354.4234
        22.2504         22.0004
  21505867.0134   -1238202.02147   -964832.48347                  21505872.9194
        24.5004         26.2504
  23240242.9274   -4321287.34746  -3367232.93946                  23240248.9274
        17.5004         16.2504
  21095085.0754     851581.29748    663937.96047                  21095090.9114
        31.0004         29.5004
  23486828.3104   -3040215.90245  -2264273.90345                  23486836.8214
        11.2504         11.7504
  23681753.6774   -1997095.42646  -1489419.26446                  23681760.4154
        13.0004         12.7504
  23241735.2004    6112277.12146   4723145.23846                  23241741.8334
        15.2504         15.5004
 02  7  8 15 22 45.0010000  0  9G 6G10G15G17G18G23G26G29G30
  20607907.0444     643970.07548    501793.96547                  20607912.2244
        29.0004         26.2504
  23002213.8884    5274564.91546   4062064.55646                  23002220.2044
        19.5004         18.5004
  22046860.1144   -2298327.84747  -1790904.12446                  22046866.1264
        22.2504         22.0004
  21504324.3724   -1246309.04447   -971149.64747                  21504330.2434
        24.5004         26.2504
  23232862.9504   -4360072.87046  -3397455.38546                  23232868.5054
        18.2504         16.2504
  21098184.7244     867872.01048    676632.01547                  21098190.5834
        30.5004         29.5004
  23481998.0444   -3065596.98845  -2284051.34945                  23482005.4784
        11.2504         11.2504
  23679043.4664   -2011341.40246  -1500520.00446                  23679050.0874
        13.0004         12.5004
  23253863.3024    6176008.90246   4772806.28946                  23253869.7714
        15.2504         15.0004
 02  7  8 15 23  0.0010000  0  9G 6G10G15G17G18G23G26G29G30
  20610305.4584     656573.85448    511615.07847                  20610310.7084
        28.7504         26.2504
  23013050.5364    5331513.98446   4106440.43546                  23013056.9814
        19.0004         18.2504
  22043386.3414   -2316583.68047  -1805129.43946                  22043392.4464
        22.2504         22.2504
  21502795.5444   -1254342.06647   -977409.15247                  21502801.6144
        24.2504         26.5004
  23225496.4744   -4398782.35246  -3427618.58846                  23225502.3924
        17.7504         16.2504
  21101312.9354     884309.82748    689440.69847                  21101318.7824
        30.5004         29.5004
  23477189.1144   -3090875.80946  -2303749.09145                  23477196.1854
        12.2504         11.7504
  23676353.2634   -2025476.08146  -1511533.99746                  23676360.2514
        13.0004         12.2504
  23266001.4504    6239796.36346   4822510.73446                  23266008.2944
        15.0004         15.0004
 02  7  8 15 23 15.0010000  0  9G 6G10G15G17G18G23G26G29G30
  20612727.0364     669300.56248    521531.97847                  20612732.4274
        28.7504         26.2504
  23023905.5674    5388556.10646   4150888.82046                  23023912.2714
        18.5004         18.2504
  22039926.8254   -2334764.00747  -1819295.91946                  22039932.8964
        22.7504         22.2504
  21501280.9584   -1262301.03947   -983610.94247                  21501286.8994
        24.5004         26.2504
  23218144.9814   -4437415.31346  -3457722.16546                  23218150.9704
        17.0004         16.2504
  21104468.8174     900894.78448    702364.03747                  21104474.6534
        30.7504         29.2504
  23472397.8024   -3116051.69346  -2323366.61345                  23472405.7984
        12.2504         11.7504
  23673684.7944   -2039499.00346  -1522460.91546                  23673692.4154
        12.7504         12.7504
  23278151.0524    6303639.26146   4872258.37346                  23278157.1814
        15.0004         14.5004
 02  7  8 15 23 30.0010000  0  9G 6G10G15G17G18G23G26G29G30
  20615172.0364     682148.88948    531543.64747                  20615177.4504
        28.5004         26.2504
  23034777.8884    5445689.53746   4195408.34446                  23034784.2284
        18.7504         18.5004
  22036481.1774   -2352870.25647  -1833404.67946                  22036487.2714
        21.7504         22.0004
  21499780.3254   -1270187.45347   -989756.19947                  21499786.3374
        24.2504         26.5004
  23210807.6224   -4475972.92546  -3487767.01046                  23210813.4934
        17.0004         15.7504
  21107652.5834     917625.28048    715400.78147                  21107658.4664
        30.7504         29.5004
  23467626.6064   -3141125.68046  -2342904.75445                  23467634.8964
        12.0004         11.5004
  23671037.4974   -2053411.25446  -1533301.57346                  23671045.4584
        13.0004         13.0004
  23290310.1694    6367535.67646   4922047.73046                  23290316.9784
        15.0004         14.7504
 02  7  8 15 23 45.0010000  0  9G 6G10G15G17G18G23G26G29G30
  20617640.2944     695119.41748    541650.54047                  20617645.6034
        28.7504         26.5004
  23045667.2474    5502914.32746   4239999.06946                  23045673.9974
        18.7504         18.2504
  22033050.1534   -2370901.95947  -1847455.35146                  22033056.1184
        22.5004         22.2504
  21498293.7244   -1278000.78347   -995844.50347                  21498299.6184
        24.5004         26.2504
  23203484.1464   -4514454.52546  -3517752.63246                  23203490.3804
        16.5004         16.2504
  21110864.4034     934501.66148    728551.20547                  21110870.2044
        31.2504         29.5004
  23462875.4424   -3166096.90146  -2362362.82246                  23462884.3994
        12.2504         12.0004
  23668410.5134   -2067212.12646  -1544055.47146                  23668418.3214
        12.2504         12.7504
  23302479.1774    6431485.70946   4971878.84946                  23302485.7634
        14.7504         14.7504
 02  7  8 15 24  0.0010000  0  9G 6G10G15G17G18G23G26G29G30
  20620131.9664     708213.04748    551853.35247                  20620137.1694
        29.0004         26.2504
  23056574.2714    5560230.89246   4284661.30146                  23056580.7044
        19.2504         18.2504
  22029632.7714   -2388858.32347  -1861447.31546                  22029638.7824
        22.2504         22.5004
  21496820.9034   -1285740.21547  -1001875.24147                  21496826.8454
        24.5004         26.5004
  23196176.3644   -4552858.97746  -3547678.13346                  23196182.5174
        16.7504         16.2504
  21114103.3724     951524.65848    741815.86947                  21114109.2434
        30.2504         29.5004
  23458143.2634   -3190964.20146  -2381739.90546                  23458152.2554
        12.2504         12.0004
  23665806.4034   -2080900.34646  -1554721.56246                  23665813.9314
        13.0004         12.7504
  23314658.4664    6495489.89046   5021752.16146                  23314665.1694
        14.0004         14.7504
 02  7  8 15 24 15.0010000  0  9G 6G10G15G17G18G23G26G29G30
  20622646.8254     721429.21048    562151.64447                  20622652.0054
        29.0004         26.2504
  23067498.0524    5617638.19446   4329394.23646                  23067504.7784
        18.2504         18.2504
  22026230.1224   -2406740.05047  -1875381.13046                  22026236.1814
        22.7504         22.5004
  21495361.7314   -1293406.56847  -1007849.01747                  21495367.6384
        24.2504         26.5004
  23188882.8804   -4591186.79246  -3577543.93546                  23188888.9504
        17.0004         16.2504
  21117370.5214     968693.38848    755194.09647                  21117376.4744
        30.7504         29.5004
  23453429.8414   -3215727.84346  -2401036.21445                  23453437.2284
        12.5004         11.7504
  23663222.5834   -2094476.47546  -1565300.32546                  23663230.2394
        13.0004         13.0004
  23326848.4894    6559547.01346   5071666.73246                  23326855.2864
        14.5004         14.2504
 02  7  8 15 24 30.0010000  0  9G 6G10G15G17G18G23G26G29G30
  20625185.0994     734767.45248    572545.06347                  20625190.3494
        29.0004         26.5004
  23078439.5524    5675135.33546   4374197.17246                  23078445.9624
        18.2504         18.2504
  22022841.3644   -2424547.64547  -1889257.18746                  22022847.4584
        22.2504         22.0004
  21493916.8964   -1301000.43747  -1013766.31747                  21493922.7904
        24.7504         26.7504
  23181604.1694   -4629438.15546  -3607350.15146                  23181610.0284
        17.5004         16.5004
  21120665.4974     986007.16048    768685.34047                  21120671.4034
        31.2504         29.5004
  23448737.7944   -3240387.90546  -2420251.81845                  23448745.0754
        12.5004         11.7504
  23660660.9114   -2107940.72446  -1575791.91846                  23660667.9934
        13.0004         12.7504
  23339048.2784    6623656.21146   5121621.88646                  23339054.7944
        14.5004         14.0004
 02  7  8 15 24 45.0010000  0  9G 6G10G15G17G18G23G26G29G30
  20627746.9424     748229.85348    583035.23647                  20627752.2394
        29.0004         26.5004
  23089399.0674    5732723.90746   4419071.36046                  23089405.7824
        19.2504         18.2504
  22019467.6144   -2442279.15247  -1903073.94146                  22019473.6384
        22.7504         22.5004
  21492486.0674   -1308519.88547  -1019625.62647                  21492492.0094
        24.7504         26.7504
  23174339.8414   -4667610.87146  -3637095.08546                  23174345.4544
        17.5004         16.7504
  21123987.9424    1003467.84148    782291.06147                  21123993.8724
        30.7504         29.2504
  23444065.1924   -3264942.13246  -2439384.94845                  23444072.8604
        12.5004         11.7504
  23658120.2554   -2121290.84546  -1586194.57046                  23658126.8534
        12.7504         12.5004
  23351258.0994    6687819.18946   5171618.94746                  23351264.3684
        14.2504         14.0004
 02  7  8 15 25  0.0010000  0  9G 6G10G15G17G18G23G26G29G30
  20630332.2784     761814.52748    593620.68547                  20630337.3064
        29.5004         26.5004
  23100374.7554    5790401.56846   4464014.97346                  23100381.3534
        18.7504         18.0004
  22016107.1144   -2459936.55547  -1916832.96646                  22016113.1264
        22.2504         22.2504
  21491068.8724   -1315966.88947  -1025428.48147                  21491074.7314
        24.5004         26.7504
  23167090.2714   -4705706.69746  -3666780.11346                  23167096.4234
        17.0004         16.2504
  21127338.2864    1021073.27548    796009.57547                  21127344.1694
        31.2504         29.2504
  23439412.0994   -3289391.98646  -2458436.75645                  23439419.7204
        12.2504         11.7504
  23655600.6774   -2134528.57346  -1596509.62546                  23655607.4154
        12.2504         12.2504
  23363477.7314    6752033.42046   5221655.93046                  23363485.0604
        14.5004         14.0004
 02  7  8 15 25 15.0010000  0  9G 6G10G15G17G18G23G26G29G30
  20632941.0054     775523.35148    604302.87147                  20632946.1144
        29.5004         26.5004
  23111367.2944    5848169.68046   4509029.05246                  23111374.0444
        18.2504         18.0004
  22012761.4894   -2477518.12147  -1930532.87246                  22012767.6184
        22.0004         22.2504
  21489665.9814   -1323339.60747  -1031173.45847                  21489671.8064
        25.0004         26.7504
  23159856.4974   -4743723.62246  -3696403.65346                  23159862.2864
        18.2504         16.2504
  21130716.0604    1038825.06048    809842.12447                  21130721.9784
        30.2504         29.5004
  23434780.0214   -3313735.44846  -2477405.62746                  23434788.5794
        13.0004         12.0004
  23653103.3254   -2147651.81946  -1606735.53146                  23653110.6654
        12.2504         12.5004
  23375706.9424    6816300.31046   5271733.96146                  23375713.1424
        14.5004         14.2504
 02  7  8 15 25 30.0010000  0  9G 6G10G15G17G18G23G26G29G30
  20635572.8884     789353.48148    615079.58347                  20635577.9854
        29.5004         26.5004
  23122376.7004    5906024.96346   4554111.05446                  23122383.2634
        18.5004         17.7504
  22009430.2714   -2495026.70947  -1944175.91346                  22009436.0714
        23.2504         22.5004
  21488276.2474   -1330641.15947  -1036862.97847                  21488282.2944
        24.2504         27.0004
  23152636.3414   -4781664.33946  -3725967.82746                  23152642.2124
        17.7504         16.2504
  21134121.5054    1056720.17448    823786.36847                  21134127.4704
        30.5004         29.2504
  23430167.3804   -3337974.89846  -2496293.49146                  23430175.1424
        12.5004         12.2504
  23650627.4034   -2160663.21446  -1616874.22146                  23650634.3334
        12.7504         13.0004
  23387946.5604    6880616.67446   5321850.54046                  23387952.7594
        14.5004         13.5004
 02  7  8 15 25 45.0010000  0  9G 6G10G15G17G18G23G26G29G30
  20638227.9894     803306.77448    625952.26347                  20638233.2634
        29.5004         26.5004
  23133403.2164    5963968.84046   4599262.10346                  23133409.5214
        18.5004         18.0004
  22006111.9894   -2512460.58947  -1957760.75546                  22006117.9194
        22.2504         22.2504
  21486901.0364   -1337869.75547  -1042495.63647                  21486907.0014
        24.7504         27.0004
  23145431.3254   -4819526.76946  -3755470.97946                  23145437.3134
        18.0004         16.5004
  21137554.4504    1074760.23848    837843.55047                  21137560.3684
        30.5004         29.5004
  23425574.6304   -3362108.23046  -2515098.64146                  23425583.2354
        12.5004         12.2504
  23648173.4354   -2173560.60946  -1626924.08246                  23648180.6694
        13.5004         13.0004
  23400195.5604    6944983.76646   5372006.63446                  23400202.3564
        15.2504         14.2504
 02  7  8 15 26  0.0010000  0  9G 6G10G15G17G18G23G26G29G30
  20640906.5444     817383.62148    636921.22247                  20640911.7244
        29.0004         26.7504
  23144446.1924    6022001.23646   4644482.13446                  23144452.6614
        18.0004         18.0004
  22002809.0754   -2529819.45547  -1971287.13246                  22002815.3564
        23.0004         22.5004
  21485539.2394   -1345025.19847  -1048071.30847                  21485545.1814
        25.2504         26.7504
  23138241.0364   -4857310.47546  -3784912.78746                  23138247.0834
        17.7504         16.5004
  21141014.8174    1092945.32848    852013.74147                  21141020.6774
        30.5004         29.2504
  23421002.5364   -3386134.81946  -2533820.62545                  23421010.8604
        12.5004         11.7504
  23645740.8334   -2186343.72946  -1636884.91446                  23645748.3374
        13.5004         13.2504
  23412453.2554    7009401.47146   5422202.18846                  23412459.4314
        14.7504         14.0004
 02  7  8 15 26 15.0010000  0  9G 6G10G15G17G18G23G26G29G30
  20643608.7714     831583.30448    647985.90047                  20643614.0444
        29.5004         26.7504
  23155506.2004    6080120.95246   4689770.19146                  23155513.3414
        18.2504         18.2504
  21999519.6064   -2547104.10447  -1984755.67446                  21999525.7244
        22.7504         22.5004
  21484191.2714   -1352108.36347  -1053590.64447                  21484197.3414
        24.7504         26.7504
  23131066.2714   -4895015.99746  -3814293.68946                  23131072.1304
        18.5004         17.2504
  21144502.7004    1111274.51848    866296.22347                  21144508.6184
        30.5004         29.2504
  23416450.8254   -3410055.09646  -2552459.76745                  23416459.0794
        12.5004         11.7504
  23643329.7784   -2199012.96146  -1646757.00146                  23643337.1884
        13.0004         13.0004
  23424721.2004    7073868.64946   5472436.27446                  23424728.0604
        15.0004         14.2504
 02  7  8 15 26 30.0010000  0  9G 6G10G15G17G18G23G26G29G30
  20646334.2554     845906.14548    659146.54247                  20646339.5174
        29.5004         27.0004
  23166582.7474    6138327.83646   4735126.18046                  23166590.0284
        18.2504         17.7504
  21996244.9814   -2564314.36147  -1998166.26446                  21996250.9234
        23.0004         22.5004
  21482857.3174   -1359118.99247  -1059053.46947                  21482863.2474
        25.0004         26.7504
  23123905.6694   -4932642.91346  -3843613.32346                  23123911.9034
        18.2504         17.0004
  21148018.2714    1129747.85848    880691.03047                  21148024.1424
        30.5004         29.5004
  23411919.5754   -3433868.39346  -2571015.53745                  23411927.5834
        12.7504         11.7504
  23640940.7164   -2211567.74146  -1656539.90546                  23640947.0564
        13.0004         12.7504
  23436998.0754    7138385.09246   5522708.77546                  23437004.5794
        15.0004         14.2504
 02  7  8 15 26 45.0010000  0  9G 6G10G15G17G18G23G26G29G30
  20649083.4034     860352.13548    670403.14047                  20649088.7474
        29.5004         26.7504
  23177675.5674    6196621.40646   4780549.71646                  23177682.4974
        18.2504         17.5004
  21992984.2394   -2581450.43047  -2011519.04646                  21992990.3684
        23.2504         22.5004
  21481536.9814   -1366057.30547  -1064459.94847                  21481542.8884
        25.0004         27.0004
  23116760.8644   -4970191.09846  -3872871.60446                  23116766.6654
        19.0004         17.2504
  21151560.8804    1148365.11848    895197.97947                  21151566.8214
        30.5004         29.2504
  23407407.8964   -3457574.39746  -2589487.71445                  23407415.4814
        12.5004         11.7504
  23638572.9894   -2224007.86546  -1666233.45746                  23638579.6224
        12.7504         12.7504
  23449285.5364    7202950.28846   5573019.24246                  23449291.6884
        16.0004         14.2504
 02  7  8 15 27  0.0010000  0  9G 6G10G15G17G18G23G26G29G30
  20651856.1064     874923.57248    681757.50047                  20651861.3214
        29.5004         27.0004
  23188785.3494    6255003.55946   4826042.28346                  23188792.4544
        18.0004         17.7504
  21989737.5834   -2598510.07547  -2024812.27446                  21989743.4664
        23.0004         23.0004
  21480230.7314   -1372921.06147  -1069808.32647                  21480236.8134
        24.7504         27.0004
  23109630.9584   -5007658.07546  -3902066.62446                  23109636.8174
        18.7504         17.7504
  21155131.5674    1167128.37648    909818.69247                  21155137.4854
        30.5004         29.2504
  23402917.6534   -3481170.55046  -2607874.29246                  23402925.6384
        12.2504         12.0004
  23636228.5994   -2236330.95746  -1675835.83346                  23636235.5284
        13.0004         13.0004
  23461580.9194    7267566.15346   5623369.19446                  23461586.8494
        15.2504         14.2504
 02  7  8 15 27 15.0010000  0  9G 6G10G15G17G18G23G26G29G30
  20654652.7944     889619.44648    693208.81547                  20654657.9974
        29.5004         26.7504
  23199911.6774    6313472.69046   4871602.60546                  23199918.5714
        18.0004         17.5004
  21986505.7244   -2615494.34647  -2038046.75746                  21986511.8064
        23.2504         23.0004
  21478938.5364   -1379711.41247  -1075099.49747                  21478944.5364
        24.7504         27.0004
  23102516.3334   -5045044.68546  -3931199.02246                  23102522.3454
        19.2504         18.0004
  21158729.9034    1186036.31748    924552.14647                  21158735.8924
        31.0004         29.2504
  23398448.2474   -3504657.55346  -2626175.79646                  23398456.1964
        12.7504         12.0004
  23633904.9974   -2248537.81446  -1685347.63346                  23633912.1854
        12.7504         12.7504
  23473886.6924    7332231.11546   5673757.41346                  23473892.9034
        15.2504         14.5004
 02  7  8 15 27 30.0010000  0  9G 6G10G15G17G18G23G26G29G30
  20657472.5364     904437.21648    704755.11547                  20657477.6464
        29.7504         27.0004
  23211053.9274    6372025.94646   4917228.49646                  23211060.7984
        17.2504         17.2504
  21983287.4814   -2632405.82847  -2051224.52546                  21983293.3534
        23.0004         22.7504
  21477660.1854   -1386431.10747  -1080335.61247                  21477666.0914
        25.2504         27.2504
  23095416.8414   -5082353.27146  -3960270.60146                  23095422.8294
        19.2504         17.7504
  21162354.6064    1205086.12348    939396.14547                  21162360.4194
        30.5004         29.2504
  23393999.0994   -3528037.71746  -2644394.06546                  23394006.9664
        12.7504         12.0004
  23631604.6224   -2260630.74546  -1694770.66246                  23631612.5014
        14.0004         13.0004
  23486200.5524    7396942.14646   5724181.51246                  23486206.6694
        14.7504         14.0004
 02  7  8 15 27 45.0010000  0  9G 6G10G15G17G18G23G26G29G30
  20660316.1924     919380.90048    716399.53847                  20660321.4074
        29.5004         27.0004
  23222212.9894    6430666.92846   4962922.74046                  23222219.6464
        17.5004         17.2504
  21980084.0604   -2649240.50247  -2064342.44646                  21980089.9544
        23.2504         22.7504
  21476395.2944   -1393076.09847  -1085513.53147                  21476401.2354
        25.0004         27.2504
  23088332.7474   -5119579.63346  -3989278.11746                  23088338.7944
        19.0004         18.0004
  21166007.4894    1224281.64448    954353.68547                  21166013.4544
        30.2504         29.5004
  23389570.7004   -3551306.51546  -2662525.55546                  23389578.3454
        12.5004         12.5004
  23629326.0444   -2272605.56846  -1704101.65646                  23629332.5604
        13.5004         13.2504
  23498523.8564    7461702.89546   5774644.36646                  23498531.1964
        15.0004         14.7504
 02  7  8 15 28  0.0010000  0  9G 6G10G15G17G18G23G26G29G30
  20663183.9354     934451.91848    728143.17147                  20663189.0564
        29.5004         26.7504
  23233388.6694    6489396.43546   5008685.96846                  23233395.3724
        17.2504         17.0004
  21976895.0834   -2665997.18447  -2077399.59646                  21976901.1774
        22.7504         23.0004
  21475145.0444   -1399645.15247  -1090632.27047                  21475150.9974
        25.0004         27.2504
  23081264.8964   -5156722.28046  -4018220.40046                  23081270.9314
        19.7504         18.0004
  21169688.0994    1243624.06148    969425.69747                  21169694.0054
        30.5004         29.2504
  23385164.1614   -3574462.36946  -2680569.04146                  23385172.0634
        12.5004         12.2504
  23627069.8104   -2284460.69046  -1713339.38046                  23627076.9504
        13.7504         13.7504
  23510856.6384    7526514.34346   5825146.71646                  23510863.9894
        14.2504         14.5004
 02  7  8 15 28 15.0010000  0  9G 6G10G15G17G18G23G26G29G30
  20666075.6384     949647.89448    739984.18347                  20666080.7594
        29.2504         26.7504
  23244580.5444    6548211.64046   5054515.96946                  23244587.4744
        16.7504         16.7504
  21973721.1694   -2682678.35647  -2090397.90446                  21973727.1344
        24.0004         23.0004
  21473909.2864   -1406140.77847  -1095693.78647                  21473915.4274
        25.5004         27.2504
  23074212.0444   -5193783.44246  -4047099.20246                  23074217.9854
        18.7504         17.7504
  21173395.9114    1263110.77348    984610.13947                  21173401.9464
        29.7504         29.2504
  23380779.4894   -3597507.35846  -2698526.12146                  23380786.8644
        13.0004         12.0004
  23624835.6854   -2296198.23246  -1722485.47746                  23624843.1774
        13.0004         13.7504
  23523199.6614    7591373.51446   5875686.26646                  23523207.7864
        14.7504         14.5004
 02  7  8 15 28 30.0010000  0  9G 6G10G15G17G18G23G26G29G30
  20668990.3564     964965.27948    751919.79247                  20668995.6884
        29.2504         27.0004
  23255788.6854    6607108.64046   5100409.70346                  23255795.3764
        17.0004         16.7504
  21970560.1614   -2699287.62747  -2103340.19146                  21970566.2674
        23.2504         23.2504
  21472686.7164   -1412566.72047  -1100701.01047                  21472692.7394
        25.5004         27.2504
  23067174.5994   -5230766.49846  -4075917.12646                  23067180.4234
        19.2504         18.0004
  21177131.4584    1282737.93648    999904.02847                  21177137.4234
        30.5004         29.2504
  23376414.5134   -3620444.71046  -2716399.35146                  23376422.1464
        12.7504         12.0004
  23622623.8174   -2307821.63346  -1731542.62946                  23622631.7554
        12.7504         13.7504
  23535550.1144    7656276.38246   5926259.85146                  23535557.5834
        14.5004         15.0004
 02  7  8 15 28 45.0010000  0  9G 6G10G15G17G18G23G26G29G30
  20671929.2554     980407.99548    763953.05747                  20671934.5874
        29.5004         27.0004
  23267012.6854    6666090.88346   5146369.86946                  23267019.5674
        17.0004         16.7504
  21967413.7864   -2715821.24647  -2116223.52446                  21967419.7744
        23.0004         23.2504
  21471477.7084   -1418919.07947  -1105650.90647                  21471483.6734
        25.5004         27.2504
  23060152.2394   -5267667.29746  -4104670.97946                  23060158.0994
        19.0004         17.7504
  21180893.7314    1302509.23248   1015310.22347                  21180899.7904
        30.5004         29.0004
  23372069.8334   -3643270.20246  -2734185.41246                  23372077.0794
        12.2504         12.2504
  23620434.2634   -2319326.80846  -1740507.64646                  23620442.0714
        13.0004         13.7504
  23547909.3024    7721226.48846   5976870.25346                  23547917.1344
        14.2504         14.7504
 02  7  8 15 29  0.0010000  0  9G 6G10G15G17G18G23G26G29G30
  20674891.3644     995974.33748    776082.66247                  20674896.5914
        29.5004         27.0004
  23278252.4274    6725156.23046   5192394.78746                  23278258.8844
        16.5004         16.5004
  21964281.5214   -2732280.90247  -2129049.22646                  21964287.5794
        23.0004         23.2504
  21470282.4664   -1425199.80847  -1110544.97147                  21470288.4784
        25.2504         27.5004
  23053145.6614   -5304487.43346  -4133361.95746                  23053151.4384
        18.7504         17.7504
  21184683.1384    1322422.68148   1030827.19047                  21184689.1494
        30.5004         29.0004
  23367747.8804   -3665985.24846  -2751885.39545                  23367755.1264
        12.2504         11.7504
  23618267.3414   -2330715.16846  -1749381.65946                  23618274.3644
        13.2504         13.5004
  23560277.4894    7786221.61946   6027515.73446                  23560285.6264
        13.2504         14.5004
 02  7  8 15 29 15.0010000  0  9G 6G10G15G17G18G23G26G29G30
  20677877.3254    1011664.37348    788308.65247                  20677882.9854
        29.5004         27.0004
  23289507.7244    6784304.30846   5238484.16746                  23289514.3684
        16.7504         16.2504
  21961163.8174   -2748666.67047  -2141817.34846                  21961169.8064
        23.2504         23.2504
  21469101.1144   -1431408.86747  -1115383.19647                  21469107.1854
        25.5004         27.2504
  23046154.8724   -5341226.65246  -4161989.88046                  23046160.7314
        19.5004         17.7504
  21188499.7394    1342478.10248   1046454.78647                  21188505.6574
        31.2504         29.0004
  23363447.0284   -3688589.45446  -2769499.01946                  23363455.9744
        12.7504         12.2504
  23616122.2714   -2341986.53446  -1758164.50346                  23616129.4934
        13.2504         13.5004
  23572654.4584    7851261.32546   6078195.93846                  23572662.4194
        14.0004         14.5004
 02  7  8 15 29 30.0010000  0  9G 6G10G15G17G18G23G26G29G30
  20680886.2864    1027478.20948    800631.10947                  20680891.6184
        29.2504         27.0004
  23300779.1614    6843534.70846   5284637.70346                  23300785.9814
        16.5004         16.5004
  21958059.9894   -2764978.55547  -2154527.90446                  21958066.0014
        24.2504         23.7504
  21467933.1224   -1437546.26447  -1120165.58147                  21467939.0874
        25.7504         27.2504
  23039178.7714   -5377884.77646  -4190554.62546                  23039184.7004
        18.5004         17.7504
  21192342.9504    1362675.35448   1062192.89947                  21192348.8684
        30.7504         29.0004
  23359166.9424   -3711082.37446  -2787025.92046                  23359174.5874
        13.0004         12.0004
  23614000.2084   -2353140.63446  -1766855.98746                  23614007.6424
        13.7504         13.5004
  23585040.2084    7916345.29146   6128910.64446                  23585047.6304
        14.0004         14.5004
 02  7  8 15 29 45.0010000  0  9G 6G10G15G17G18G23G26G29G30
  20683919.6384    1043418.78448    813052.32647                  20683925.1104
        29.0004         27.0004
  23312066.5834    6902849.92446   5330857.33046                  23312073.3334
        16.5004         16.0004
  21954970.1854   -2781213.70547  -2167178.67146                  21954976.1144
        23.2504         23.2504
  21466779.0914   -1443609.30947  -1124890.03247                  21466785.0674
        25.2504         27.5004
  23032218.8334   -5414458.80446  -4219053.81246                  23032224.8454
        18.2504         18.0004
  21196213.7864    1383017.14248   1078043.63147                  21196219.7514
        30.5004         29.0004
  23354907.6144   -3733460.89546  -2804463.66946                  23354914.8494
        12.7504         12.7504
  23611899.8334   -2364174.31046  -1775453.62646                  23611906.5244
        13.2504         13.5004
  23597433.2714    7981475.93846   6179661.72746                  23597440.0214
        13.2504         14.0004
 02  7  8 15 30  0.0010000  0  9G 6G10G15G17G18G23G26G29G30
  20686976.9744    1059484.41748    825570.98447                  20686982.3064
        29.5004         27.0004
  23323369.6774    6962247.88446   5377141.42146                  23323376.5954
        16.5004         16.0004
  21951895.1304   -2797373.78647  -2179770.93346                  21951901.1884
        23.7504         23.5004
  21465639.4194   -1449599.59947  -1129557.78747                  21465645.3494
        25.7504         27.7504
  23025274.8964   -5450949.95546  -4247488.44246                  23025281.0134
        19.2504         18.2504
  21200111.9354    1403501.60648   1094005.54547                  21200117.8414
        30.5004         29.0004
  23350670.9664   -3755726.28946  -2821813.27446                  23350677.8104
        12.7504         12.2504
  23609824.1774   -2375089.05746  -1783958.56846                  23609831.0604
        14.2504         13.5004
  23609836.6924    8046651.26246   6230447.60946                  23609844.0214
        13.5004         13.7504
 02  7  8 15 30 15.0010000  0  9G 6G10G15G17G18G23G26G29G30
  20690057.8724    1075674.04648    838186.26947                  20690063.1924
        30.0004         27.2504
  23334688.2554    7021726.99446   5423488.75346                  23334694.7124
        16.7504         15.2504
  21948833.8414   -2813460.06747  -2192305.70346                  21948839.8414
        23.5004         23.5004
  21464513.0284   -1455518.46847  -1134169.89647                  21464519.0174
        25.7504         27.5004
  23018345.6464   -5487359.29546  -4275859.33346                  23018351.5174
        18.2504         18.0004
  21204036.9504    1424127.40148   1110077.58547                  21204042.8564
        30.7504         29.0004
  23346455.6774   -3777879.27346  -2839075.28946                  23346463.1464
        13.2504         12.5004
  23607768.5914   -2385885.77846  -1792371.56746                  23607775.6854
        13.5004         14.0004
  23622246.3644    8111869.50446   6281266.94646                  23622254.2084
        12.7504         13.5004
 02  7  8 15 30 30.0010000  0  9G 6G10G15G17G18G23G26G29G30
  20693162.8254    1091989.95348    850899.94947                  20693168.2744
        29.7504         27.2504
  23346022.2864    7081289.18146   5469900.81946                  23346029.3564
        16.5004         16.2504
  21945787.0604   -2829470.36747  -2204781.26246                  21945793.1884
        23.0004         23.5004
  21463400.5134   -1461363.64647  -1138724.58447                  21463406.4314
        25.5004         27.5004
  23011433.7394   -5523684.35246  -4304164.51946                  23011439.5054
        19.2504         18.0004
  21207988.9894    1444896.56148   1126261.34147                  21207995.0484
        30.5004         29.2504
  23342261.1064   -3799917.33546  -2856247.74646                  23342268.8334
        12.5004         12.5004
  23605737.2164   -2396561.93046  -1800690.60746                  23605744.4274
        13.5004         13.7504
  23634664.9744    8177132.76945   6332121.36846                  23634672.2554
        11.7504         13.5004
 02  7  8 15 30 45.0010000  0  9G 6G10G15G17G18G23G26G29G30
  20696291.0604    1108430.08848    863710.43247                  20696296.2984
        30.0004         27.2504
  23357371.8494    7140931.87846   5516375.62246                  23357378.5174
        16.2504         15.7504
  21942754.9194   -2845406.72347  -2217199.19146                  21942761.0714
        24.0004         23.5004
  21462302.2554   -1467137.33347  -1143223.55847                  21462308.2084
        26.0004         27.7504
  23004537.3104   -5559927.00546  -4332405.52446                  23004543.1814
        19.2504         18.0004
  21211968.0054    1465806.78748   1142555.01547                  21211973.8534
        30.0004         29.2504
  23338089.7244   -3821842.17446  -2873331.98046                  23338097.6144
        13.0004         12.7504
  23603727.7314   -2407119.40546  -1808917.16646                  23603734.3414
        13.0004         14.0004
  23647093.0994    8242438.42545   6383008.80246                  23647100.9894
        11.7504         12.7504
 02  7  8 15 31  0.0010000  0  9G 6G10G15G17G18G23G26G29G30
  20699443.6774    1124997.08948    876619.77447                  20699448.8804
        30.0004         27.2504
  23368737.4894    7200657.32346   5562914.90346                  23368743.7714
        16.5004         15.2504
  21939736.6144   -2861266.66347  -2229557.57946                  21939742.6854
        23.5004         23.5004
  21461217.2944   -1472837.01547  -1147664.87747                  21461223.2124
        25.2504         27.7504
  22997656.5054   -5596084.49446  -4360580.15746                  22997662.3414
        18.7504         18.0004
  21215974.7314    1486860.42448   1158960.43747                  21215980.6384
        30.5004         29.2504
  23333940.1064   -3843650.85446  -2890325.69646                  23333947.8684
        13.5004         12.5004
  23601741.6614   -2417555.45146  -1817049.11746                  23601749.3534
        13.2504         14.2504
  23659529.2864    8307788.66446   6433930.97546                  23659537.0014
        12.2504         13.0004
 02  7  8 15 31 15.0010000  0  9G 6G10G15G17G18G23G26G29G30
  20702620.1854    1141690.18948    889627.37047                  20702625.4234
        29.5004         27.2504
  23380118.2714    7260464.41746   5609517.81546                  23380125.0914
        16.2504         15.7504
  21936732.8414   -2877051.00047  -2241857.06146                  21936738.9114
        23.2504         23.5004
  21460146.6854   -1478463.67547  -1152049.28647                  21460152.6264
        25.5004         27.5004
  22990791.8964   -5632157.38046  -4388688.84946                  22990797.7434
        19.2504         17.7504
  21220007.9424    1508056.38248   1175476.76347                  21220013.8964
        30.5004         29.2504
  23329810.8884   -3865343.92446  -2907229.32946                  23329818.2284
        13.2504         12.7504
  23599778.9974   -2427870.60646  -1825086.85246                  23599786.4424
        13.5004         14.2504
  23671973.9034    8373182.13046   6484886.87146                  23671981.3844
        13.2504         12.7504
 02  7  8 15 31 30.0010000  0  9G 6G10G15G17G18G23G26G29G30
  20705820.7634    1158508.96848    902732.89947                  20705826.0954
        29.5004         27.2504
  23391514.3414    7320352.19246   5656183.57546                  23391521.3414
        16.2504         16.0004
  21933743.7004   -2892760.08047  -2254097.90746                  21933749.7594
        23.7504         23.7504
  21459089.8254   -1484017.64447  -1156377.06347                  21459095.7204
        25.5004         27.5004
  22983943.5674   -5668145.93046  -4416731.83846                  22983949.6144
        18.7504         17.5004
  21224068.3564    1529394.09148   1192103.54147                  21224074.2744
        30.2504         29.0004
  23325705.2864   -3886921.40146  -2924042.88646                  23325712.2634
        13.2504         12.7504
  23597839.9114   -2438065.10846  -1833030.59546                  23597847.5794
        14.5004         13.7504
  23684425.7084    8438618.08546   6535875.84346                  23684432.4814
        12.5004         13.5004
 02  7  8 15 31 45.0010000  0  9G 6G10G15G17G18G23G26G29G30
  20709045.3884    1175453.06948    915936.08347                  20709050.7084
        30.5004         27.2504
  23402926.5214    7380319.68846   5702911.47546                  23402933.0954
        16.7504         15.5004
  21930768.5994   -2908394.47347  -2266280.54246                  21930774.6924
        24.0004         24.0004
  21458046.7474   -1489499.59647  -1160648.71347                  21458052.6884
        25.5004         27.5004
  22977111.4034   -5704050.50446  -4444709.39246                  22977117.1464
        19.2504         18.0004
  21228155.7864    1550872.86948   1208840.24647                  21228161.7164
        30.5004         29.0004
  23321622.0444   -3908383.40246  -2940766.46446                  23321629.5134
        14.0004         13.0004
  23595922.2634   -2448139.02846  -1840880.36846                  23595929.2394
        14.0004         13.7504
  23696884.6774    8504095.59046   6586897.17546                  23696891.2984
        12.0004         12.5004
 02  7  8 15 32  0.0010000  0  9G 6G10G15G17G18G23G26G29G30
  20712293.6064    1192522.82748    929237.18247                  20712298.8454
        30.2504         27.2504
  23414352.5604    7440366.95246   5749701.52346                  23414359.4544
        16.0004         15.7504
  21927807.7714   -2923954.00847  -2278404.85146                  21927813.7244
        24.2504         23.7504
  21457017.4664   -1494909.18547  -1164863.96847                  21457023.4424
        25.5004         27.5004
  22970294.9354   -5739870.50346  -4472621.04346                  22970301.3104
        19.2504         18.0004
  21232269.8644    1572492.84548   1225686.97047                  21232275.8174
        30.5004         29.0004
  23317559.0284   -3929729.26346  -2957399.53846                  23317566.7314
        13.0004         12.7504
  23594028.3104   -2458092.04546  -1848635.94046                  23594035.0364
        14.0004         13.7504
  23709353.2784    8569614.58946   6637950.85646                  23709360.0054
        12.2504         12.5004
 02  7  8 15 32 15.0010000  0  9G 6G10G15G17G18G23G26G29G30
  20715566.0364    1209720.21848    942637.73447                  20715571.0994
        30.0004         27.2504
  23425794.4814    7500495.45446   5796554.87246                  23425801.5524
        16.0004         15.7504
  21924861.1614   -2939436.68547  -2290469.26846                  21924867.1734
        23.5004         23.5004
  21456002.0444   -1500244.57647  -1169021.41447                  21456008.0674
        25.5004         27.2504
  22963495.0214   -5775603.62646  -4500465.00246                  22963501.3254
        19.2504         18.2504
  21236411.1144    1594255.74148   1242645.06347                  21236417.0564
        30.5004         29.2504
  23313519.2554   -3950956.69946  -2973940.33646                  23313526.6304
        13.0004         12.7504
  23592157.4504   -2467921.86746  -1856295.52146                  23592164.4034
        13.5004         13.7504
  23721829.2634    8635176.65146   6689038.10046                  23721836.2044
        12.7504         12.5004
 02  7  8 15 32 30.0010000  0  9G 6G10G15G17G18G23G26G29G30
  20718862.9504    1227044.93048    956137.50247                  20718868.2474
        30.0004         27.2504
  23437252.2394    7560704.47146   5843470.96846                  23437259.0604
        16.5004         15.7504
  21921929.5754   -2954842.94747  -2302474.14946                  21921935.6464
        24.0004         23.5004
  21455000.3024   -1505506.24847  -1173121.41447                  21455006.2314
        25.2504         27.2504
  22956711.4034   -5811250.23446  -4528241.54146                  22956717.2744
        19.0004         18.2504
  21240579.4664    1616161.02648   1259714.10347                  21240585.3844
        30.0004         29.2504
  23309503.3414   -3972065.70546  -2990388.85546                  23309511.2674
        13.5004         13.0004
  23590310.2474   -2477628.61946  -1863859.18146                  23590317.5174
        13.5004         14.0004
  23734313.7474    8700780.95146   6740158.25346                  23734320.1344
        12.7504         12.2504
 02  7  8 15 32 45.0010000  0  9G 6G10G15G17G18G23G26G29G30
  20722183.7474    1244496.40748    969736.04047                  20722188.8804
        29.7504         27.2504
  23448724.6614    7620993.02946   5890449.03846                  23448731.0954
        16.2504         15.7504
  21919012.3334   -2970173.47747  -2314420.01746                  21919018.3214
        24.0004         23.7504
  21454013.1224   -1510694.84947  -1177164.47447                  21454019.0524
        25.0004         27.2504
  22949944.4504   -5846810.68346  -4555950.94446                  22949950.3684
        19.5004         18.5004
  21244775.1144    1638207.85948   1276893.44647                  21244781.0094
        30.5004         29.2504
  23305507.3964   -3993056.58246  -3006745.30946                  23305516.0014
        13.0004         13.2504
  23588486.4274   -2487212.78046  -1871327.33946                  23588493.4854
        14.0004         14.2504
  23746805.8254    8766426.42046   6791310.49246                  23746813.0834
        13.5004         12.7504
 02  7  8 15 33  0.0010000  0  9G 6G10G15G17G18G23G26G29G30
  20725528.8724    1262074.23748    983433.03747                  20725534.2284
        30.0004         27.5004
  23460212.3494    7681360.31046   5937488.44246                  23460219.1464
        16.2504         15.2504
  21916109.2554   -2985428.66847  -2326307.17746                  21916115.2674
        23.7504         24.0004
  21453039.5674   -1515810.94147  -1181151.04547                  21453045.4504
        25.0004         27.2504
  22943194.2084   -5882285.20846  -4583593.39646                  22943199.9744
        19.7504         18.5004
  21248997.1534    1660395.62748   1294182.60247                  21249003.0364
        30.2504         29.2504
  23301535.8494   -4013929.44546  -3023009.82646                  23301544.1854
        13.5004         13.0004
  23586686.3964   -2496674.51346  -1878700.08546                  23586692.8414
        14.2504         14.0004
  23759305.2944    8832112.30146   6842494.21146                  23759311.6104
        13.2504         12.7504
 02  7  8 15 33 15.0010000  0  9G 6G10G15G17G18G23G26G29G30
  20728897.9274    1279780.57548    997230.17347                  20728903.2594
        29.7504         27.5004
  23471715.4424    7741808.00646   5984590.52146                  23471721.9704
        16.7504         15.2504
  21913220.8884   -3000606.44347  -2338134.00746                  21913226.9354
        23.5004         23.7504
  21452080.5994   -1520852.40247  -1185079.45847                  21452086.5874
        25.7504         27.5004
  22936460.3644   -5917671.53546  -4611167.12246                  22936466.1424
        19.7504         18.2504
  21253246.4354    1682726.13348   1311582.99047                  21253252.4234
        30.2504         29.0004
  23297586.4504   -4034681.85646  -3039180.47146                  23297593.8604
        13.2504         13.0004
  23584908.8644   -2506011.51146  -1885975.64146                  23584915.6494
        14.0004         14.2504
  23771813.0364    8897840.19646   6893710.66946                  23771820.0604
        13.2504         13.0004
 02  7  8 15 33 30.0010000  0  9G 6G10G15G17G18G23G26G29G30
  20732291.8804    1297613.35848   1011125.83947                  20732297.1304
        30.2504         27.5004
  23483233.4424    7802333.45646   6031753.20146                  23483240.1224
        16.7504         15.7504
  21910347.2004   -3015709.07147  -2349902.28846                  21910353.0834
        23.7504         23.5004
  21451134.7084   -1525821.56847  -1188951.54047                  21451140.7904
        25.0004         27.5004
  22929742.7084   -5952971.51646  -4638673.57446                  22929748.6854
        19.5004         18.2504
  21257522.5914    1705197.04148   1329092.78247                  21257528.5674
        30.0004         29.0004
  23293660.0284   -4055315.53746  -3055258.60946                  23293667.4854
        13.0004         13.0004
  23583156.0444   -2515225.66846  -1893155.46646                  23583162.8064
        14.2504         14.5004
  23784327.8024    8963607.54646   6944957.87646                  23784334.3764
        13.2504         12.7504
 02  7  8 15 33 45.0010000  0  9G 6G10G15G17G18G23G26G29G30
  20735709.8724    1315575.42448   1025122.24047                  20735715.1924
        30.2504         27.5004
  23494765.7394    7862939.24046   6078978.45046                  23494773.1494
        16.7504         15.7504
  21907487.8024   -3030733.64147  -2361609.74246                  21907493.8374
        23.7504         24.0004
  21450203.7944   -1530715.48947  -1192764.98147                  21450209.7124
        25.5004         27.5004
  22923042.6304   -5988182.13746  -4666110.36646                  22923048.5244
        19.7504         19.0004
  21261826.0284    1727810.98448   1346714.02347                  21261831.7944
        30.0004         29.2504
  23289756.9744   -4075827.35846  -3071241.79346                  23289763.6884
        13.2504         12.7504
  23581426.5524   -2524313.87646  -1900237.16146                  23581433.4354
        14.2504         14.0004
  23796851.1224    9029416.79346   6996237.71846                  23796858.3454
        13.5004         12.7504
 02  7  8 15 34  0.0010000  0  9G 6G10G15G17G18G23G26G29G30
  20739151.6854    1333662.83948   1039216.31847                  20739157.0054
        30.0004         27.7504
  23506313.2864    7923620.90546   6126262.84046                  23506320.3104
        16.2504         15.2504
  21904643.3884   -3045684.20647  -2373259.52046                  21904649.3884
        25.0004         24.0004
  21449285.5054   -1535538.28147  -1196523.00247                  21449291.4464
        25.0004         27.2504
  22916358.4974   -6023307.26947  -4693480.56546                  22916364.2044
        20.0004         18.7504
  21266155.5914    1750563.79448   1364443.47847                  21266161.5564
        30.5004         29.0004
  23285876.8174   -4096220.95846  -3087132.84946                  23285884.5674
        13.5004         13.0004
  23579720.3724   -2533279.95646  -1907223.70046                  23579726.8174
        14.2504         14.2504
  23809381.5914    9095263.64346   7047546.86546                  23809388.8254
        13.7504         13.2504
 02  7  8 15 34 15.0010000  0  9G 6G10G15G17G18G23G26G29G30
  20742617.6534    1351876.77048   1053408.98447                  20742623.0794
        30.0004         27.7504
  23517875.7944    7984379.23246   6173606.96846                  23517882.6034
        16.2504         15.2504
  21901812.3024   -3060559.72647  -2384850.83446                  21901818.4194
        24.2504         24.0004
  21448381.8104   -1540288.87847  -1200224.76047                  21448387.8684
        25.2504         27.2504
  22909690.9274   -6058345.53147  -4720783.07446                  22909696.8564
        20.2504         18.7504
  21270511.9894    1773456.36048   1382281.83747                  21270517.9894
        30.2504         29.0004
  23282017.9354   -4116494.80146  -3102930.58546                  23282025.0994
        13.2504         13.2504
  23578037.6064   -2542122.52646  -1914113.98446                  23578044.9234
        14.0004         14.2504
  23821919.2394    9161148.66346   7098885.76746                  23821927.1884
        13.7504         13.2504
 02  7  8 15 34 30.0010000  0  9G 6G10G15G17G18G23G26G29G30
  20746107.5674    1370217.84148   1067700.70847                  20746112.8644
        29.7504         27.7504
  23529451.8104    8045214.39346   6221010.97346                  23529458.6304
        16.0004         15.5004
  21898995.8254   -3075359.63447  -2396383.22346                  21899001.8964
        23.7504         24.0004
  21447491.4664   -1544966.83747  -1203869.92647                  21447497.4424
        25.2504         27.2504
  22903039.5444   -6093296.06646  -4748017.22046                  22903045.3684
        19.7504         18.7504
  21274894.9974    1796489.08848   1400229.40547                  21274900.9384
        30.2504         29.0004
  23278183.7784   -4136647.90946  -3118634.23346                  23278191.3174
        14.0004         13.5004
  23576378.6854   -2550840.83546  -1920907.43746                  23576385.2004
        14.0004         13.7504
  23834464.0284    9227072.17946   7150254.65446                  23834471.2044
        13.2504         12.2504
 02  7  8 15 34 45.0010000  0  9G 6G10G15G17G18G23G26G29G30
  20749622.3174    1388686.87348   1082092.14647                  20749627.5674
        30.0004         27.7504
  23541043.2164    8106126.79746   6268475.15146                  23541050.0604
        16.5004         15.5004
  21896194.3414   -3090083.17547  -2407856.09846                  21896200.3534
        24.5004         24.0004
  21446615.0284   -1549571.40847  -1207457.90847                  21446620.9354
        24.7504         27.2504
  22896405.9584   -6128157.92347  -4775182.26746                  22896411.9704
        20.5004         19.0004
  21279305.0754    1819662.54248   1418286.63747                  21279310.9704
        30.7504         29.0004
  23274371.2164   -4156679.33146  -3134243.08746                  23274378.5094
        13.5004         13.2504
  23574743.4424   -2559433.81746  -1927603.25646                  23574750.2284
        14.5004         14.7504
  23847016.0754    9293034.53246   7201653.80745                  23847022.3924
        12.7504         11.7504
 02  7  8 15 35  0.0010000  0  9G 6G10G15G17G18G23G26G29G30
  20753161.2864    1407283.37448   1096582.92147                  20753166.6304
        30.2504         28.0004
  23552648.1384    8167115.57546   6315998.84946                  23552655.1264
        16.0004         15.5004
  21893407.0364   -3104730.93647  -2419269.93046                  21893413.0834
        25.0004         24.2504
  21445752.7394   -1554103.19247  -1210989.16547                  21445758.6464
        24.7504         27.0004
  22889788.6384   -6162931.38547  -4802278.44246                  22889794.4384
        20.2504         19.0004
  21283741.3414    1842976.01348   1436452.96947                  21283747.3644
        30.0004         29.0004
  23270583.0604   -4176589.13946  -3149757.15346                  23270590.5284
        14.0004         13.2504
  23573132.0674   -2567901.75046  -1934201.60946                  23573139.0564
        14.5004         14.5004
  23859576.2864    9359034.63546   7253082.39446                  23859583.4504
        13.7504         12.5004
 02  7  8 15 35 15.0010000  0  9G 6G10G15G17G18G23G26G29G30
  20756724.2944    1426008.87248   1111174.20447                  20756729.5914
        30.0004         28.0004
  23564268.7474    8228181.74546   6363582.85746                  23564275.3104
        15.7504         15.5004
  21890633.9354   -3119301.39147  -2430623.53046                  21890639.9584
        24.5004         24.2504
  21444904.4974   -1558560.74947  -1214462.58747                  21444910.5214
        24.7504         27.0004
  22883188.8724   -6197614.81947  -4829304.45646                  22883194.5914
        20.2504         19.2504
  21288204.3494    1866430.73448   1454729.36647                  21288210.3024
        30.0004         29.0004
  23266817.3964   -4196375.50146  -3165175.03546                  23266825.0524
        13.5004         13.0004
  23571544.3644   -2576242.99046  -1940701.26246                  23571551.0674
        14.5004         14.2504
  23872143.2314    9425073.73446   7304541.33146                  23872150.9814
        13.5004         12.7504
 02  7  8 15 35 30.0010000  0  9G 6G10G15G17G18G23G26G29G30
  20760311.3334    1444858.29648   1125862.06047                  20760316.7244
        30.0004         28.0004
  23575903.4114    8289319.93846   6411222.99246                  23575910.3534
        16.0004         15.2504
  21887875.0604   -3133799.72047  -2441920.92046                  21887881.0364
        24.5004         24.2504
  21444069.5364   -1562949.22247  -1217882.17747                  21444075.5714
        25.0004         27.0004
  22876604.8024   -6232213.13447  -4856264.14446                  22876610.5094
        20.5004         19.0004
  21292693.7164    1890021.40248   1473111.69847                  21292699.7514
        30.2504         29.0004
  23263073.6304   -4216043.18946  -3180500.44746                  23263080.2514
        12.7504         13.2504
  23569980.8804   -2584462.41446  -1947105.98246                  23569987.6654
        14.7504         14.7504
  23884715.9034    9491146.29146   7356026.36646                  23884723.5834
        13.0004         12.7504
 02  7  8 15 35 45.0010000  0  9G 6G10G15G17G18G23G26G29G30
  20763922.7394    1463836.09748   1140649.94047                  20763928.2714
        30.0004         27.7504
  23587552.3024    8350534.07146   6458922.29246                  23587559.5244
        16.0004         15.2504
  21885130.8724   -3148221.53447  -2453158.69846                  21885136.8024
        24.7504         24.0004
  21443248.1534   -1567264.25447  -1221244.55147                  21443254.1534
        24.7504         27.0004
  22870038.7084   -6266721.73347  -4883153.93046                  22870044.6614
        22.0004         19.7504
  21297209.4744    1913752.21848   1491603.23847                  21297215.3684
        30.2504         29.2504
  23259355.4424   -4235587.49046  -3195729.71046                  23259363.0404
        13.5004         13.0004
  23568440.1534   -2592555.35946  -1953412.13846                  23568446.3064
        14.0004         14.5004
  23897295.6144    9557256.29846   7407540.56146                  23897302.7904
        12.5004         12.2504
 02  7  8 15 36  0.0010000  0  9G 6G10G15G17G18G23G26G29G30
  20767558.7164    1482943.73848   1155538.99947                  20767564.3414
        30.0004         28.0004
  23599215.3964    8411825.09146   6506681.50246                  23599222.5604
        16.0004         15.2504
  21882401.2784   -3162565.39747  -2464335.74146                  21882407.3254
        24.5004         24.2504
  21442441.9424   -1571504.48047  -1224548.62747                  21442447.8844
        25.5004         26.7504
  22863488.5994   -6301139.01347  -4909972.56546                  22863494.5754
        21.0004         19.7504
  21301751.9274    1937624.34048   1510204.88047                  21301757.8684
        30.0004         29.0004
  23255659.6304   -4255006.64346  -3210861.47446                  23255666.7474
        13.7504         13.2504
  23566925.0054   -2600520.15446  -1959618.45246                  23566932.0404
        14.5004         14.5004
  23909884.0364    9623404.77446   7459084.74246                  23909891.6224
        12.2504         12.5004
 02  7  8 15 36 15.0010000  0  9G 6G10G15G17G18G23G26G29G30
  20771218.9354    1502176.53448   1170525.58547                  20771224.2904
        30.2504         28.0004
  23610892.3254    8473187.96046   6554496.69746                  23610898.4194
        15.5004         14.7504
  21879685.4814   -3176836.06947  -2475455.73446                  21879691.5174
        24.5004         24.5004
  21441647.4584   -1575674.81447  -1227798.23947                  21441653.4704
        24.2504         26.7504
  22856955.9584   -6335469.42547  -4936723.49046                  22856961.5954
        21.2504         19.5004
  21306320.8104    1961632.82448   1528912.78547                  21306326.8104
        30.2504         28.7504
  23251987.8644   -4274304.99846  -3225899.10446                  23251994.6144
        14.0004         13.5004
  23565432.9194   -2608361.39246  -1965728.48646                  23565440.5284
        14.7504         14.2504
  23922477.7004    9689586.59545   7510654.90246                  23922486.5054
        11.7504         12.5004
 02  7  8 15 36 30.0010000  0  9G 6G10G15G17G18G23G26G29G30
  20774903.0674    1521537.72948   1185612.21747                  20774908.4114
        30.2504         28.0004
  23622583.8254    8534625.55646   6602370.13046                  23622590.4464
        15.5004         14.7504
  21876984.5524   -3191030.37747  -2486516.23346                  21876990.4464
        25.0004         24.5004
  21440868.1774   -1579771.98547  -1230990.84447                  21440874.1884
        24.7504         26.7504
  22850439.5604   -6369709.45647  -4963404.00146                  22850446.0634
        20.0004         19.5004
  21310916.0284    1985780.65548   1547729.26947                  21310921.8884
        30.2504         29.0004
  23248338.9584   -4293478.96046  -3240839.78846                  23248347.1884
        13.5004         13.5004
  23563964.3334   -2616075.63646  -1971739.55346                  23563971.3334
        14.2504         14.5004
  23935079.4974    9755804.51846   7562253.19546                  23935087.1654
        12.5004         12.5004
 02  7  8 15 36 45.0010000  0  9G 6G10G15G17G18G23G26G29G30
  20778612.1144    1541027.47048   1200799.02247                  20778617.5634
        30.5004         28.0004
  23634289.1854    8596137.54646   6650301.51046                  23634296.7714
        15.7504         14.7504
  21874297.6854   -3205148.36747  -2497517.25446                  21874303.5674
        24.2504         24.2504
  21440102.3644   -1583795.89047  -1234126.36547                  21440108.3884
        25.0004         26.5004
  22843941.5284   -6403858.90547  -4990013.92546                  22843947.4814
        20.2504         19.5004
  21315537.8024    2010067.80048   1566654.30847                  21315543.8964
        30.2504         29.0004
  23244714.0834   -4312528.05946  -3255683.18546                  23244721.7744
        13.7504         13.7504
  23562520.6144   -2623662.60046  -1977651.44846                  23562527.3994
        14.0004         14.5004
  23947687.0834    9822058.27045   7613879.38646                  23947694.9384
        11.7504         12.2504
 02  7  8 15 37  0.0010000  0  9G 6G10G15G17G18G23G26G29G30
  20782344.9894    1560644.29148   1216084.84747                  20782350.2394
        30.7504         28.2504
  23646008.1854    8657722.03246   6698289.41046                  23646014.9814
        15.2504         14.7504
  21871625.4034   -3219191.51847  -2508459.96346                  21871631.4274
        24.5004         24.2504
  21439350.3724   -1587748.34147  -1237206.19547                  21439356.3964
        24.7504         26.7504
  22837459.7244   -6437919.18947  -5016554.37446                  22837465.6534
        20.2504         19.5004
  21320185.7474    2034492.44048   1585686.49147                  21320191.6424
        30.0004         29.0004
  23241112.6614   -4331453.58446  -3270430.29646                  23241120.6464
        13.5004         13.2504
  23561101.5284   -2631123.43246  -1983465.06146                  23561108.6104
        14.7504         14.5004
  23960300.9744    9888345.99045   7665532.06545                  23960307.3374
        11.2504         11.2504
 02  7  8 15 37 15.0010000  0  9G 6G10G15G17G18G23G26G29G30
  20786102.3804    1580389.21248   1231470.48947                  20786107.7594
        30.7504         28.2504
  23657741.4274    8719379.56746   6746334.21746                  23657748.1534
        15.5004         14.5004
  21868967.9114   -3233158.81747  -2519343.56646                  21868973.9934
        25.0004         24.7504
  21438612.0054   -1591628.15647  -1240229.42947                  21438617.9934
        24.5004         26.5004
  22830995.8024   -6471888.91047  -5043024.26346                  22831001.6964
        21.0004         19.7504
  21324859.9354    2059055.32448   1604826.39647                  21324865.9234
        30.2504         29.0004
  23237534.7084   -4350254.16946  -3285080.06046                  23237541.6144
        14.0004         13.5004
  23559705.2864   -2638457.02246  -1989179.53546                  23559712.2984
        14.2504         14.2504
  23972921.9504    9954668.18245   7717211.59945                  23972929.8534
        11.2504         11.2504
 02  7  8 15 37 30.0010000  0  9G 6G10G15G17G18G23G26G29G30
  20789884.2474    1600262.52848   1246956.17847                  20789889.6614
        31.0004         28.2504
  23669488.3964    8781110.21246   6794435.99546                  23669495.0054
        15.0004         14.7504
  21866324.3494   -3247050.09847  -2530167.94446                  21866330.4194
        24.5004         24.5004
  21437887.7474   -1595435.20547  -1243195.95847                  21437893.6884
        24.7504         26.7504
  22824549.1534   -6505767.67947  -5069423.26346                  22824554.9894
        21.7504         20.2504
  21329560.2864    2083756.52948   1624074.08047                  21329566.1464
        30.2504         29.0004
  23233980.8254   -4368929.13846  -3299631.93346                  23233987.9544
        13.2504         13.5004
  23558334.2634   -2645662.90946  -1994794.48346                  23558340.8024
        14.7504         14.7504
  23985548.8334   10021024.79045   7768917.95146                  23985556.5954
        11.0004         12.2504
 02  7  8 15 37 45.0010000  0  9G 6G10G15G17G18G23G26G29G30
  20793690.4664    1620265.78048   1262543.11847                  20793695.9154
        30.5004         28.5004
  23681249.5214    8842914.97546   6842595.52946                  23681256.5794
        15.0004         14.7504
  21863695.8024   -3260863.90747  -2540931.94246                  21863701.8964
        25.0004         24.7504
  21437177.3174   -1599168.06447  -1246104.68647                  21437183.2354
        25.0004         26.5004
  22818119.5444   -6539553.75247  -5095750.05146                  22818125.4274
        21.0004         20.0004
  21334287.3174    2108597.32148   1643430.54047                  21334293.1654
        30.2504         29.0004
  23230451.5364   -4387476.64546  -3314084.47446                  23230459.1464
        13.5004         13.2504
  23556987.7784   -2652739.30146  -2000308.54746                  23556994.6614
        14.7504         15.0004
  23998183.1304   10087416.90345   7820651.94745                  23998190.6814
        11.0004         11.5004
 02  7  8 15 38  0.0010000  0  9G 6G10G15G17G18G23G26G29G30
  20797521.3334    1640395.29948   1278228.44647                  20797526.7124
        31.0004         28.5004
  23693023.9664    8904789.71446   6890809.58746                  23693030.9784
        15.2504         14.7504
  21861080.9974   -3274603.98447  -2551638.49646                  21861087.0214
        25.2504         24.7504
  21436480.3414   -1602830.57347  -1248958.58847                  21436486.3174
        24.7504         26.5004
  22811707.3884   -6573250.73147  -5122007.39746                  22811713.2354
        21.0004         19.7504
  21339040.3174    2133573.72548   1662892.66647                  21339046.2124
        30.2504         29.0004
  23226946.2394   -4405900.10646  -3328440.38446                  23226953.8494
        14.2504         13.2504
  23555664.9194   -2659689.75846  -2005724.45946                  23555671.7904
        14.7504         14.5004
  24010823.2314   10153840.34745   7872410.38045                  24010830.0524
        10.7504         11.5004
 02  7  8 15 38 15.0010000  0  9G 6G10G15G17G18G23G26G29G30
  20801376.1304    1660653.28748   1294013.87747                  20801381.4974
        30.7504         28.7504
  23704811.1854    8966736.34746   6939079.65746                  23704818.5244
        14.2504         14.5004
  21858480.7474   -3288268.07047  -2562285.83646                  21858486.7244
        24.5004         24.5004
  21435797.1384   -1606420.55847  -1251755.97447                  21435803.0794
        24.5004         26.5004
  22805312.2784   -6606856.26547  -5148193.50846                  22805318.0564
        21.7504         20.0004
  21343819.2164    2158687.76048   1682462.04247                  21343825.1574
        30.0004         29.0004
  23223463.0834   -4424197.01846  -3342697.67546                  23223470.7984
        13.2504         13.2504
  23554366.8564   -2666511.83446  -2011040.32046                  23554373.7864
        14.5004         14.7504
  24023469.1924   10220297.02545   7924194.70045                  24023476.3104
        10.7504         11.0004
 02  7  8 15 38 30.0010000  0  9G 6G10G15G17G18G23G26G29G30
  20805255.7004    1681040.24148   1309899.80447                  20805261.1264
        31.0004         28.7504
  23716612.2634    9028754.83546   6987405.74246                  23716619.6264
        13.5004         13.7504
  21855894.9354   -3301855.79447  -2572873.66046                  21855901.0994
        24.2504         24.5004
  21435127.7394   -1609937.56847  -1254496.50747                  21435133.7514
        24.5004         26.7504
  22798935.1854   -6640369.62647  -5174307.78946                  22798940.7984
        21.7504         20.0004
  21348624.3334    2183939.65448   1702138.83747                  21348630.3214
        29.5004         29.0004
  23220005.8024   -4442366.62046  -3356855.75346                  23220013.4704
        13.2504         13.5004
  23553092.9974   -2673204.89446  -2016255.67346                  23553099.9034
        14.5004         15.0004
  24036122.1224   10286786.79945   7976004.81345                  24036128.8494
        11.0004         11.2504
 02  7  8 15 38 45.0010000  0  9G 6G10G15G17G18G23G26G29G30
  20809159.6534    1701557.61148   1325887.35047                  20809165.0324
        30.7504         29.0004
  23728428.3494    9090846.21746   7035788.61446                  23728435.0874
        14.0004         14.0004
  21853324.3104   -3315365.79347  -2583400.91846                  21853330.3214
        25.0004         25.0004
  21434472.5284   -1613380.28647  -1257179.14147                  21434478.4464
        24.7504         26.7504
  22792575.1614   -6673789.22947  -5200349.01746                  22792580.7634
        21.2504         20.0004
  21353456.3104    2209330.63448   1721924.01447                  21353462.2514
        30.0004         29.0004
  23216573.4504   -4460407.13146  -3370913.24646                  23216581.4234
        13.5004         13.5004
  23551844.4354   -2679767.28546  -2021369.19546                  23551851.3174
        14.7504         14.7504
  24048781.5054   10353310.81445   8027841.60045                  24048787.5404
        11.2504         11.5004
 02  7  8 15 39  0.0010000  0  9G 6G10G15G17G18G23G26G29G30
  20813088.5214    1722203.16048   1341974.78347                  20813094.0284
        30.7504         29.0004
  23740258.1534    9153007.83646   7084226.21846                  23740264.7044
        14.7504         14.5004
  21850768.0134   -3328800.30247  -2593869.37146                  21850774.0244
        25.0004         24.7504
  21433831.2784   -1616751.03347  -1259805.69647                  21433837.2084
        24.5004         26.5004
  22786233.1854   -6707117.10447  -5226318.75446                  22786238.9624
        21.2504         20.5004
  21358314.0214    2234858.22248   1741815.64147                  21358319.9034
        30.0004         28.7504
  23213164.9974   -4478320.43146  -3384871.62646                  23213172.1614
        14.0004         13.5004
  23550619.8174   -2686201.05446  -2026382.50346                  23550626.7474
        14.5004         14.5004
  24061446.4664   10419866.48445   8079703.06945                  24061453.2394
        11.5004         11.0004
 02  7  8 15 39 15.0010000  0  9G 6G10G15G17G18G23G26G29G30
  20817041.8644    1742978.44048   1358163.29947                  20817047.2554
        30.7504         29.0004
  23752100.7164    9215240.86246   7132719.45646                  23752108.1034
        14.7504         14.5004
  21848225.9354   -3342157.86047  -2604277.85846                  21848232.0994
        24.7504         25.0004
  21433203.9974   -1620048.32847  -1262375.01447                  21433209.8454
        25.0004         26.7504
  22779909.4114   -6740351.54147  -5252215.69146                  22779915.3534
        21.5004         20.2504
  21363198.0674    2260523.69348   1761814.70247                  21363203.9854
        30.2504         29.0004
  23209779.6304   -4496104.74746  -3398729.48346                  23209787.4854
        13.2504         13.5004
  23549420.2084   -2692504.50346  -2031294.25546                  23549427.1144
        14.5004         14.7504
  24074116.9584   10486454.74645   8131589.91745                  24074124.7084
        10.5004         11.2504
 02  7  8 15 39 30.0010000  0  9G 6G10G15G17G18G23G26G29G30
  20821020.4584    1763883.34848   1374452.82847                  20821025.7904
        31.2504         29.0004
  23763955.7634    9277544.90346   7181268.03246                  23763962.5834
        14.0004         14.0004
  21845698.6144   -3355438.69747  -2614626.56146                  21845704.6034
        24.7504         24.7504
  21432590.5994   -1623272.42647  -1264887.30247                  21432596.6694
        25.0004         26.5004
  22773602.1464   -6773492.36347  -5278039.68046                  22773608.0054
        20.7504         19.7504
  21368108.1534    2286326.69348   1781920.93847                  21368114.1304
        30.2504         29.0004
  23206419.8494   -4513759.74946  -3412486.58446                  23206426.6814
        13.5004         13.5004
  23548245.6304   -2698677.55046  -2036104.40146                  23548252.1694
        14.5004         14.5004
  24086795.0754   10553075.27645   8183501.89445                  24086802.7904
        11.5004         11.5004
 02  7  8 15 39 45.0010000  0  9G 6G10G15G17G18G23G26G29G30
  20825022.7084    1784916.78948   1390842.51147                  20825028.1694
        31.2504         29.0004
  23775825.3414    9339918.42346   7229870.75346                  23775832.7744
        14.0004         13.7504
  21843185.8804   -3368643.93447  -2624916.35046                  21843191.9624
        24.7504         24.7504
  21431990.9034   -1626424.48947  -1267343.45047                  21431996.7284
        25.0004         26.5004
  22767313.5754   -6806540.63447  -5303791.54846                  22767319.4704
        21.5004         19.5004
  21373043.9584    2312265.84948   1802133.25847                  21373049.8764
        29.7504         29.0004
  23203084.8804   -4531286.32246  -3426143.61946                  23203091.7864
        13.2504         13.7504
  23547096.0674   -2704721.19446  -2040813.70546                  23547103.0794
        15.0004         14.5004
  24099478.7554   10619726.32745   8235437.70045                  24099485.9194
        11.5004         11.2504
 02  7  8 15 40  0.0010000  0  9G 6G10G15G17G18G23G26G29G30
  20829049.4504    1806077.06948   1407331.02447                  20829054.6424
        31.2504         29.0004
  23787707.7784    9402359.26546   7278525.92746                  23787714.4354
        14.2504         14.0004
  21840686.7164   -3381775.40647  -2635148.65546                  21840692.7864
        24.5004         24.7504
  21431404.0604   -1629506.27547  -1269744.83847                  21431409.9664
        24.7504         26.5004
  22761041.9034   -6839497.90247  -5329472.52046                  22761047.8334
        21.7504         20.5004
  21378005.4974    2338339.12448   1822450.09647                  21378011.3454
        30.0004         29.0004
  23199774.2314   -4548685.90446  -3439701.69346                  23199781.8764
        14.0004         13.7504
  23545969.7084   -2710636.93146  -2045423.34046                  23545976.6614
        14.5004         14.7504
  24112167.2554   10686405.87145   8287395.67045                  24112175.1464
        11.2504         11.2504
 02  7  8 15 40 15.0010000  0  9G 6G10G15G17G18G23G26G29G30
  20833100.3724    1827365.89748   1423919.71147                  20833105.6104
        31.2504         29.0004
  23799602.8174    9464868.66246   7327234.53346                  23799609.1814
        14.5004         14.0004
  21838202.6144   -3394831.37647  -2645322.12846                  21838208.7084
        25.0004         24.7504
  21430831.5364   -1632516.21747  -1272090.25147                  21430837.5604
        25.0004         26.7504
  22754787.8174   -6872362.23947  -5355081.06446                  22754793.5714
        21.5004         20.5004
  21382992.9424    2364547.92448   1842872.54147                  21382998.8724
        30.0004         29.0004
  23196487.3104   -4565956.45046  -3453159.20446                  23196495.0834
        13.5004         14.5004
  23544868.7164   -2716422.79546  -2049931.78746                  23544875.6814
        14.5004         14.5004
  24124862.4114   10753115.20846   8339376.85845                  24124870.2084
        12.2504         11.5004
 02  7  8 15 40 30.0010000  0  9G 6G10G15G17G18G23G26G29G30
  20837176.7474    1848785.70748   1440610.46247                  20837182.1034
        31.2504         28.7504
  23811511.5754    9527448.67146   7375998.15546                  23811518.5054
        14.0004         13.7504
  21835732.6614   -3407809.50247  -2655434.96246                  21835738.7204
        24.2504         24.5004
  21430272.9034   -1635451.87547  -1274377.77647                  21430278.8334
        25.0004         26.5004
  22748552.7944   -6905131.16147  -5380615.25546                  22748558.2314
        22.7504         20.2504
  21388006.8564    2390894.46148   1863402.30447                  21388012.7634
        30.5004         29.0004
  23193226.2004   -4583095.18646  -3466514.02346                  23193233.6694
        14.0004         13.7504
  23543793.1304   -2722076.19846  -2054336.99846                  23543800.2354
        15.0004         14.7504
  24137562.8334   10819856.26246   8391382.77145                  24137570.9704
        12.7504         11.5004
 02  7  8 15 40 45.0010000  0  9G 6G10G15G17G18G23G26G29G30
  20841277.2314    1870334.28448   1457401.55047                  20841282.4464
        31.2504         29.0004
  23823433.5054    9590096.77646   7424814.85146                  23823440.7864
        14.5004         13.7504
  21833277.1534   -3420711.95547  -2665488.80146                  21833283.2594
        24.2504         25.0004
  21429727.6614   -1638315.70547  -1276609.33247                  21429733.7784
        24.7504         26.2504
  22742334.2634   -6937806.52847  -5406076.56246                  22742340.0174
        21.5004         20.0004
  21393046.1304    2417376.35148   1884037.54147                  21393052.0134
        30.2504         29.0004
  23189988.8964   -4600104.04946  -3479767.63746                  23189996.8564
        13.5004         14.0004
  23542742.3644   -2727599.25746  -2058640.66046                  23542749.6224
        15.2504         15.2504
  24150268.5604   10886626.51145   8443411.43145                  24150276.4854
        11.7504         11.7504
 02  7  8 15 41  0.0010000  0  9G 6G10G15G17G18G23G26G29G30
  20845402.2394    1892011.30048   1474292.72147                  20845407.5134
        31.2504         28.7504
  23835367.9194    9652812.15746   7473683.95146                  23835374.8724
        14.7504         14.0004
  21830836.4424   -3433539.11747  -2675483.98446                  21830842.3724
        25.0004         25.0004
  21429196.2164   -1641108.05847  -1278785.19347                  21429202.1574
        24.5004         26.5004
  22736134.1854   -6970388.48647  -5431465.06846                  22736139.6224
        22.0004         20.7504
  21398111.1384    2443993.02448   1904777.80047                  21398117.1034
        30.2504         29.0004
  23186777.3724   -4616983.06146  -3492920.07246                  23186784.9234
        14.5004         13.5004
  23541715.8804   -2732992.04246  -2062842.80346                  23541722.6304
        15.0004         14.7504
  24162979.6694   10953425.10645   8495462.17645                  24162988.0524
        11.5004         11.2504
 02  7  8 15 41 15.0010000  0  9G 6G10G15G17G18G23G26G29G30
  20849552.2784    1913819.60648   1491286.19047                  20849557.7744
        31.2504         28.7504
  23847316.1534    9715597.16346   7522607.30446                  23847323.2714
        15.2504         13.7504
  21828410.3804   -3446288.22247  -2685418.34746                  21828416.2864
        24.7504         25.0004
  21428679.1304   -1643826.06547  -1280903.12047                  21428685.1064
        25.0004         26.5004
  22729952.5994   -7002874.12747  -5456778.53646                  22729957.9784
        22.2504         20.5004
  21403201.9814    2470747.04848   1925625.09147                  21403207.9584
        30.0004         29.0004
  23183590.6464   -4633728.98546  -3505968.81246                  23183597.8454
        14.0004         13.7504
  23540715.1064   -2738251.57946  -2066941.11146                  23540722.7044
        14.7504         15.2504
  24175697.4354   11020254.56545   8547536.97845                  24175705.2784
        11.5004         11.0004
 02  7  8 15 41 30.0010000  0  9G 6G10G15G17G18G23G26G29G30
  20853727.2164    1935758.62648   1508381.52047                  20853732.6304
        31.2504         29.0004
  23859275.7714    9778450.77346   7571584.13146                  23859282.5914
        14.0004         13.7504
  21825999.1224   -3458960.00347  -2695292.45546                  21826005.2864
        24.5004         25.0004
  21428176.0914   -1646470.46047  -1282963.68847                  21428182.0674
        25.0004         26.5004
  22723788.6384   -7035263.84747  -5482017.25946                  22723794.5324
        21.7504         20.5004
  21408319.1854    2497637.57948   1946578.74647                  21408325.1614
        30.0004         29.0004
  23180429.9354   -4650342.18346  -3518914.11346                  23180436.9464
        14.5004         13.7504
  23539739.2084   -2743378.27346  -2070935.91746                  23539746.1854
        15.0004         14.5004
  24188419.8104   11087113.82745   8599635.00045                  24188427.5954
        11.5004         11.2504
 02  7  8 15 41 45.0010000  0  9G 6G10G15G17G18G23G26G29G30
  20857926.2244    1957825.19448   1525576.23647                  20857931.7314
        31.2504         29.0004
  23871248.4894    9841369.54346   7620611.71146                  23871255.7124
        13.5004         13.2504
  21823602.1694   -3471557.59547  -2705108.75146                  21823608.1104
        25.0004         24.7504
  21427686.2004   -1649044.44147  -1284969.38947                  21427692.1534
        25.0004         26.5004
  22717643.1534   -7067560.57547  -5507183.50746                  22717648.8964
        22.7504         20.7504
  21413461.6464    2524661.19548   1967636.10547                  21413467.5284
        30.0004         29.0004
  23177292.3884   -4666825.57946  -3531758.28846                  23177299.6694
        14.2504         14.2504
  23538788.1614   -2748375.03746  -2074829.46446                  23538794.7124
        14.2504         14.7504
  24201148.5284   11153999.48346   8651753.58346                  24201157.3454
        12.2504         12.2504
 02  7  8 15 42  0.0010000  0  9G 6G10G15G17G18G23G26G29G30
  20862149.8334    1980021.27348   1542871.87247                  20862155.1774
        31.0004         29.0004
  23883234.8884    9904355.13546   7669691.38246                  23883242.2864
        14.0004         13.5004
  21821218.9424   -3484079.15447  -2714865.80146                  21821224.8964
        24.5004         24.5004
  21427210.0754   -1651546.14847  -1286918.76947                  21427215.9934
        25.0004         26.7504
  22711515.3174   -7099762.21447  -5532275.67146                  22711520.7434
        23.0004         21.2504
  21418629.9664    2551819.60348   1988798.50147                  21418635.8134
        30.5004         29.2504
  23174180.7944   -4683176.75646  -3544499.43346                  23174187.5914
        14.2504         14.2504
  23537862.9194   -2753239.74946  -2078620.12146                  23537869.7164
        14.7504         14.5004
  24213881.9274   11220912.88846   8703893.79545                  24213889.9814
        12.2504         11.5004
 02  7  8 15 42 15.0010000  0  9G 6G10G15G17G18G23G26G29G30
  20866398.2864    2002347.17348   1560268.66047                  20866403.6184
        31.0004         29.0004
  23895233.5674    9967407.48546   7718823.06846                  23895240.7904
        14.5004         14.0004
  21818851.0214   -3496524.30547  -2724563.32046                  21818856.9504
        25.0004         25.0004
  21426748.0134   -1653975.42147  -1288811.71747                  21426753.9424
        25.2504         26.5004
  22705405.5524   -7131868.23147  -5557293.32546                  22705411.1884
        22.7504         21.0004
  21423823.1694    2579112.91848   2010066.00647                  21423829.2044
        30.0004         29.0004
  23171094.0604   -4699395.15446  -3557137.10046                  23171101.0014
        13.5004         14.2504
  23536962.4354   -2757971.87446  -2082307.47646                  23536968.6574
        14.7504         14.7504
  24226620.4584   11287853.98245   8756055.58145                  24226629.4154
        11.7504         11.7504
 02  7  8 15 42 30.0010000  0  9G 6G10G15G17G18G23G26G29G30
  20870671.4664    2024800.65648   1577764.87047                  20870676.7164
        32.0004         29.0004
  23907243.6144   10030523.93246   7768004.67546                  23907251.2244
        14.2504         14.0004
  21816496.5364   -3508895.32947  -2734203.07546                  21816502.5484
        24.7504         25.5004
  21426299.1464   -1656334.42547  -1290649.90047                  21426305.0874
        25.2504         26.7504
  22699313.7784   -7163880.67347  -5582238.05746                  22699319.8024
        22.2504         21.0004
  21429042.4114    2606538.57648   2031436.64147                  21429048.3534
        30.2504         29.2504
  23168033.4894   -4715482.64446  -3569672.76746                  23168040.7944
        14.5004         14.0004
  23536085.5524   -2762573.58946  -2085893.19546                  23536092.1854
        14.2504         15.0004
  24239363.4424   11354820.22045   8808236.95145                  24239372.2824
        11.0004         11.5004
 02  7  8 15 42 45.0010000  0  9G 6G10G15G17G18G23G26G29G30
  20874969.0604    2047384.61248   1595362.74547                  20874974.4384
        31.7504         29.0004
  23919266.9584   10093707.00746   7817238.22346                  23919274.4384
        14.0004         13.0004
  21814157.3884   -3521189.42547  -2743782.88046                  21814163.4354
        25.2504         25.0004
  21425863.7714   -1658620.50247  -1292431.25647                  21425869.8174
        25.2504         26.7504
  22693240.4424   -7195796.52247  -5607107.53046                  22693246.1614
        22.5004         21.0004
  21434287.1224    2634099.25148   2052912.48847                  21434293.0634
        30.7504         29.0004
  23164996.9274   -4731436.14946  -3582104.04446                  23165004.1264
        14.0004         14.2504
  23535236.2864   -2767041.78646  -2089374.88046                  23535242.6494
        15.0004         15.0004
  24252112.3644   11421813.98045   8860439.75045                  24252120.5604
        10.7504         11.0004
 02  7  8 15 43  0.0010000  0  9G 6G10G15G17G18G23G26G29G30
  20879291.4744    2070100.05148   1613063.07747                  20879296.8764
        31.2504         29.0004
  23931303.1614   10156957.22946   7866524.09846                  23931310.2434
        14.0004         13.5004
  21811832.5524   -3533405.65747  -2753302.01546                  21811838.6574
        25.0004         25.0004
  21425443.0054   -1660832.57647  -1294154.95147                  21425448.9464
        25.2504         26.7504
  22687185.9034   -7227614.56847  -5631900.78646                  22687191.5284
        23.2504         21.0004
  21439557.7474    2661795.67948   2074494.11047                  21439563.7474
        30.5004         29.0004
  23161986.6854   -4747254.28146  -3594429.82046                  23161994.1534
        14.0004         14.2504
  23534411.8644   -2771375.34146  -2092751.64846                  23534418.5094
        15.2504         14.7504
  24264865.5994   11488835.79445   8912664.43245                  24264874.4034
        10.0004         10.2504
 02  7  8 15 43 15.0010000  0  9G 6G10G15G17G18G23G26G29G30
  20883639.0914    2092946.12948   1630865.20547                  20883644.4814
        31.2504         29.0004
  23943351.6694   10220273.27346   7915861.27246                  23943358.7164
        13.5004         13.0004
  21809522.3884   -3545544.94447  -2762761.19346                  21809528.4114
        24.7504         25.0004
  21425035.8174   -1662971.67847  -1295821.78547                  21425041.7244
        25.2504         27.0004
  22681149.2164   -7259335.55947  -5656618.42846                  22681154.8644
        22.5004         21.0004
  21444853.5364    2689626.72748   2096180.63747                  21444859.5364
        30.2504         29.2504
  23159003.2394   -4762937.59346  -3606650.55746                  23159010.2514
        14.7504         14.5004
  23533612.0134   -2775574.77746  -2096023.90346                  23533618.8214
        15.2504         15.5004
  24277624.7314   11555884.45945   8964910.05445                  24277634.1464
         9.5004         10.7504
 02  7  8 15 43 30.0010000  0  9G 6G10G15G17G18G23G26G29G30
  20888010.7784    2115921.55948   1648768.12447                  20888016.1224
        30.7504         29.0004
  23955413.5834   10283653.51246   7965248.45146                  23955420.6534
        14.0004         13.5004
  21807226.5994   -3557608.63347  -2772161.45546                  21807232.6574
        24.2504         25.0004
  21424642.4354   -1665039.10847  -1297432.76547                  21424648.3294
        25.5004         27.0004
  22675130.9274   -7290960.51347  -5681261.21746                  22675136.6814
        22.7504         21.2504
  21450174.8104    2717590.85048   2117970.85747                  21450180.7744
        30.2504         29.2504
  23156044.1384   -4778487.17046  -3618767.06646                  23156051.0094
        14.7504         14.5004
  23532838.9424   -2779641.31646  -2099192.60446                  23532845.8964
        15.7504         15.0004
  24290388.4504   11622958.38745   9017175.31445                  24290397.8294
         9.2504         10.5004
 02  7  8 15 43 45.0010000  0  9G 6G10G15G17G18G23G26G29G30
  20892407.9274    2139028.67348   1666773.65947                  20892413.3644
        30.7504         29.0004
  23967486.2244   10347099.98246   8014687.23046                  23967493.6224
        13.5004         13.5004
  21804946.1854   -3569594.45247  -2781501.04446                  21804952.1854
        25.0004         25.0004
  21424263.1854   -1667032.71447  -1298986.22847                  21424269.1384
        25.7504         26.7504
  22669131.9504   -7322486.94547  -5705827.23846                  22669137.9624
        22.7504         21.2504
  21455521.9894    2745690.08748   2139866.35947                  21455527.9664
        30.0004         29.5004
  23153110.6304   -4793900.22946  -3630777.21646                  23153117.4274
        15.0004         14.2504
  23532090.1304   -2783572.51446  -2102255.84546                  23532097.0484
        15.2504         15.2504
  24303157.1144   11690059.32345   9069461.62945                  24303166.6344
         9.0004         11.0004
 02  7  8 15 44  0.0010000  0  9G 6G10G15G17G18G23G26G29G30
  20896830.8884    2162269.38248   1684883.29447                  20896836.3374
        31.2504         29.0004
  23979572.9504   10410614.14346   8064178.76246                  23979579.7354
        14.2504         13.2504
  21802680.4274   -3581500.56047  -2790778.52946                  21802686.4854
        25.0004         24.7504
  21423898.3564   -1668950.53547  -1300480.63047                  21423904.3804
        25.5004         27.0004
  22663151.7474   -7353912.89747  -5730314.98246                  22663157.2084
        22.7504         21.2504
  21460895.2554    2773926.12248   2161868.45847                  21460901.2554
        30.7504         29.5004
  23150204.4664   -4809174.63746  -3642679.31846                  23150211.5604
        15.0004         14.7504
  23531368.6924   -2787366.15846  -2105211.90046                  23531375.3494
        15.0004         15.0004
  24315932.0524   11757188.86245   9121770.24045                  24315941.2554
         9.2504         11.2504
 02  7  8 15 44 15.0010000  0  9G 6G10G15G17G18G23G26G29G30
  20901278.1224    2185640.47448   1703094.52347                  20901283.6064
        30.7504         29.0004
  23991670.9744   10474192.37746   8113720.22646                  23991677.8334
        13.5004         12.7504
  21800429.1384   -3593330.15547  -2799996.39046                  21800435.1384
        24.5004         24.7504
  21423547.2474   -1670795.85347  -1301918.53647                  21423553.2474
        25.5004         26.7504
  22657189.9814   -7385241.44847  -5754726.81546                  22657195.6654
        22.7504         21.2504
  21466293.9274    2802295.48348   2183974.44847                  21466299.8804
        30.5004         29.2504
  23147323.3964   -4824313.33846  -3654475.68446                  23147330.6534
        14.7504         14.5004
  23530671.8884   -2791025.25646  -2108063.10746                  23530678.6734
        14.7504         15.2504
  24328711.2314   11824343.31745   9174098.26945                  24328719.6614
         9.2504         10.5004
 02  7  8 15 44 30.0010000  0  9G 6G10G15G17G18G23G26G29G30
  20905750.6534    2209144.05148   1721408.98747                  20905756.1384
        30.7504         29.0004
  24003782.1064   10537836.41446   8163312.98846                  24003789.1534
        13.5004         12.7504
  21798192.6614   -3605081.20047  -2809153.03446                  21798198.6734
        24.2504         25.0004
  21423210.1304   -1672566.75147  -1303298.46247                  21423216.1654
        26.0004         27.0004
  22651247.4194   -7416470.12947  -5779060.83346                  22651253.0444
        22.7504         21.2504
  21471717.9974    2830799.99948   2206185.75347                  21471723.8924
        30.2504         29.2504
  23144468.4894   -4839313.87246  -3666164.36446                  23144475.8884
        15.0004         15.0004
  23530001.9584   -2794547.66546  -2110807.80946                  23530008.5444
        15.2504         14.7504
  24341495.4894   11891524.50545   9226447.13945                  24341505.1034
         8.7504         10.5004
 02  7  8 15 44 45.0010000  0  9G 6G10G15G17G18G23G26G29G30
  20910249.0214    2232782.26148   1739828.36847                  20910254.6924
        31.2504         29.0004
  24015905.6614   10601548.10146   8212958.41446                  24015912.6034
        13.2504         13.2504
  21795972.4814   -3616751.43747  -2818246.71746                  21795978.5054
        25.2504         25.2504
  21422887.5914   -1674261.00247  -1304618.65747                  21422893.4974
        25.2504         27.0004
  22645323.8884   -7447596.64947  -5803315.24346                  22645329.6184
        21.7504         21.2504
  21477168.4354    2859441.71148   2228503.96047                  21477174.4354
        30.5004         29.2504
  23141641.3804   -4854173.77346  -3677743.47846                  23141648.3214
        15.0004         14.7504
  23529357.9424   -2797930.93546  -2113444.07946                  23529364.0604
        15.2504         15.5004
  24354285.3724   11958734.21045   9278818.20045                  24354295.0564
         9.5004         10.0004
 02  7  8 15 45  0.0010000  0  9G 6G10G15G17G18G23G26G29G30
  20914771.2944    2256547.40348   1758346.64847                  20914776.8134
        30.7504         29.0004
  24028041.3254   10665319.36446   8262650.30946                  24028048.1574
        13.5004         13.2504
  21793764.9504   -3628348.60647  -2827283.46946                  21793770.9034
        24.2504         25.0004
  21422578.5134   -1675886.45847  -1305885.24647                  21422584.4784
        26.0004         27.2504
  22639418.7084   -7478628.51447  -5827495.88846                  22639424.7674
        22.0004         21.2504
  21482643.2084    2888212.55548   2250922.78947                  21482649.2784
        30.2504         29.2504
  23138838.9274   -4868900.29946  -3689218.66346                  23138845.8804
        15.2504         15.0004
  23528738.9744   -2801182.60746  -2115977.83246                  23528745.2904
        14.7504         15.2504
  24367078.4034   12025964.28645   9331205.14945                  24367086.6694
         9.2504         10.2504
 02  7  8 15 45 15.0010000  0  9G 6G10G15G17G18G23G26G29G30
  20919318.8964    2280446.44348   1776969.26547                  20919324.4154
        30.2504         29.0004
  24040189.1144   10729156.63146   8312393.60246                  24040196.0564
        13.2504         13.0004
  21791573.9424   -3639865.92647  -2836257.99146                  21791579.9894
        25.0004         24.7504
  21422283.4664   -1677436.17447  -1307092.81747                  21422289.4074
        25.7504         27.0004
  22633533.2784   -7509558.65947  -5851597.28446                  22633539.1144
        22.7504         21.2504
  21488144.1924    2917119.18448   2273447.43347                  21488150.1924
        30.5004         29.5004
  23136062.9974   -4883486.40046  -3700584.42946                  23136070.3494
        15.0004         15.0004
  23528146.7714   -2804295.57746  -2118403.47746                  23528153.2744
        15.2504         15.0004
  24379877.5214   12093221.09445   9383612.92445                  24379885.1774
         9.5004         10.2504
 02  7  8 15 45 30.0010000  0  9G 6G10G15G17G18G23G26G29G30
  20923892.1924    2304478.07448   1795695.20247                  20923897.8294
        30.7504         29.0004
  24052349.8414   10793058.40146   8362187.16446                  24052356.8764
        13.5004         12.7504
  21789396.7314   -3651304.67647  -2845171.30546                  21789402.7314
        24.5004         24.7504
  21422002.7864   -1678911.54247  -1308242.45047                  21422008.7864
        25.7504         27.2504
  22627666.5524   -7540388.19247  -5875620.27046                  22627672.0714
        23.0004         21.2504
  21493670.4894    2946160.16348   2296076.75347                  21493676.3494
        31.0004         29.2504
  23133314.2164   -4897933.01846  -3711841.50746                  23133321.1104
        15.7504         14.7504
  23527580.9584   -2807271.11746  -2120722.04546                  23527586.6064
        16.0004         15.0004
  24392681.0754   12160503.15145   9436040.37745                  24392689.6224
        10.0004         11.2504
 02  7  8 15 45 45.0010000  0  9G 6G10G15G17G18G23G26G29G30
  20928490.1924    2328641.37348   1814523.73847                  20928495.7824
        30.5004         29.0004
  24064521.5674   10857023.29046   8412029.92046                  24064528.3534
        13.5004         12.7504
  21787235.0524   -3662665.78347  -2854024.09846                  21787241.0284
        24.7504         25.0004
  21421736.0364   -1680313.54847  -1309334.91947                  21421742.0134
        26.5004         27.2504
  22621818.8644   -7571117.74747  -5899565.37446                  22621824.5014
        22.5004         21.2504
  21499221.9974    2975334.22848   2318809.78047                  21499227.8804
        30.5004         29.5004
  23130591.5054   -4912240.72446  -3722990.34746                  23130598.6464
        15.2504         14.7504
  23527040.5604   -2810109.79546  -2122933.96646                  23527046.8994
        15.7504         15.0004
  24405488.0364   12227809.08645   9488486.44145                  24405496.6534
         9.5004         10.7504
 02  7  8 15 46  0.0010000  0  9G 6G10G15G17G18G23G26G29G30
  20933112.9274    2352933.39548   1833452.57547                  20933118.4814
        30.5004         29.0004
  24076705.4354   10921047.89446   8461919.19846                  24076712.6104
        13.5004         13.5004
  21785087.4814   -3673952.27947  -2862818.75946                  21785093.5404
        25.5004         25.0004
  21421482.5054   -1681645.20947  -1310372.57947                  21421488.3884
        26.0004         27.2504
  22615989.5834   -7601750.13047  -5923434.74046                  22615995.3024
        22.5004         21.2504
  21504798.3414    3004638.16948   2341644.01647                  21504804.1884
        30.5004         29.5004
  23127894.8494   -4926412.15446  -3734032.99146                  23127901.8254
        15.2504         15.0004
  23526525.9974   -2812814.43046  -2125041.43646                  23526532.1614
        15.7504         15.5004
  24418300.7944   12295135.54345   9540948.48545                  24418309.7164
        10.5004         11.2504
 02  7  8 15 46 15.0010000  0  9G 6G10G15G17G18G23G26G29G30
  20937760.2714    2377356.27048   1852483.37747                  20937765.8254
        30.2504         29.0004
  24088900.2084   10985134.02846   8511856.42646                  24088907.0054
        13.2504         12.7504
  21782954.5054   -3685162.03347  -2871553.61946                  21782960.5054
        25.7504         25.0004
  21421242.9664   -1682904.42947  -1311353.78347                  21421248.9424
        25.5004         27.5004
  22610179.6774   -7632283.07347  -5947226.61546                  22610185.3964
        23.0004         21.7504
  21510399.8804    3034073.86348   2364580.90947                  21510405.8104
        30.7504         29.5004
  23125224.3804   -4940444.95646  -3744967.62146                  23125231.5444
        15.2504         15.0004
  23526036.9974   -2815382.75746  -2127042.69246                  23526043.7244
        15.5004         15.2504
  24431116.2944   12362484.25845   9593427.88445                  24431125.5674
        10.0004         11.5004
 02  7  8 15 46 30.0010000  0  9G 6G10G15G17G18G23G26G29G30
  20942432.4034    2401907.89148   1871614.49547                  20942438.0874
        30.5004         29.0004
  24101107.2474   11049279.18346   8561839.64246                  24101114.3884
        13.2504         12.5004
  21780835.4114   -3696297.19447  -2880230.35146                  21780841.3644
        25.5004         25.0004
  21421016.3414   -1684093.40547  -1312280.25747                  21421022.2944
        25.7504         27.2504
  22604387.6384   -7662718.46647  -5970942.48646                  22604393.3214
        22.5004         21.2504
  21516026.0134    3063638.99848   2387618.66747                  21516031.9314
        30.5004         29.5004
  23122579.3334   -4954340.87046  -3755795.56946                  23122586.4384
        15.0004         15.2504
  23525573.8564   -2817816.63246  -2128939.19446                  23525580.5364
        15.5004         15.5004
  24443936.7864   12429852.78145   9645922.69845                  24443945.2044
        10.5004         11.2504
 02  7  8 15 46 45.0010000  0  9G 6G10G15G17G18G23G26G29G30
  20947128.9974    2426589.07348   1890846.57047                  20947134.5284
        30.5004         29.0004
  24113325.0284   11113483.88346   8611869.26046                  24113332.5794
        13.5004         12.2504
  21778730.7714   -3707356.95247  -2888848.33046                  21778736.8644
        25.5004         25.2504
  21420804.1774   -1685211.44947  -1313151.46147                  21420810.0714
        26.5004         27.5004
  22598614.1384   -7693055.34047  -5994581.59246                  22598620.1964
        21.5004         21.2504
  21521676.8494    3093334.11648   2410757.70747                  21521682.7904
        30.7504         29.7504
  23119962.0364   -4968098.83746  -3766516.03846                  23119969.3994
        15.2504         14.7504
  23525136.4504   -2820115.16246  -2130730.21446                  23525143.1184
        15.7504         15.5004
  24456760.3964   12497241.48445   9698433.24045                  24456769.8684
        10.7504         11.2504
 02  7  8 15 47  0.0010000  0  9G 6G10G15G17G18G23G26G29G30
  20951850.7944    2451401.27848   1910180.75147                  20951856.5244
        30.2504         29.0004
  24125553.9584   11177749.22446   8661946.13246                  24125561.8494
        13.2504         12.5004
  21776640.7634   -3718340.00847  -2897406.54746                  21776646.8804
        25.5004         25.2504
  21420605.1694   -1686257.02147  -1313966.19347                  21420611.1814
        26.5004         27.7504
  22592860.9504   -7723292.10047  -6018142.67546                  22592866.3644
        23.0004         21.5004
  21527352.5604    3123160.38948   2433998.95447                  21527358.3724
        31.2504         29.7504
  23117369.9664   -4981716.97546  -3777127.54646                  23117377.2004
        15.2504         15.0004
  23524725.0754   -2822276.62146  -2132414.43646                  23524731.2744
        16.0004         15.5004
  24469588.5214   12564651.40445   9750960.33945                  24469597.2904
        11.0004         11.0004
